<?xml version="1.0" encoding="UTF-8" standalone="no" ?>
<gpx xmlns="http://www.topografix.com/GPX/1/1" xmlns:xsi="http://www.w3.org/2001/XMLSchema-instance" xsi:schemaLocation="http://www.topografix.com/GPX/1/1 http://www.topografix.com/GPX/1/1/gpx.xsd" version="1.1" creator="VisuGPX - https://www.visugpx.com">
  <metadata>
    <name>Ski Chatel -garmin</name>
    <desc><![CDATA[matinée ski Chatel avec forerunner 225]]></desc>
  </metadata>
  <trk>
    <name><![CDATA[Châtel ski]]></name>
    <trkseg>
      <trkpt lat="46.2322" lon="6.7879">
        <ele>1310.1999511719</ele>
        <time>2016-02-27T07:57:44.000Z</time>
      </trkpt>
      <trkpt lat="46.23233" lon="6.78797">
        <ele>1309.1999511719</ele>
        <time>2016-02-27T07:57:45.000Z</time>
      </trkpt>
      <trkpt lat="46.23203" lon="6.78805">
        <ele>1308.1999511719</ele>
        <time>2016-02-27T07:57:49.000Z</time>
      </trkpt>
      <trkpt lat="46.23212" lon="6.788">
        <ele>1308.5999755859</ele>
        <time>2016-02-27T07:57:52.000Z</time>
      </trkpt>
      <trkpt lat="46.23216" lon="6.78801">
        <ele>1308.4000244141</ele>
        <time>2016-02-27T07:57:55.000Z</time>
      </trkpt>
      <trkpt lat="46.23207" lon="6.78807">
        <ele>1307.5999755859</ele>
        <time>2016-02-27T07:57:56.000Z</time>
      </trkpt>
      <trkpt lat="46.232" lon="6.78804">
        <ele>1308.4000244141</ele>
        <time>2016-02-27T07:57:57.000Z</time>
      </trkpt>
      <trkpt lat="46.23206" lon="6.78805">
        <ele>1308</ele>
        <time>2016-02-27T07:58:08.000Z</time>
      </trkpt>
      <trkpt lat="46.23206" lon="6.78806">
        <ele>1308</ele>
        <time>2016-02-27T07:58:09.000Z</time>
      </trkpt>
      <trkpt lat="46.2319" lon="6.78814">
        <ele>1307.4000244141</ele>
        <time>2016-02-27T07:58:44.000Z</time>
      </trkpt>
      <trkpt lat="46.23171" lon="6.78817">
        <ele>1307.5999755859</ele>
        <time>2016-02-27T07:59:07.000Z</time>
      </trkpt>
      <trkpt lat="46.23149" lon="6.78823">
        <ele>1307.8000488281</ele>
        <time>2016-02-27T07:59:13.000Z</time>
      </trkpt>
      <trkpt lat="46.2313" lon="6.78831">
        <ele>1310.1999511719</ele>
        <time>2016-02-27T07:59:19.000Z</time>
      </trkpt>
      <trkpt lat="46.2311" lon="6.78838">
        <ele>1312.8000488281</ele>
        <time>2016-02-27T07:59:25.000Z</time>
      </trkpt>
      <trkpt lat="46.23093" lon="6.78845">
        <ele>1315.1999511719</ele>
        <time>2016-02-27T07:59:30.000Z</time>
      </trkpt>
      <trkpt lat="46.23064" lon="6.78849">
        <ele>1319.5999755859</ele>
        <time>2016-02-27T07:59:35.000Z</time>
      </trkpt>
      <trkpt lat="46.23046" lon="6.78862">
        <ele>1324.8000488281</ele>
        <time>2016-02-27T07:59:43.000Z</time>
      </trkpt>
      <trkpt lat="46.23026" lon="6.78868">
        <ele>1330.8000488281</ele>
        <time>2016-02-27T07:59:49.000Z</time>
      </trkpt>
      <trkpt lat="46.23008" lon="6.78873">
        <ele>1338.5999755859</ele>
        <time>2016-02-27T07:59:54.000Z</time>
      </trkpt>
      <trkpt lat="46.2299" lon="6.78879">
        <ele>1346.4000244141</ele>
        <time>2016-02-27T07:59:59.000Z</time>
      </trkpt>
      <trkpt lat="46.2297" lon="6.78887">
        <ele>1354.8000488281</ele>
        <time>2016-02-27T08:00:05.000Z</time>
      </trkpt>
      <trkpt lat="46.22937" lon="6.78898">
        <ele>1368.5999755859</ele>
        <time>2016-02-27T08:00:15.000Z</time>
      </trkpt>
      <trkpt lat="46.22916" lon="6.78905">
        <ele>1377.5999755859</ele>
        <time>2016-02-27T08:00:21.000Z</time>
      </trkpt>
      <trkpt lat="46.22898" lon="6.78911">
        <ele>1385</ele>
        <time>2016-02-27T08:00:26.000Z</time>
      </trkpt>
      <trkpt lat="46.2288" lon="6.78915">
        <ele>1389.4000244141</ele>
        <time>2016-02-27T08:00:31.000Z</time>
      </trkpt>
      <trkpt lat="46.22861" lon="6.78921">
        <ele>1394</ele>
        <time>2016-02-27T08:00:37.000Z</time>
      </trkpt>
      <trkpt lat="46.22842" lon="6.78927">
        <ele>1398.1999511719</ele>
        <time>2016-02-27T08:00:43.000Z</time>
      </trkpt>
      <trkpt lat="46.22822" lon="6.78933">
        <ele>1404</ele>
        <time>2016-02-27T08:00:50.000Z</time>
      </trkpt>
      <trkpt lat="46.22803" lon="6.78939">
        <ele>1408.8000488281</ele>
        <time>2016-02-27T08:00:55.000Z</time>
      </trkpt>
      <trkpt lat="46.22784" lon="6.78946">
        <ele>1412.4000244141</ele>
        <time>2016-02-27T08:01:00.000Z</time>
      </trkpt>
      <trkpt lat="46.22766" lon="6.78952">
        <ele>1416.5999755859</ele>
        <time>2016-02-27T08:01:05.000Z</time>
      </trkpt>
      <trkpt lat="46.22733" lon="6.78962">
        <ele>1426</ele>
        <time>2016-02-27T08:01:15.000Z</time>
      </trkpt>
      <trkpt lat="46.22712" lon="6.78969">
        <ele>1430.5999755859</ele>
        <time>2016-02-27T08:01:21.000Z</time>
      </trkpt>
      <trkpt lat="46.22692" lon="6.78975">
        <ele>1432.1999511719</ele>
        <time>2016-02-27T08:01:28.000Z</time>
      </trkpt>
      <trkpt lat="46.22671" lon="6.78983">
        <ele>1434</ele>
        <time>2016-02-27T08:01:34.000Z</time>
      </trkpt>
      <trkpt lat="46.22651" lon="6.7899">
        <ele>1435.4000244141</ele>
        <time>2016-02-27T08:01:40.000Z</time>
      </trkpt>
      <trkpt lat="46.22632" lon="6.78996">
        <ele>1436.1999511719</ele>
        <time>2016-02-27T08:01:45.000Z</time>
      </trkpt>
      <trkpt lat="46.22612" lon="6.79002">
        <ele>1436.8000488281</ele>
        <time>2016-02-27T08:01:51.000Z</time>
      </trkpt>
      <trkpt lat="46.22593" lon="6.79007">
        <ele>1437.4000244141</ele>
        <time>2016-02-27T08:01:57.000Z</time>
      </trkpt>
      <trkpt lat="46.22574" lon="6.79013">
        <ele>1438.1999511719</ele>
        <time>2016-02-27T08:02:02.000Z</time>
      </trkpt>
      <trkpt lat="46.22554" lon="6.79021">
        <ele>1440.8000488281</ele>
        <time>2016-02-27T08:02:08.000Z</time>
      </trkpt>
      <trkpt lat="46.22535" lon="6.79026">
        <ele>1444.5999755859</ele>
        <time>2016-02-27T08:02:13.000Z</time>
      </trkpt>
      <trkpt lat="46.22517" lon="6.79033">
        <ele>1447.5999755859</ele>
        <time>2016-02-27T08:02:19.000Z</time>
      </trkpt>
      <trkpt lat="46.22496" lon="6.79038">
        <ele>1447.1999511719</ele>
        <time>2016-02-27T08:02:26.000Z</time>
      </trkpt>
      <trkpt lat="46.22475" lon="6.79046">
        <ele>1448.5999755859</ele>
        <time>2016-02-27T08:02:30.000Z</time>
      </trkpt>
      <trkpt lat="46.22455" lon="6.79053">
        <ele>1454.5999755859</ele>
        <time>2016-02-27T08:02:34.000Z</time>
      </trkpt>
      <trkpt lat="46.22435" lon="6.7906">
        <ele>1456</ele>
        <time>2016-02-27T08:02:39.000Z</time>
      </trkpt>
      <trkpt lat="46.22416" lon="6.79066">
        <ele>1457.1999511719</ele>
        <time>2016-02-27T08:02:44.000Z</time>
      </trkpt>
      <trkpt lat="46.22396" lon="6.79073">
        <ele>1459.1999511719</ele>
        <time>2016-02-27T08:02:50.000Z</time>
      </trkpt>
      <trkpt lat="46.22366" lon="6.79084">
        <ele>1467</ele>
        <time>2016-02-27T08:02:58.000Z</time>
      </trkpt>
      <trkpt lat="46.22349" lon="6.7909">
        <ele>1471.8000488281</ele>
        <time>2016-02-27T08:03:03.000Z</time>
      </trkpt>
      <trkpt lat="46.2233" lon="6.79096">
        <ele>1475.5999755859</ele>
        <time>2016-02-27T08:03:08.000Z</time>
      </trkpt>
      <trkpt lat="46.22312" lon="6.79102">
        <ele>1476.5999755859</ele>
        <time>2016-02-27T08:03:13.000Z</time>
      </trkpt>
      <trkpt lat="46.22294" lon="6.79108">
        <ele>1480.5999755859</ele>
        <time>2016-02-27T08:03:18.000Z</time>
      </trkpt>
      <trkpt lat="46.22276" lon="6.79113">
        <ele>1485</ele>
        <time>2016-02-27T08:03:23.000Z</time>
      </trkpt>
      <trkpt lat="46.22256" lon="6.79119">
        <ele>1488.4000244141</ele>
        <time>2016-02-27T08:03:29.000Z</time>
      </trkpt>
      <trkpt lat="46.22238" lon="6.79124">
        <ele>1491</ele>
        <time>2016-02-27T08:03:34.000Z</time>
      </trkpt>
      <trkpt lat="46.22219" lon="6.79129">
        <ele>1494</ele>
        <time>2016-02-27T08:03:39.000Z</time>
      </trkpt>
      <trkpt lat="46.22185" lon="6.79141">
        <ele>1498.4000244141</ele>
        <time>2016-02-27T08:03:48.000Z</time>
      </trkpt>
      <trkpt lat="46.22168" lon="6.79146">
        <ele>1500.1999511719</ele>
        <time>2016-02-27T08:03:53.000Z</time>
      </trkpt>
      <trkpt lat="46.22149" lon="6.79151">
        <ele>1502.1999511719</ele>
        <time>2016-02-27T08:03:58.000Z</time>
      </trkpt>
      <trkpt lat="46.22131" lon="6.79156">
        <ele>1508.5999755859</ele>
        <time>2016-02-27T08:04:03.000Z</time>
      </trkpt>
      <trkpt lat="46.22112" lon="6.79162">
        <ele>1517.1999511719</ele>
        <time>2016-02-27T08:04:08.000Z</time>
      </trkpt>
      <trkpt lat="46.22092" lon="6.79167">
        <ele>1526.4000244141</ele>
        <time>2016-02-27T08:04:14.000Z</time>
      </trkpt>
      <trkpt lat="46.22072" lon="6.79174">
        <ele>1534.1999511719</ele>
        <time>2016-02-27T08:04:21.000Z</time>
      </trkpt>
      <trkpt lat="46.22052" lon="6.79178">
        <ele>1543</ele>
        <time>2016-02-27T08:04:28.000Z</time>
      </trkpt>
      <trkpt lat="46.22031" lon="6.79185">
        <ele>1555.8000488281</ele>
        <time>2016-02-27T08:04:35.000Z</time>
      </trkpt>
      <trkpt lat="46.22013" lon="6.7919">
        <ele>1566.8000488281</ele>
        <time>2016-02-27T08:04:43.000Z</time>
      </trkpt>
      <trkpt lat="46.21994" lon="6.79198">
        <ele>1576.5999755859</ele>
        <time>2016-02-27T08:04:50.000Z</time>
      </trkpt>
      <trkpt lat="46.21973" lon="6.79205">
        <ele>1586.8000488281</ele>
        <time>2016-02-27T08:04:55.000Z</time>
      </trkpt>
      <trkpt lat="46.21956" lon="6.79211">
        <ele>1593.4000244141</ele>
        <time>2016-02-27T08:05:00.000Z</time>
      </trkpt>
      <trkpt lat="46.21919" lon="6.79225">
        <ele>1613.5999755859</ele>
        <time>2016-02-27T08:05:10.000Z</time>
      </trkpt>
      <trkpt lat="46.21898" lon="6.79232">
        <ele>1625.1999511719</ele>
        <time>2016-02-27T08:05:16.000Z</time>
      </trkpt>
      <trkpt lat="46.21879" lon="6.79238">
        <ele>1629.1999511719</ele>
        <time>2016-02-27T08:05:22.000Z</time>
      </trkpt>
      <trkpt lat="46.21862" lon="6.79245">
        <ele>1631.1999511719</ele>
        <time>2016-02-27T08:05:31.000Z</time>
      </trkpt>
      <trkpt lat="46.21844" lon="6.79251">
        <ele>1633.4000244141</ele>
        <time>2016-02-27T08:05:40.000Z</time>
      </trkpt>
      <trkpt lat="46.21838" lon="6.79253">
        <ele>1634</ele>
        <time>2016-02-27T08:05:43.000Z</time>
      </trkpt>
      <trkpt lat="46.21831" lon="6.79261">
        <ele>1634.1999511719</ele>
        <time>2016-02-27T08:05:48.000Z</time>
      </trkpt>
      <trkpt lat="46.21839" lon="6.79279">
        <ele>1630</ele>
        <time>2016-02-27T08:06:06.000Z</time>
      </trkpt>
      <trkpt lat="46.21855" lon="6.79297">
        <ele>1623.8000488281</ele>
        <time>2016-02-27T08:06:10.000Z</time>
      </trkpt>
      <trkpt lat="46.21865" lon="6.79324">
        <ele>1618.1999511719</ele>
        <time>2016-02-27T08:06:14.000Z</time>
      </trkpt>
      <trkpt lat="46.21855" lon="6.79331">
        <ele>1620.5999755859</ele>
        <time>2016-02-27T08:06:21.000Z</time>
      </trkpt>
      <trkpt lat="46.21843" lon="6.7933">
        <ele>1624.4000244141</ele>
        <time>2016-02-27T08:07:33.000Z</time>
      </trkpt>
      <trkpt lat="46.21842" lon="6.79331">
        <ele>1625</ele>
        <time>2016-02-27T08:10:02.000Z</time>
      </trkpt>
      <trkpt lat="46.21835" lon="6.79323">
        <ele>1627.8000488281</ele>
        <time>2016-02-27T08:11:16.000Z</time>
      </trkpt>
      <trkpt lat="46.21815" lon="6.79313">
        <ele>1634.8000488281</ele>
        <time>2016-02-27T08:11:23.000Z</time>
      </trkpt>
      <trkpt lat="46.21781" lon="6.79306">
        <ele>1639</ele>
        <time>2016-02-27T08:11:33.000Z</time>
      </trkpt>
      <trkpt lat="46.2176" lon="6.79302">
        <ele>1641.4000244141</ele>
        <time>2016-02-27T08:11:38.000Z</time>
      </trkpt>
      <trkpt lat="46.21742" lon="6.79297">
        <ele>1643.4000244141</ele>
        <time>2016-02-27T08:11:43.000Z</time>
      </trkpt>
      <trkpt lat="46.21723" lon="6.79292">
        <ele>1646.1999511719</ele>
        <time>2016-02-27T08:11:48.000Z</time>
      </trkpt>
      <trkpt lat="46.21705" lon="6.79287">
        <ele>1649.8000488281</ele>
        <time>2016-02-27T08:11:53.000Z</time>
      </trkpt>
      <trkpt lat="46.21685" lon="6.7928">
        <ele>1653.8000488281</ele>
        <time>2016-02-27T08:11:59.000Z</time>
      </trkpt>
      <trkpt lat="46.21665" lon="6.79274">
        <ele>1656.4000244141</ele>
        <time>2016-02-27T08:12:05.000Z</time>
      </trkpt>
      <trkpt lat="46.21632" lon="6.79263">
        <ele>1665.8000488281</ele>
        <time>2016-02-27T08:12:15.000Z</time>
      </trkpt>
      <trkpt lat="46.21612" lon="6.79259">
        <ele>1676.4000244141</ele>
        <time>2016-02-27T08:12:21.000Z</time>
      </trkpt>
      <trkpt lat="46.21593" lon="6.79254">
        <ele>1686</ele>
        <time>2016-02-27T08:12:27.000Z</time>
      </trkpt>
      <trkpt lat="46.21574" lon="6.79248">
        <ele>1695.8000488281</ele>
        <time>2016-02-27T08:12:33.000Z</time>
      </trkpt>
      <trkpt lat="46.21554" lon="6.79244">
        <ele>1706.4000244141</ele>
        <time>2016-02-27T08:12:41.000Z</time>
      </trkpt>
      <trkpt lat="46.21536" lon="6.79241">
        <ele>1718.4000244141</ele>
        <time>2016-02-27T08:12:47.000Z</time>
      </trkpt>
      <trkpt lat="46.21516" lon="6.79236">
        <ele>1732</ele>
        <time>2016-02-27T08:12:53.000Z</time>
      </trkpt>
      <trkpt lat="46.21497" lon="6.79231">
        <ele>1745.4000244141</ele>
        <time>2016-02-27T08:12:59.000Z</time>
      </trkpt>
      <trkpt lat="46.21475" lon="6.79226">
        <ele>1759.4000244141</ele>
        <time>2016-02-27T08:13:06.000Z</time>
      </trkpt>
      <trkpt lat="46.21455" lon="6.7922">
        <ele>1769.1999511719</ele>
        <time>2016-02-27T08:13:12.000Z</time>
      </trkpt>
      <trkpt lat="46.21435" lon="6.79214">
        <ele>1779.5999755859</ele>
        <time>2016-02-27T08:13:18.000Z</time>
      </trkpt>
      <trkpt lat="46.21414" lon="6.79208">
        <ele>1790.1999511719</ele>
        <time>2016-02-27T08:13:24.000Z</time>
      </trkpt>
      <trkpt lat="46.21394" lon="6.79202">
        <ele>1800.4000244141</ele>
        <time>2016-02-27T08:13:30.000Z</time>
      </trkpt>
      <trkpt lat="46.21374" lon="6.79197">
        <ele>1809.4000244141</ele>
        <time>2016-02-27T08:13:36.000Z</time>
      </trkpt>
      <trkpt lat="46.21341" lon="6.79189">
        <ele>1824.4000244141</ele>
        <time>2016-02-27T08:13:46.000Z</time>
      </trkpt>
      <trkpt lat="46.21322" lon="6.79184">
        <ele>1832.8000488281</ele>
        <time>2016-02-27T08:13:52.000Z</time>
      </trkpt>
      <trkpt lat="46.21303" lon="6.7918">
        <ele>1841.4000244141</ele>
        <time>2016-02-27T08:13:58.000Z</time>
      </trkpt>
      <trkpt lat="46.21283" lon="6.79174">
        <ele>1851.1999511719</ele>
        <time>2016-02-27T08:14:04.000Z</time>
      </trkpt>
      <trkpt lat="46.21263" lon="6.79169">
        <ele>1861</ele>
        <time>2016-02-27T08:14:10.000Z</time>
      </trkpt>
      <trkpt lat="46.21243" lon="6.79163">
        <ele>1871.1999511719</ele>
        <time>2016-02-27T08:14:16.000Z</time>
      </trkpt>
      <trkpt lat="46.21223" lon="6.79158">
        <ele>1880.8000488281</ele>
        <time>2016-02-27T08:14:22.000Z</time>
      </trkpt>
      <trkpt lat="46.21205" lon="6.79155">
        <ele>1889</ele>
        <time>2016-02-27T08:14:27.000Z</time>
      </trkpt>
      <trkpt lat="46.21186" lon="6.79149">
        <ele>1897</ele>
        <time>2016-02-27T08:14:33.000Z</time>
      </trkpt>
      <trkpt lat="46.21169" lon="6.79142">
        <ele>1904.5999755859</ele>
        <time>2016-02-27T08:14:38.000Z</time>
      </trkpt>
      <trkpt lat="46.21149" lon="6.79136">
        <ele>1913</ele>
        <time>2016-02-27T08:14:49.000Z</time>
      </trkpt>
      <trkpt lat="46.21145" lon="6.79127">
        <ele>1915</ele>
        <time>2016-02-27T08:14:53.000Z</time>
      </trkpt>
      <trkpt lat="46.21154" lon="6.79109">
        <ele>1912</ele>
        <time>2016-02-27T08:15:07.000Z</time>
      </trkpt>
      <trkpt lat="46.21163" lon="6.791">
        <ele>1908.8000488281</ele>
        <time>2016-02-27T08:16:21.000Z</time>
      </trkpt>
      <trkpt lat="46.21177" lon="6.79083">
        <ele>1906.1999511719</ele>
        <time>2016-02-27T08:16:37.000Z</time>
      </trkpt>
      <trkpt lat="46.21177" lon="6.79081">
        <ele>1906.5999755859</ele>
        <time>2016-02-27T08:16:38.000Z</time>
      </trkpt>
      <trkpt lat="46.21177" lon="6.7908">
        <ele>1906.8000488281</ele>
        <time>2016-02-27T08:16:39.000Z</time>
      </trkpt>
      <trkpt lat="46.2118" lon="6.79074">
        <ele>1907</ele>
        <time>2016-02-27T08:16:44.000Z</time>
      </trkpt>
      <trkpt lat="46.21201" lon="6.79056">
        <ele>1898.8000488281</ele>
        <time>2016-02-27T08:16:54.000Z</time>
      </trkpt>
      <trkpt lat="46.21209" lon="6.79047">
        <ele>1896.4000244141</ele>
        <time>2016-02-27T08:16:57.000Z</time>
      </trkpt>
      <trkpt lat="46.21223" lon="6.79031">
        <ele>1899.5999755859</ele>
        <time>2016-02-27T08:17:03.000Z</time>
      </trkpt>
      <trkpt lat="46.21226" lon="6.79028">
        <ele>1900.1999511719</ele>
        <time>2016-02-27T08:17:04.000Z</time>
      </trkpt>
      <trkpt lat="46.21234" lon="6.79014">
        <ele>1899.8000488281</ele>
        <time>2016-02-27T08:17:09.000Z</time>
      </trkpt>
      <trkpt lat="46.21234" lon="6.79012">
        <ele>1900.1999511719</ele>
        <time>2016-02-27T08:17:11.000Z</time>
      </trkpt>
      <trkpt lat="46.21234" lon="6.79012">
        <ele>1900.1999511719</ele>
        <time>2016-02-27T08:17:12.000Z</time>
      </trkpt>
      <trkpt lat="46.21232" lon="6.79014">
        <ele>1900.5999755859</ele>
        <time>2016-02-27T08:17:51.000Z</time>
      </trkpt>
      <trkpt lat="46.21228" lon="6.78998">
        <ele>1904.4000244141</ele>
        <time>2016-02-27T08:18:33.000Z</time>
      </trkpt>
      <trkpt lat="46.21225" lon="6.78989">
        <ele>1905.5999755859</ele>
        <time>2016-02-27T08:18:35.000Z</time>
      </trkpt>
      <trkpt lat="46.21223" lon="6.78984">
        <ele>1904.5999755859</ele>
        <time>2016-02-27T08:18:36.000Z</time>
      </trkpt>
      <trkpt lat="46.2122" lon="6.78958">
        <ele>1902.4000244141</ele>
        <time>2016-02-27T08:18:48.000Z</time>
      </trkpt>
      <trkpt lat="46.21214" lon="6.78937">
        <ele>1900</ele>
        <time>2016-02-27T08:18:51.000Z</time>
      </trkpt>
      <trkpt lat="46.2121" lon="6.78906">
        <ele>1897.5999755859</ele>
        <time>2016-02-27T08:18:54.000Z</time>
      </trkpt>
      <trkpt lat="46.21212" lon="6.78873">
        <ele>1891.4000244141</ele>
        <time>2016-02-27T08:18:57.000Z</time>
      </trkpt>
      <trkpt lat="46.21219" lon="6.78841">
        <ele>1887.1999511719</ele>
        <time>2016-02-27T08:19:00.000Z</time>
      </trkpt>
      <trkpt lat="46.21222" lon="6.78821">
        <ele>1884</ele>
        <time>2016-02-27T08:19:02.000Z</time>
      </trkpt>
      <trkpt lat="46.21223" lon="6.7881">
        <ele>1882.4000244141</ele>
        <time>2016-02-27T08:19:03.000Z</time>
      </trkpt>
      <trkpt lat="46.21218" lon="6.78772">
        <ele>1874</ele>
        <time>2016-02-27T08:19:06.000Z</time>
      </trkpt>
      <trkpt lat="46.21217" lon="6.78756">
        <ele>1870.8000488281</ele>
        <time>2016-02-27T08:19:07.000Z</time>
      </trkpt>
      <trkpt lat="46.21214" lon="6.78727">
        <ele>1864.4000244141</ele>
        <time>2016-02-27T08:19:09.000Z</time>
      </trkpt>
      <trkpt lat="46.21207" lon="6.78696">
        <ele>1857.1999511719</ele>
        <time>2016-02-27T08:19:11.000Z</time>
      </trkpt>
      <trkpt lat="46.21204" lon="6.78664">
        <ele>1851.1999511719</ele>
        <time>2016-02-27T08:19:13.000Z</time>
      </trkpt>
      <trkpt lat="46.21202" lon="6.78632">
        <ele>1846</ele>
        <time>2016-02-27T08:19:15.000Z</time>
      </trkpt>
      <trkpt lat="46.212" lon="6.78617">
        <ele>1842.8000488281</ele>
        <time>2016-02-27T08:19:16.000Z</time>
      </trkpt>
      <trkpt lat="46.21197" lon="6.78585">
        <ele>1836</ele>
        <time>2016-02-27T08:19:18.000Z</time>
      </trkpt>
      <trkpt lat="46.21196" lon="6.78567">
        <ele>1832.4000244141</ele>
        <time>2016-02-27T08:19:19.000Z</time>
      </trkpt>
      <trkpt lat="46.21196" lon="6.78534">
        <ele>1827.8000488281</ele>
        <time>2016-02-27T08:19:21.000Z</time>
      </trkpt>
      <trkpt lat="46.21198" lon="6.78508">
        <ele>1823.1999511719</ele>
        <time>2016-02-27T08:19:23.000Z</time>
      </trkpt>
      <trkpt lat="46.21209" lon="6.78474">
        <ele>1818.1999511719</ele>
        <time>2016-02-27T08:19:26.000Z</time>
      </trkpt>
      <trkpt lat="46.21212" lon="6.78462">
        <ele>1816</ele>
        <time>2016-02-27T08:19:27.000Z</time>
      </trkpt>
      <trkpt lat="46.2122" lon="6.78429">
        <ele>1809.4000244141</ele>
        <time>2016-02-27T08:19:30.000Z</time>
      </trkpt>
      <trkpt lat="46.21221" lon="6.78418">
        <ele>1806.5999755859</ele>
        <time>2016-02-27T08:19:31.000Z</time>
      </trkpt>
      <trkpt lat="46.21224" lon="6.78408">
        <ele>1805</ele>
        <time>2016-02-27T08:19:32.000Z</time>
      </trkpt>
      <trkpt lat="46.21234" lon="6.78378">
        <ele>1798.5999755859</ele>
        <time>2016-02-27T08:19:35.000Z</time>
      </trkpt>
      <trkpt lat="46.21244" lon="6.78346">
        <ele>1791.1999511719</ele>
        <time>2016-02-27T08:19:38.000Z</time>
      </trkpt>
      <trkpt lat="46.21242" lon="6.78309">
        <ele>1781.1999511719</ele>
        <time>2016-02-27T08:19:41.000Z</time>
      </trkpt>
      <trkpt lat="46.2123" lon="6.78286">
        <ele>1772.5999755859</ele>
        <time>2016-02-27T08:19:43.000Z</time>
      </trkpt>
      <trkpt lat="46.21223" lon="6.78249">
        <ele>1761.5999755859</ele>
        <time>2016-02-27T08:19:46.000Z</time>
      </trkpt>
      <trkpt lat="46.21224" lon="6.78236">
        <ele>1758.5999755859</ele>
        <time>2016-02-27T08:19:47.000Z</time>
      </trkpt>
      <trkpt lat="46.21225" lon="6.78205">
        <ele>1753</ele>
        <time>2016-02-27T08:19:49.000Z</time>
      </trkpt>
      <trkpt lat="46.21226" lon="6.7817">
        <ele>1746.4000244141</ele>
        <time>2016-02-27T08:19:51.000Z</time>
      </trkpt>
      <trkpt lat="46.21228" lon="6.78135">
        <ele>1740.1999511719</ele>
        <time>2016-02-27T08:19:53.000Z</time>
      </trkpt>
      <trkpt lat="46.21232" lon="6.78105">
        <ele>1735.8000488281</ele>
        <time>2016-02-27T08:19:55.000Z</time>
      </trkpt>
      <trkpt lat="46.21236" lon="6.78079">
        <ele>1731.8000488281</ele>
        <time>2016-02-27T08:19:57.000Z</time>
      </trkpt>
      <trkpt lat="46.21238" lon="6.78067">
        <ele>1730</ele>
        <time>2016-02-27T08:19:58.000Z</time>
      </trkpt>
      <trkpt lat="46.21239" lon="6.78056">
        <ele>1727.8000488281</ele>
        <time>2016-02-27T08:19:59.000Z</time>
      </trkpt>
      <trkpt lat="46.21237" lon="6.78046">
        <ele>1725.1999511719</ele>
        <time>2016-02-27T08:20:00.000Z</time>
      </trkpt>
      <trkpt lat="46.2123" lon="6.78035">
        <ele>1721.4000244141</ele>
        <time>2016-02-27T08:20:07.000Z</time>
      </trkpt>
      <trkpt lat="46.2123" lon="6.78035">
        <ele>1721.4000244141</ele>
        <time>2016-02-27T08:20:08.000Z</time>
      </trkpt>
      <trkpt lat="46.21225" lon="6.78042">
        <ele>1721.5999755859</ele>
        <time>2016-02-27T08:20:42.000Z</time>
      </trkpt>
      <trkpt lat="46.21225" lon="6.78043">
        <ele>1721.5999755859</ele>
        <time>2016-02-27T08:20:43.000Z</time>
      </trkpt>
      <trkpt lat="46.21219" lon="6.78038">
        <ele>1718.4000244141</ele>
        <time>2016-02-27T08:20:52.000Z</time>
      </trkpt>
      <trkpt lat="46.2121" lon="6.78042">
        <ele>1716</ele>
        <time>2016-02-27T08:20:55.000Z</time>
      </trkpt>
      <trkpt lat="46.21206" lon="6.78045">
        <ele>1715</ele>
        <time>2016-02-27T08:20:56.000Z</time>
      </trkpt>
      <trkpt lat="46.21197" lon="6.78049">
        <ele>1713.1999511719</ele>
        <time>2016-02-27T08:20:58.000Z</time>
      </trkpt>
      <trkpt lat="46.21191" lon="6.7805">
        <ele>1712</ele>
        <time>2016-02-27T08:20:59.000Z</time>
      </trkpt>
      <trkpt lat="46.21178" lon="6.78063">
        <ele>1711.5999755859</ele>
        <time>2016-02-27T08:21:02.000Z</time>
      </trkpt>
      <trkpt lat="46.21173" lon="6.78069">
        <ele>1711.8000488281</ele>
        <time>2016-02-27T08:21:03.000Z</time>
      </trkpt>
      <trkpt lat="46.21169" lon="6.78077">
        <ele>1712</ele>
        <time>2016-02-27T08:21:04.000Z</time>
      </trkpt>
      <trkpt lat="46.21154" lon="6.78096">
        <ele>1712.8000488281</ele>
        <time>2016-02-27T08:21:07.000Z</time>
      </trkpt>
      <trkpt lat="46.2114" lon="6.78084">
        <ele>1704.8000488281</ele>
        <time>2016-02-27T08:21:11.000Z</time>
      </trkpt>
      <trkpt lat="46.21145" lon="6.78057">
        <ele>1700</ele>
        <time>2016-02-27T08:21:14.000Z</time>
      </trkpt>
      <trkpt lat="46.21147" lon="6.78046">
        <ele>1697.5999755859</ele>
        <time>2016-02-27T08:21:15.000Z</time>
      </trkpt>
      <trkpt lat="46.21157" lon="6.78016">
        <ele>1692.4000244141</ele>
        <time>2016-02-27T08:21:18.000Z</time>
      </trkpt>
      <trkpt lat="46.21161" lon="6.78006">
        <ele>1690.8000488281</ele>
        <time>2016-02-27T08:21:19.000Z</time>
      </trkpt>
      <trkpt lat="46.21164" lon="6.77995">
        <ele>1689.4000244141</ele>
        <time>2016-02-27T08:21:20.000Z</time>
      </trkpt>
      <trkpt lat="46.2117" lon="6.77967">
        <ele>1683.1999511719</ele>
        <time>2016-02-27T08:21:22.000Z</time>
      </trkpt>
      <trkpt lat="46.21179" lon="6.77939">
        <ele>1678</ele>
        <time>2016-02-27T08:21:24.000Z</time>
      </trkpt>
      <trkpt lat="46.21185" lon="6.77926">
        <ele>1675.8000488281</ele>
        <time>2016-02-27T08:21:25.000Z</time>
      </trkpt>
      <trkpt lat="46.21195" lon="6.77902">
        <ele>1671.4000244141</ele>
        <time>2016-02-27T08:21:27.000Z</time>
      </trkpt>
      <trkpt lat="46.21207" lon="6.77881">
        <ele>1668.8000488281</ele>
        <time>2016-02-27T08:21:29.000Z</time>
      </trkpt>
      <trkpt lat="46.2122" lon="6.77861">
        <ele>1666.4000244141</ele>
        <time>2016-02-27T08:21:31.000Z</time>
      </trkpt>
      <trkpt lat="46.21232" lon="6.77842">
        <ele>1664.1999511719</ele>
        <time>2016-02-27T08:21:33.000Z</time>
      </trkpt>
      <trkpt lat="46.21245" lon="6.77823">
        <ele>1662.8000488281</ele>
        <time>2016-02-27T08:21:35.000Z</time>
      </trkpt>
      <trkpt lat="46.21263" lon="6.77797">
        <ele>1662.4000244141</ele>
        <time>2016-02-27T08:21:38.000Z</time>
      </trkpt>
      <trkpt lat="46.21274" lon="6.7777">
        <ele>1657.8000488281</ele>
        <time>2016-02-27T08:21:41.000Z</time>
      </trkpt>
      <trkpt lat="46.21266" lon="6.77749">
        <ele>1647.1999511719</ele>
        <time>2016-02-27T08:21:44.000Z</time>
      </trkpt>
      <trkpt lat="46.21264" lon="6.77745">
        <ele>1645</ele>
        <time>2016-02-27T08:21:45.000Z</time>
      </trkpt>
      <trkpt lat="46.21246" lon="6.77751">
        <ele>1640.5999755859</ele>
        <time>2016-02-27T08:22:40.000Z</time>
      </trkpt>
      <trkpt lat="46.2124" lon="6.77753">
        <ele>1639.1999511719</ele>
        <time>2016-02-27T08:22:41.000Z</time>
      </trkpt>
      <trkpt lat="46.21234" lon="6.77756">
        <ele>1637.8000488281</ele>
        <time>2016-02-27T08:22:42.000Z</time>
      </trkpt>
      <trkpt lat="46.21221" lon="6.77763">
        <ele>1635.8000488281</ele>
        <time>2016-02-27T08:22:44.000Z</time>
      </trkpt>
      <trkpt lat="46.21201" lon="6.77773">
        <ele>1633.5999755859</ele>
        <time>2016-02-27T08:22:47.000Z</time>
      </trkpt>
      <trkpt lat="46.21194" lon="6.77775">
        <ele>1632.5999755859</ele>
        <time>2016-02-27T08:22:48.000Z</time>
      </trkpt>
      <trkpt lat="46.21182" lon="6.7778">
        <ele>1630.4000244141</ele>
        <time>2016-02-27T08:22:50.000Z</time>
      </trkpt>
      <trkpt lat="46.21162" lon="6.7779">
        <ele>1626.1999511719</ele>
        <time>2016-02-27T08:22:53.000Z</time>
      </trkpt>
      <trkpt lat="46.21143" lon="6.77805">
        <ele>1623.1999511719</ele>
        <time>2016-02-27T08:22:56.000Z</time>
      </trkpt>
      <trkpt lat="46.21121" lon="6.77819">
        <ele>1618.5999755859</ele>
        <time>2016-02-27T08:22:59.000Z</time>
      </trkpt>
      <trkpt lat="46.21103" lon="6.77831">
        <ele>1615.4000244141</ele>
        <time>2016-02-27T08:23:01.000Z</time>
      </trkpt>
      <trkpt lat="46.21083" lon="6.77843">
        <ele>1612</ele>
        <time>2016-02-27T08:23:03.000Z</time>
      </trkpt>
      <trkpt lat="46.21062" lon="6.77857">
        <ele>1608.1999511719</ele>
        <time>2016-02-27T08:23:05.000Z</time>
      </trkpt>
      <trkpt lat="46.21043" lon="6.77868">
        <ele>1606.8000488281</ele>
        <time>2016-02-27T08:23:07.000Z</time>
      </trkpt>
      <trkpt lat="46.21027" lon="6.77886">
        <ele>1605</ele>
        <time>2016-02-27T08:23:09.000Z</time>
      </trkpt>
      <trkpt lat="46.2102" lon="6.77898">
        <ele>1602.5999755859</ele>
        <time>2016-02-27T08:23:10.000Z</time>
      </trkpt>
      <trkpt lat="46.21012" lon="6.77908">
        <ele>1600.1999511719</ele>
        <time>2016-02-27T08:23:11.000Z</time>
      </trkpt>
      <trkpt lat="46.20998" lon="6.77928">
        <ele>1598.1999511719</ele>
        <time>2016-02-27T08:23:13.000Z</time>
      </trkpt>
      <trkpt lat="46.20983" lon="6.77947">
        <ele>1593.5999755859</ele>
        <time>2016-02-27T08:23:15.000Z</time>
      </trkpt>
      <trkpt lat="46.20967" lon="6.77964">
        <ele>1590.4000244141</ele>
        <time>2016-02-27T08:23:17.000Z</time>
      </trkpt>
      <trkpt lat="46.20951" lon="6.77982">
        <ele>1586.8000488281</ele>
        <time>2016-02-27T08:23:19.000Z</time>
      </trkpt>
      <trkpt lat="46.20935" lon="6.77993">
        <ele>1581.5999755859</ele>
        <time>2016-02-27T08:23:21.000Z</time>
      </trkpt>
      <trkpt lat="46.20917" lon="6.78007">
        <ele>1577.4000244141</ele>
        <time>2016-02-27T08:23:23.000Z</time>
      </trkpt>
      <trkpt lat="46.20898" lon="6.78017">
        <ele>1571</ele>
        <time>2016-02-27T08:23:25.000Z</time>
      </trkpt>
      <trkpt lat="46.20889" lon="6.78024">
        <ele>1569.5999755859</ele>
        <time>2016-02-27T08:23:26.000Z</time>
      </trkpt>
      <trkpt lat="46.20871" lon="6.7804">
        <ele>1567.4000244141</ele>
        <time>2016-02-27T08:23:28.000Z</time>
      </trkpt>
      <trkpt lat="46.2086" lon="6.78046">
        <ele>1565.4000244141</ele>
        <time>2016-02-27T08:23:29.000Z</time>
      </trkpt>
      <trkpt lat="46.20839" lon="6.78048">
        <ele>1559.8000488281</ele>
        <time>2016-02-27T08:23:31.000Z</time>
      </trkpt>
      <trkpt lat="46.20819" lon="6.78058">
        <ele>1555.8000488281</ele>
        <time>2016-02-27T08:23:33.000Z</time>
      </trkpt>
      <trkpt lat="46.20795" lon="6.78059">
        <ele>1550.5999755859</ele>
        <time>2016-02-27T08:23:36.000Z</time>
      </trkpt>
      <trkpt lat="46.2077" lon="6.78055">
        <ele>1544.4000244141</ele>
        <time>2016-02-27T08:23:39.000Z</time>
      </trkpt>
      <trkpt lat="46.20743" lon="6.78056">
        <ele>1538.5999755859</ele>
        <time>2016-02-27T08:23:42.000Z</time>
      </trkpt>
      <trkpt lat="46.20721" lon="6.78035">
        <ele>1531.5999755859</ele>
        <time>2016-02-27T08:23:45.000Z</time>
      </trkpt>
      <trkpt lat="46.2072" lon="6.78004">
        <ele>1526.8000488281</ele>
        <time>2016-02-27T08:23:47.000Z</time>
      </trkpt>
      <trkpt lat="46.20728" lon="6.77972">
        <ele>1522.8000488281</ele>
        <time>2016-02-27T08:23:49.000Z</time>
      </trkpt>
      <trkpt lat="46.20737" lon="6.7794">
        <ele>1520.5999755859</ele>
        <time>2016-02-27T08:23:51.000Z</time>
      </trkpt>
      <trkpt lat="46.20744" lon="6.77909">
        <ele>1518</ele>
        <time>2016-02-27T08:23:53.000Z</time>
      </trkpt>
      <trkpt lat="46.20745" lon="6.77877">
        <ele>1514.8000488281</ele>
        <time>2016-02-27T08:23:55.000Z</time>
      </trkpt>
      <trkpt lat="46.20741" lon="6.77846">
        <ele>1511.1999511719</ele>
        <time>2016-02-27T08:23:57.000Z</time>
      </trkpt>
      <trkpt lat="46.20736" lon="6.77816">
        <ele>1507.5999755859</ele>
        <time>2016-02-27T08:23:59.000Z</time>
      </trkpt>
      <trkpt lat="46.20734" lon="6.77802">
        <ele>1506.1999511719</ele>
        <time>2016-02-27T08:24:00.000Z</time>
      </trkpt>
      <trkpt lat="46.2072" lon="6.77777">
        <ele>1503.1999511719</ele>
        <time>2016-02-27T08:24:03.000Z</time>
      </trkpt>
      <trkpt lat="46.20708" lon="6.77769">
        <ele>1502.4000244141</ele>
        <time>2016-02-27T08:24:05.000Z</time>
      </trkpt>
      <trkpt lat="46.20688" lon="6.7775">
        <ele>1500.8000488281</ele>
        <time>2016-02-27T08:24:09.000Z</time>
      </trkpt>
      <trkpt lat="46.20675" lon="6.77734">
        <ele>1500</ele>
        <time>2016-02-27T08:24:12.000Z</time>
      </trkpt>
      <trkpt lat="46.20664" lon="6.77732">
        <ele>1499.8000488281</ele>
        <time>2016-02-27T08:24:15.000Z</time>
      </trkpt>
      <trkpt lat="46.20657" lon="6.77731">
        <ele>1499.5999755859</ele>
        <time>2016-02-27T08:24:17.000Z</time>
      </trkpt>
      <trkpt lat="46.20644" lon="6.77721">
        <ele>1500</ele>
        <time>2016-02-27T08:24:25.000Z</time>
      </trkpt>
      <trkpt lat="46.20628" lon="6.77724">
        <ele>1502.4000244141</ele>
        <time>2016-02-27T08:24:49.000Z</time>
      </trkpt>
      <trkpt lat="46.20623" lon="6.77736">
        <ele>1501.4000244141</ele>
        <time>2016-02-27T08:25:29.000Z</time>
      </trkpt>
      <trkpt lat="46.20606" lon="6.77741">
        <ele>1502.8000488281</ele>
        <time>2016-02-27T08:25:40.000Z</time>
      </trkpt>
      <trkpt lat="46.20588" lon="6.77742">
        <ele>1504.5999755859</ele>
        <time>2016-02-27T08:25:44.000Z</time>
      </trkpt>
      <trkpt lat="46.2057" lon="6.77742">
        <ele>1506.4000244141</ele>
        <time>2016-02-27T08:25:48.000Z</time>
      </trkpt>
      <trkpt lat="46.20549" lon="6.77743">
        <ele>1513.4000244141</ele>
        <time>2016-02-27T08:25:53.000Z</time>
      </trkpt>
      <trkpt lat="46.20531" lon="6.77745">
        <ele>1522.1999511719</ele>
        <time>2016-02-27T08:25:57.000Z</time>
      </trkpt>
      <trkpt lat="46.20513" lon="6.77748">
        <ele>1530.8000488281</ele>
        <time>2016-02-27T08:26:01.000Z</time>
      </trkpt>
      <trkpt lat="46.2048" lon="6.77753">
        <ele>1547.4000244141</ele>
        <time>2016-02-27T08:26:11.000Z</time>
      </trkpt>
      <trkpt lat="46.20465" lon="6.77756">
        <ele>1554</ele>
        <time>2016-02-27T08:26:15.000Z</time>
      </trkpt>
      <trkpt lat="46.20456" lon="6.77758">
        <ele>1557.8000488281</ele>
        <time>2016-02-27T08:26:17.000Z</time>
      </trkpt>
      <trkpt lat="46.20448" lon="6.77759">
        <ele>1561.1999511719</ele>
        <time>2016-02-27T08:26:19.000Z</time>
      </trkpt>
      <trkpt lat="46.20429" lon="6.77762">
        <ele>1569.5999755859</ele>
        <time>2016-02-27T08:26:24.000Z</time>
      </trkpt>
      <trkpt lat="46.2041" lon="6.77767">
        <ele>1576.4000244141</ele>
        <time>2016-02-27T08:26:29.000Z</time>
      </trkpt>
      <trkpt lat="46.20389" lon="6.7777">
        <ele>1583</ele>
        <time>2016-02-27T08:26:34.000Z</time>
      </trkpt>
      <trkpt lat="46.20367" lon="6.77774">
        <ele>1589.5999755859</ele>
        <time>2016-02-27T08:26:39.000Z</time>
      </trkpt>
      <trkpt lat="46.20347" lon="6.77777">
        <ele>1595.8000488281</ele>
        <time>2016-02-27T08:26:44.000Z</time>
      </trkpt>
      <trkpt lat="46.20328" lon="6.77779">
        <ele>1602.5999755859</ele>
        <time>2016-02-27T08:26:49.000Z</time>
      </trkpt>
      <trkpt lat="46.20316" lon="6.77781">
        <ele>1607</ele>
        <time>2016-02-27T08:26:52.000Z</time>
      </trkpt>
      <trkpt lat="46.20298" lon="6.77784">
        <ele>1613.4000244141</ele>
        <time>2016-02-27T08:26:57.000Z</time>
      </trkpt>
      <trkpt lat="46.2028" lon="6.77788">
        <ele>1620</ele>
        <time>2016-02-27T08:27:02.000Z</time>
      </trkpt>
      <trkpt lat="46.20239" lon="6.77795">
        <ele>1635.4000244141</ele>
        <time>2016-02-27T08:27:12.000Z</time>
      </trkpt>
      <trkpt lat="46.20219" lon="6.77801">
        <ele>1643.5999755859</ele>
        <time>2016-02-27T08:27:17.000Z</time>
      </trkpt>
      <trkpt lat="46.202" lon="6.77804">
        <ele>1650.1999511719</ele>
        <time>2016-02-27T08:27:22.000Z</time>
      </trkpt>
      <trkpt lat="46.2018" lon="6.77806">
        <ele>1655.1999511719</ele>
        <time>2016-02-27T08:27:27.000Z</time>
      </trkpt>
      <trkpt lat="46.20161" lon="6.77808">
        <ele>1660.1999511719</ele>
        <time>2016-02-27T08:27:32.000Z</time>
      </trkpt>
      <trkpt lat="46.2014" lon="6.77812">
        <ele>1665.5999755859</ele>
        <time>2016-02-27T08:27:37.000Z</time>
      </trkpt>
      <trkpt lat="46.2012" lon="6.77816">
        <ele>1670.4000244141</ele>
        <time>2016-02-27T08:27:42.000Z</time>
      </trkpt>
      <trkpt lat="46.20102" lon="6.77821">
        <ele>1675</ele>
        <time>2016-02-27T08:27:47.000Z</time>
      </trkpt>
      <trkpt lat="46.20084" lon="6.77824">
        <ele>1679.4000244141</ele>
        <time>2016-02-27T08:27:52.000Z</time>
      </trkpt>
      <trkpt lat="46.20063" lon="6.77827">
        <ele>1684.4000244141</ele>
        <time>2016-02-27T08:27:57.000Z</time>
      </trkpt>
      <trkpt lat="46.20043" lon="6.7783">
        <ele>1689.4000244141</ele>
        <time>2016-02-27T08:28:02.000Z</time>
      </trkpt>
      <trkpt lat="46.20024" lon="6.77834">
        <ele>1693.5999755859</ele>
        <time>2016-02-27T08:28:07.000Z</time>
      </trkpt>
      <trkpt lat="46.19985" lon="6.77841">
        <ele>1703.4000244141</ele>
        <time>2016-02-27T08:28:17.000Z</time>
      </trkpt>
      <trkpt lat="46.19966" lon="6.77843">
        <ele>1709.5999755859</ele>
        <time>2016-02-27T08:28:22.000Z</time>
      </trkpt>
      <trkpt lat="46.19947" lon="6.77845">
        <ele>1715.4000244141</ele>
        <time>2016-02-27T08:28:27.000Z</time>
      </trkpt>
      <trkpt lat="46.19928" lon="6.77848">
        <ele>1721.4000244141</ele>
        <time>2016-02-27T08:28:32.000Z</time>
      </trkpt>
      <trkpt lat="46.1991" lon="6.77853">
        <ele>1727.4000244141</ele>
        <time>2016-02-27T08:28:37.000Z</time>
      </trkpt>
      <trkpt lat="46.1989" lon="6.77858">
        <ele>1734</ele>
        <time>2016-02-27T08:28:42.000Z</time>
      </trkpt>
      <trkpt lat="46.19855" lon="6.77863">
        <ele>1745.4000244141</ele>
        <time>2016-02-27T08:28:51.000Z</time>
      </trkpt>
      <trkpt lat="46.19837" lon="6.77866">
        <ele>1751.4000244141</ele>
        <time>2016-02-27T08:28:56.000Z</time>
      </trkpt>
      <trkpt lat="46.19818" lon="6.77869">
        <ele>1757.4000244141</ele>
        <time>2016-02-27T08:29:01.000Z</time>
      </trkpt>
      <trkpt lat="46.19798" lon="6.77871">
        <ele>1762.8000488281</ele>
        <time>2016-02-27T08:29:06.000Z</time>
      </trkpt>
      <trkpt lat="46.19777" lon="6.77874">
        <ele>1767.5999755859</ele>
        <time>2016-02-27T08:29:11.000Z</time>
      </trkpt>
      <trkpt lat="46.19757" lon="6.77878">
        <ele>1771</ele>
        <time>2016-02-27T08:29:16.000Z</time>
      </trkpt>
      <trkpt lat="46.19737" lon="6.77882">
        <ele>1774.4000244141</ele>
        <time>2016-02-27T08:29:21.000Z</time>
      </trkpt>
      <trkpt lat="46.19717" lon="6.77885">
        <ele>1778.8000488281</ele>
        <time>2016-02-27T08:29:26.000Z</time>
      </trkpt>
      <trkpt lat="46.19698" lon="6.77889">
        <ele>1784.5999755859</ele>
        <time>2016-02-27T08:29:31.000Z</time>
      </trkpt>
      <trkpt lat="46.19677" lon="6.77892">
        <ele>1791.1999511719</ele>
        <time>2016-02-27T08:29:36.000Z</time>
      </trkpt>
      <trkpt lat="46.19658" lon="6.77895">
        <ele>1797.1999511719</ele>
        <time>2016-02-27T08:29:41.000Z</time>
      </trkpt>
      <trkpt lat="46.19619" lon="6.77902">
        <ele>1808.5999755859</ele>
        <time>2016-02-27T08:29:51.000Z</time>
      </trkpt>
      <trkpt lat="46.19599" lon="6.77906">
        <ele>1813.5999755859</ele>
        <time>2016-02-27T08:29:56.000Z</time>
      </trkpt>
      <trkpt lat="46.1958" lon="6.7791">
        <ele>1818.1999511719</ele>
        <time>2016-02-27T08:30:01.000Z</time>
      </trkpt>
      <trkpt lat="46.19561" lon="6.77913">
        <ele>1822.8000488281</ele>
        <time>2016-02-27T08:30:06.000Z</time>
      </trkpt>
      <trkpt lat="46.19542" lon="6.77916">
        <ele>1829.5999755859</ele>
        <time>2016-02-27T08:30:11.000Z</time>
      </trkpt>
      <trkpt lat="46.19524" lon="6.77919">
        <ele>1836.1999511719</ele>
        <time>2016-02-27T08:30:16.000Z</time>
      </trkpt>
      <trkpt lat="46.19503" lon="6.77923">
        <ele>1844</ele>
        <time>2016-02-27T08:30:22.000Z</time>
      </trkpt>
      <trkpt lat="46.19484" lon="6.77926">
        <ele>1850.8000488281</ele>
        <time>2016-02-27T08:30:27.000Z</time>
      </trkpt>
      <trkpt lat="46.19447" lon="6.77933">
        <ele>1871.4000244141</ele>
        <time>2016-02-27T08:30:38.000Z</time>
      </trkpt>
      <trkpt lat="46.19426" lon="6.77936">
        <ele>1884.1999511719</ele>
        <time>2016-02-27T08:30:43.000Z</time>
      </trkpt>
      <trkpt lat="46.19407" lon="6.77942">
        <ele>1891.4000244141</ele>
        <time>2016-02-27T08:30:49.000Z</time>
      </trkpt>
      <trkpt lat="46.19386" lon="6.77947">
        <ele>1900</ele>
        <time>2016-02-27T08:30:56.000Z</time>
      </trkpt>
      <trkpt lat="46.19367" lon="6.7795">
        <ele>1908</ele>
        <time>2016-02-27T08:31:02.000Z</time>
      </trkpt>
      <trkpt lat="46.19356" lon="6.77951">
        <ele>1913</ele>
        <time>2016-02-27T08:31:09.000Z</time>
      </trkpt>
      <trkpt lat="46.19346" lon="6.77949">
        <ele>1919.5999755859</ele>
        <time>2016-02-27T08:31:16.000Z</time>
      </trkpt>
      <trkpt lat="46.19349" lon="6.77922">
        <ele>1925</ele>
        <time>2016-02-27T08:31:28.000Z</time>
      </trkpt>
      <trkpt lat="46.19351" lon="6.77918">
        <ele>1925.5999755859</ele>
        <time>2016-02-27T08:31:30.000Z</time>
      </trkpt>
      <trkpt lat="46.1935" lon="6.77908">
        <ele>1928.8000488281</ele>
        <time>2016-02-27T08:31:40.000Z</time>
      </trkpt>
      <trkpt lat="46.19361" lon="6.77889">
        <ele>1921.1999511719</ele>
        <time>2016-02-27T08:31:53.000Z</time>
      </trkpt>
      <trkpt lat="46.19366" lon="6.77881">
        <ele>1917.1999511719</ele>
        <time>2016-02-27T08:32:04.000Z</time>
      </trkpt>
      <trkpt lat="46.19374" lon="6.7786">
        <ele>1917.1999511719</ele>
        <time>2016-02-27T08:32:32.000Z</time>
      </trkpt>
      <trkpt lat="46.1939" lon="6.7784">
        <ele>1918</ele>
        <time>2016-02-27T08:32:36.000Z</time>
      </trkpt>
      <trkpt lat="46.19394" lon="6.77834">
        <ele>1918.4000244141</ele>
        <time>2016-02-27T08:32:37.000Z</time>
      </trkpt>
      <trkpt lat="46.19407" lon="6.77817">
        <ele>1912.5999755859</ele>
        <time>2016-02-27T08:32:40.000Z</time>
      </trkpt>
      <trkpt lat="46.19423" lon="6.77794">
        <ele>1903</ele>
        <time>2016-02-27T08:32:43.000Z</time>
      </trkpt>
      <trkpt lat="46.19429" lon="6.77784">
        <ele>1899.5999755859</ele>
        <time>2016-02-27T08:32:44.000Z</time>
      </trkpt>
      <trkpt lat="46.19438" lon="6.77748">
        <ele>1897</ele>
        <time>2016-02-27T08:32:47.000Z</time>
      </trkpt>
      <trkpt lat="46.19443" lon="6.77712">
        <ele>1890.5999755859</ele>
        <time>2016-02-27T08:32:50.000Z</time>
      </trkpt>
      <trkpt lat="46.19445" lon="6.77682">
        <ele>1889.4000244141</ele>
        <time>2016-02-27T08:32:53.000Z</time>
      </trkpt>
      <trkpt lat="46.1945" lon="6.77653">
        <ele>1888.8000488281</ele>
        <time>2016-02-27T08:32:57.000Z</time>
      </trkpt>
      <trkpt lat="46.19451" lon="6.77647">
        <ele>1887.1999511719</ele>
        <time>2016-02-27T08:32:58.000Z</time>
      </trkpt>
      <trkpt lat="46.19452" lon="6.7764">
        <ele>1885.1999511719</ele>
        <time>2016-02-27T08:32:59.000Z</time>
      </trkpt>
      <trkpt lat="46.19464" lon="6.77616">
        <ele>1884.1999511719</ele>
        <time>2016-02-27T08:33:02.000Z</time>
      </trkpt>
      <trkpt lat="46.19473" lon="6.77595">
        <ele>1886</ele>
        <time>2016-02-27T08:33:04.000Z</time>
      </trkpt>
      <trkpt lat="46.19479" lon="6.77585">
        <ele>1886.8000488281</ele>
        <time>2016-02-27T08:33:05.000Z</time>
      </trkpt>
      <trkpt lat="46.19489" lon="6.77561">
        <ele>1881.4000244141</ele>
        <time>2016-02-27T08:33:07.000Z</time>
      </trkpt>
      <trkpt lat="46.19499" lon="6.77536">
        <ele>1874.8000488281</ele>
        <time>2016-02-27T08:33:09.000Z</time>
      </trkpt>
      <trkpt lat="46.1951" lon="6.77511">
        <ele>1869.1999511719</ele>
        <time>2016-02-27T08:33:11.000Z</time>
      </trkpt>
      <trkpt lat="46.19521" lon="6.77486">
        <ele>1868.1999511719</ele>
        <time>2016-02-27T08:33:13.000Z</time>
      </trkpt>
      <trkpt lat="46.19534" lon="6.77461">
        <ele>1859.1999511719</ele>
        <time>2016-02-27T08:33:15.000Z</time>
      </trkpt>
      <trkpt lat="46.1954" lon="6.7745">
        <ele>1860.8000488281</ele>
        <time>2016-02-27T08:33:16.000Z</time>
      </trkpt>
      <trkpt lat="46.1955" lon="6.77429">
        <ele>1864.5999755859</ele>
        <time>2016-02-27T08:33:18.000Z</time>
      </trkpt>
      <trkpt lat="46.19566" lon="6.77404">
        <ele>1867.1999511719</ele>
        <time>2016-02-27T08:33:21.000Z</time>
      </trkpt>
      <trkpt lat="46.19572" lon="6.77394">
        <ele>1865</ele>
        <time>2016-02-27T08:33:22.000Z</time>
      </trkpt>
      <trkpt lat="46.19589" lon="6.77372">
        <ele>1858</ele>
        <time>2016-02-27T08:33:25.000Z</time>
      </trkpt>
      <trkpt lat="46.19607" lon="6.77349">
        <ele>1857.4000244141</ele>
        <time>2016-02-27T08:33:28.000Z</time>
      </trkpt>
      <trkpt lat="46.19612" lon="6.7734">
        <ele>1860.4000244141</ele>
        <time>2016-02-27T08:33:29.000Z</time>
      </trkpt>
      <trkpt lat="46.19619" lon="6.77311">
        <ele>1865.5999755859</ele>
        <time>2016-02-27T08:33:32.000Z</time>
      </trkpt>
      <trkpt lat="46.1961" lon="6.77297">
        <ele>1863.5999755859</ele>
        <time>2016-02-27T08:33:35.000Z</time>
      </trkpt>
      <trkpt lat="46.19609" lon="6.77296">
        <ele>1863.4000244141</ele>
        <time>2016-02-27T08:33:36.000Z</time>
      </trkpt>
      <trkpt lat="46.19605" lon="6.77301">
        <ele>1864.1999511719</ele>
        <time>2016-02-27T08:33:57.000Z</time>
      </trkpt>
      <trkpt lat="46.19605" lon="6.77302">
        <ele>1864.1999511719</ele>
        <time>2016-02-27T08:33:59.000Z</time>
      </trkpt>
      <trkpt lat="46.19605" lon="6.77302">
        <ele>1864.1999511719</ele>
        <time>2016-02-27T08:34:02.000Z</time>
      </trkpt>
      <trkpt lat="46.19594" lon="6.77301">
        <ele>1864</ele>
        <time>2016-02-27T08:34:34.000Z</time>
      </trkpt>
      <trkpt lat="46.1958" lon="6.77301">
        <ele>1864</ele>
        <time>2016-02-27T08:34:37.000Z</time>
      </trkpt>
      <trkpt lat="46.19562" lon="6.773">
        <ele>1863.8000488281</ele>
        <time>2016-02-27T08:34:41.000Z</time>
      </trkpt>
      <trkpt lat="46.19545" lon="6.77301">
        <ele>1861.4000244141</ele>
        <time>2016-02-27T08:34:44.000Z</time>
      </trkpt>
      <trkpt lat="46.1952" lon="6.77302">
        <ele>1858</ele>
        <time>2016-02-27T08:34:47.000Z</time>
      </trkpt>
      <trkpt lat="46.195" lon="6.77301">
        <ele>1855</ele>
        <time>2016-02-27T08:34:49.000Z</time>
      </trkpt>
      <trkpt lat="46.19478" lon="6.77298">
        <ele>1851.4000244141</ele>
        <time>2016-02-27T08:34:51.000Z</time>
      </trkpt>
      <trkpt lat="46.19455" lon="6.77295">
        <ele>1848.5999755859</ele>
        <time>2016-02-27T08:34:53.000Z</time>
      </trkpt>
      <trkpt lat="46.19432" lon="6.77291">
        <ele>1843.8000488281</ele>
        <time>2016-02-27T08:34:55.000Z</time>
      </trkpt>
      <trkpt lat="46.19409" lon="6.77288">
        <ele>1839</ele>
        <time>2016-02-27T08:34:57.000Z</time>
      </trkpt>
      <trkpt lat="46.19388" lon="6.77284">
        <ele>1835.5999755859</ele>
        <time>2016-02-27T08:34:59.000Z</time>
      </trkpt>
      <trkpt lat="46.19366" lon="6.77283">
        <ele>1835</ele>
        <time>2016-02-27T08:35:02.000Z</time>
      </trkpt>
      <trkpt lat="46.19355" lon="6.77283">
        <ele>1834.5999755859</ele>
        <time>2016-02-27T08:35:04.000Z</time>
      </trkpt>
      <trkpt lat="46.19344" lon="6.77277">
        <ele>1834</ele>
        <time>2016-02-27T08:35:07.000Z</time>
      </trkpt>
      <trkpt lat="46.19336" lon="6.77278">
        <ele>1833.4000244141</ele>
        <time>2016-02-27T08:35:11.000Z</time>
      </trkpt>
      <trkpt lat="46.19334" lon="6.77278">
        <ele>1833.4000244141</ele>
        <time>2016-02-27T08:35:12.000Z</time>
      </trkpt>
      <trkpt lat="46.19328" lon="6.7728">
        <ele>1833</ele>
        <time>2016-02-27T08:35:15.000Z</time>
      </trkpt>
      <trkpt lat="46.1932" lon="6.77283">
        <ele>1832.4000244141</ele>
        <time>2016-02-27T08:35:19.000Z</time>
      </trkpt>
      <trkpt lat="46.19316" lon="6.77284">
        <ele>1832.1999511719</ele>
        <time>2016-02-27T08:35:21.000Z</time>
      </trkpt>
      <trkpt lat="46.19312" lon="6.77285">
        <ele>1832</ele>
        <time>2016-02-27T08:35:23.000Z</time>
      </trkpt>
      <trkpt lat="46.19299" lon="6.7729">
        <ele>1831.1999511719</ele>
        <time>2016-02-27T08:35:28.000Z</time>
      </trkpt>
      <trkpt lat="46.19279" lon="6.773">
        <ele>1830</ele>
        <time>2016-02-27T08:35:33.000Z</time>
      </trkpt>
      <trkpt lat="46.19261" lon="6.77307">
        <ele>1828.5999755859</ele>
        <time>2016-02-27T08:35:36.000Z</time>
      </trkpt>
      <trkpt lat="46.19239" lon="6.77312">
        <ele>1826.8000488281</ele>
        <time>2016-02-27T08:35:39.000Z</time>
      </trkpt>
      <trkpt lat="46.19214" lon="6.77317">
        <ele>1823.4000244141</ele>
        <time>2016-02-27T08:35:42.000Z</time>
      </trkpt>
      <trkpt lat="46.19197" lon="6.77323">
        <ele>1821.5999755859</ele>
        <time>2016-02-27T08:35:44.000Z</time>
      </trkpt>
      <trkpt lat="46.19174" lon="6.77332">
        <ele>1818.1999511719</ele>
        <time>2016-02-27T08:35:47.000Z</time>
      </trkpt>
      <trkpt lat="46.19152" lon="6.7734">
        <ele>1815.4000244141</ele>
        <time>2016-02-27T08:35:50.000Z</time>
      </trkpt>
      <trkpt lat="46.19132" lon="6.77347">
        <ele>1812.4000244141</ele>
        <time>2016-02-27T08:35:53.000Z</time>
      </trkpt>
      <trkpt lat="46.1911" lon="6.77357">
        <ele>1808.5999755859</ele>
        <time>2016-02-27T08:35:57.000Z</time>
      </trkpt>
      <trkpt lat="46.19092" lon="6.77366">
        <ele>1808.1999511719</ele>
        <time>2016-02-27T08:36:01.000Z</time>
      </trkpt>
      <trkpt lat="46.19071" lon="6.77376">
        <ele>1810.5999755859</ele>
        <time>2016-02-27T08:36:06.000Z</time>
      </trkpt>
      <trkpt lat="46.19054" lon="6.77388">
        <ele>1811.1999511719</ele>
        <time>2016-02-27T08:36:10.000Z</time>
      </trkpt>
      <trkpt lat="46.19047" lon="6.77393">
        <ele>1810.8000488281</ele>
        <time>2016-02-27T08:36:12.000Z</time>
      </trkpt>
      <trkpt lat="46.1903" lon="6.77402">
        <ele>1812.5999755859</ele>
        <time>2016-02-27T08:36:17.000Z</time>
      </trkpt>
      <trkpt lat="46.19026" lon="6.77404">
        <ele>1813</ele>
        <time>2016-02-27T08:36:18.000Z</time>
      </trkpt>
      <trkpt lat="46.19006" lon="6.77412">
        <ele>1811</ele>
        <time>2016-02-27T08:36:21.000Z</time>
      </trkpt>
      <trkpt lat="46.18982" lon="6.77424">
        <ele>1811.1999511719</ele>
        <time>2016-02-27T08:36:24.000Z</time>
      </trkpt>
      <trkpt lat="46.18961" lon="6.77434">
        <ele>1806.4000244141</ele>
        <time>2016-02-27T08:36:26.000Z</time>
      </trkpt>
      <trkpt lat="46.18939" lon="6.77443">
        <ele>1799.4000244141</ele>
        <time>2016-02-27T08:36:28.000Z</time>
      </trkpt>
      <trkpt lat="46.18917" lon="6.77453">
        <ele>1799.4000244141</ele>
        <time>2016-02-27T08:36:30.000Z</time>
      </trkpt>
      <trkpt lat="46.18896" lon="6.77464">
        <ele>1801</ele>
        <time>2016-02-27T08:36:32.000Z</time>
      </trkpt>
      <trkpt lat="46.18875" lon="6.77471">
        <ele>1799.5999755859</ele>
        <time>2016-02-27T08:36:34.000Z</time>
      </trkpt>
      <trkpt lat="46.18855" lon="6.77476">
        <ele>1792.5999755859</ele>
        <time>2016-02-27T08:36:36.000Z</time>
      </trkpt>
      <trkpt lat="46.18841" lon="6.77486">
        <ele>1789.1999511719</ele>
        <time>2016-02-27T08:36:38.000Z</time>
      </trkpt>
      <trkpt lat="46.18822" lon="6.77498">
        <ele>1782.5999755859</ele>
        <time>2016-02-27T08:36:41.000Z</time>
      </trkpt>
      <trkpt lat="46.18811" lon="6.77501">
        <ele>1779.4000244141</ele>
        <time>2016-02-27T08:36:43.000Z</time>
      </trkpt>
      <trkpt lat="46.18798" lon="6.77508">
        <ele>1778.4000244141</ele>
        <time>2016-02-27T08:36:47.000Z</time>
      </trkpt>
      <trkpt lat="46.18795" lon="6.7751">
        <ele>1778.4000244141</ele>
        <time>2016-02-27T08:36:48.000Z</time>
      </trkpt>
      <trkpt lat="46.18788" lon="6.7752">
        <ele>1778.5999755859</ele>
        <time>2016-02-27T08:36:52.000Z</time>
      </trkpt>
      <trkpt lat="46.18787" lon="6.77522">
        <ele>1778.5999755859</ele>
        <time>2016-02-27T08:36:53.000Z</time>
      </trkpt>
      <trkpt lat="46.18785" lon="6.77528">
        <ele>1779</ele>
        <time>2016-02-27T08:36:56.000Z</time>
      </trkpt>
      <trkpt lat="46.18786" lon="6.77534">
        <ele>1779.8000488281</ele>
        <time>2016-02-27T08:37:00.000Z</time>
      </trkpt>
      <trkpt lat="46.18789" lon="6.77536">
        <ele>1780.5999755859</ele>
        <time>2016-02-27T08:37:07.000Z</time>
      </trkpt>
      <trkpt lat="46.18785" lon="6.77564">
        <ele>1782.4000244141</ele>
        <time>2016-02-27T08:37:19.000Z</time>
      </trkpt>
      <trkpt lat="46.18776" lon="6.77588">
        <ele>1780.8000488281</ele>
        <time>2016-02-27T08:37:25.000Z</time>
      </trkpt>
      <trkpt lat="46.18772" lon="6.77615">
        <ele>1779.4000244141</ele>
        <time>2016-02-27T08:37:30.000Z</time>
      </trkpt>
      <trkpt lat="46.1877" lon="6.77643">
        <ele>1777.1999511719</ele>
        <time>2016-02-27T08:37:35.000Z</time>
      </trkpt>
      <trkpt lat="46.18767" lon="6.77669">
        <ele>1774.1999511719</ele>
        <time>2016-02-27T08:37:39.000Z</time>
      </trkpt>
      <trkpt lat="46.18767" lon="6.77702">
        <ele>1770.5999755859</ele>
        <time>2016-02-27T08:37:43.000Z</time>
      </trkpt>
      <trkpt lat="46.18769" lon="6.77711">
        <ele>1769.8000488281</ele>
        <time>2016-02-27T08:37:44.000Z</time>
      </trkpt>
      <trkpt lat="46.1877" lon="6.77741">
        <ele>1766.5999755859</ele>
        <time>2016-02-27T08:37:47.000Z</time>
      </trkpt>
      <trkpt lat="46.1877" lon="6.77754">
        <ele>1765.4000244141</ele>
        <time>2016-02-27T08:37:48.000Z</time>
      </trkpt>
      <trkpt lat="46.1877" lon="6.77782">
        <ele>1762.8000488281</ele>
        <time>2016-02-27T08:37:50.000Z</time>
      </trkpt>
      <trkpt lat="46.18772" lon="6.77812">
        <ele>1760</ele>
        <time>2016-02-27T08:37:52.000Z</time>
      </trkpt>
      <trkpt lat="46.18776" lon="6.77841">
        <ele>1757.8000488281</ele>
        <time>2016-02-27T08:37:54.000Z</time>
      </trkpt>
      <trkpt lat="46.18777" lon="6.77868">
        <ele>1754.5999755859</ele>
        <time>2016-02-27T08:37:56.000Z</time>
      </trkpt>
      <trkpt lat="46.18776" lon="6.779">
        <ele>1752.5999755859</ele>
        <time>2016-02-27T08:37:59.000Z</time>
      </trkpt>
      <trkpt lat="46.18776" lon="6.77917">
        <ele>1751.1999511719</ele>
        <time>2016-02-27T08:38:01.000Z</time>
      </trkpt>
      <trkpt lat="46.18773" lon="6.77945">
        <ele>1748.5999755859</ele>
        <time>2016-02-27T08:38:07.000Z</time>
      </trkpt>
      <trkpt lat="46.18762" lon="6.77946">
        <ele>1746.5999755859</ele>
        <time>2016-02-27T08:38:11.000Z</time>
      </trkpt>
      <trkpt lat="46.18757" lon="6.77946">
        <ele>1745.5999755859</ele>
        <time>2016-02-27T08:38:14.000Z</time>
      </trkpt>
      <trkpt lat="46.18742" lon="6.77949">
        <ele>1743</ele>
        <time>2016-02-27T08:39:39.000Z</time>
      </trkpt>
      <trkpt lat="46.1873" lon="6.77946">
        <ele>1740.8000488281</ele>
        <time>2016-02-27T08:41:15.000Z</time>
      </trkpt>
      <trkpt lat="46.18712" lon="6.77942">
        <ele>1743.5999755859</ele>
        <time>2016-02-27T08:41:27.000Z</time>
      </trkpt>
      <trkpt lat="46.1869" lon="6.7794">
        <ele>1747.5999755859</ele>
        <time>2016-02-27T08:41:34.000Z</time>
      </trkpt>
      <trkpt lat="46.18672" lon="6.77941">
        <ele>1750.5999755859</ele>
        <time>2016-02-27T08:41:39.000Z</time>
      </trkpt>
      <trkpt lat="46.18651" lon="6.7794">
        <ele>1753.8000488281</ele>
        <time>2016-02-27T08:41:45.000Z</time>
      </trkpt>
      <trkpt lat="46.1863" lon="6.77938">
        <ele>1760</ele>
        <time>2016-02-27T08:41:51.000Z</time>
      </trkpt>
      <trkpt lat="46.18593" lon="6.77935">
        <ele>1773.5999755859</ele>
        <time>2016-02-27T08:42:02.000Z</time>
      </trkpt>
      <trkpt lat="46.18574" lon="6.77933">
        <ele>1779.8000488281</ele>
        <time>2016-02-27T08:42:08.000Z</time>
      </trkpt>
      <trkpt lat="46.18554" lon="6.7793">
        <ele>1787.4000244141</ele>
        <time>2016-02-27T08:42:14.000Z</time>
      </trkpt>
      <trkpt lat="46.18534" lon="6.77929">
        <ele>1796</ele>
        <time>2016-02-27T08:42:20.000Z</time>
      </trkpt>
      <trkpt lat="46.18514" lon="6.77927">
        <ele>1804.4000244141</ele>
        <time>2016-02-27T08:42:26.000Z</time>
      </trkpt>
      <trkpt lat="46.18493" lon="6.77927">
        <ele>1813.4000244141</ele>
        <time>2016-02-27T08:42:33.000Z</time>
      </trkpt>
      <trkpt lat="46.18475" lon="6.77929">
        <ele>1822</ele>
        <time>2016-02-27T08:42:39.000Z</time>
      </trkpt>
      <trkpt lat="46.18444" lon="6.77925">
        <ele>1840.5999755859</ele>
        <time>2016-02-27T08:42:49.000Z</time>
      </trkpt>
      <trkpt lat="46.18423" lon="6.77923">
        <ele>1853</ele>
        <time>2016-02-27T08:42:55.000Z</time>
      </trkpt>
      <trkpt lat="46.18404" lon="6.77922">
        <ele>1865.4000244141</ele>
        <time>2016-02-27T08:43:01.000Z</time>
      </trkpt>
      <trkpt lat="46.18384" lon="6.77921">
        <ele>1875.4000244141</ele>
        <time>2016-02-27T08:43:07.000Z</time>
      </trkpt>
      <trkpt lat="46.18365" lon="6.77921">
        <ele>1882.8000488281</ele>
        <time>2016-02-27T08:43:13.000Z</time>
      </trkpt>
      <trkpt lat="46.18344" lon="6.77919">
        <ele>1891.4000244141</ele>
        <time>2016-02-27T08:43:19.000Z</time>
      </trkpt>
      <trkpt lat="46.18323" lon="6.77917">
        <ele>1899.8000488281</ele>
        <time>2016-02-27T08:43:25.000Z</time>
      </trkpt>
      <trkpt lat="46.18305" lon="6.77915">
        <ele>1905.1999511719</ele>
        <time>2016-02-27T08:43:30.000Z</time>
      </trkpt>
      <trkpt lat="46.18284" lon="6.77913">
        <ele>1906.5999755859</ele>
        <time>2016-02-27T08:43:36.000Z</time>
      </trkpt>
      <trkpt lat="46.1825" lon="6.77911">
        <ele>1908.5999755859</ele>
        <time>2016-02-27T08:43:46.000Z</time>
      </trkpt>
      <trkpt lat="46.1823" lon="6.7791">
        <ele>1910.4000244141</ele>
        <time>2016-02-27T08:43:52.000Z</time>
      </trkpt>
      <trkpt lat="46.18209" lon="6.77909">
        <ele>1908.8000488281</ele>
        <time>2016-02-27T08:43:58.000Z</time>
      </trkpt>
      <trkpt lat="46.18189" lon="6.77907">
        <ele>1906.5999755859</ele>
        <time>2016-02-27T08:44:04.000Z</time>
      </trkpt>
      <trkpt lat="46.18168" lon="6.77906">
        <ele>1904.4000244141</ele>
        <time>2016-02-27T08:44:10.000Z</time>
      </trkpt>
      <trkpt lat="46.18149" lon="6.77903">
        <ele>1902.1999511719</ele>
        <time>2016-02-27T08:44:15.000Z</time>
      </trkpt>
      <trkpt lat="46.18129" lon="6.77901">
        <ele>1905.1999511719</ele>
        <time>2016-02-27T08:44:21.000Z</time>
      </trkpt>
      <trkpt lat="46.18108" lon="6.779">
        <ele>1909.4000244141</ele>
        <time>2016-02-27T08:44:27.000Z</time>
      </trkpt>
      <trkpt lat="46.18088" lon="6.77898">
        <ele>1913.5999755859</ele>
        <time>2016-02-27T08:44:33.000Z</time>
      </trkpt>
      <trkpt lat="46.18067" lon="6.77895">
        <ele>1917.8000488281</ele>
        <time>2016-02-27T08:44:39.000Z</time>
      </trkpt>
      <trkpt lat="46.18047" lon="6.77894">
        <ele>1922.4000244141</ele>
        <time>2016-02-27T08:44:45.000Z</time>
      </trkpt>
      <trkpt lat="46.18013" lon="6.7789">
        <ele>1930.1999511719</ele>
        <time>2016-02-27T08:44:55.000Z</time>
      </trkpt>
      <trkpt lat="46.17992" lon="6.77889">
        <ele>1935</ele>
        <time>2016-02-27T08:45:01.000Z</time>
      </trkpt>
      <trkpt lat="46.17971" lon="6.77887">
        <ele>1939.8000488281</ele>
        <time>2016-02-27T08:45:07.000Z</time>
      </trkpt>
      <trkpt lat="46.1795" lon="6.77885">
        <ele>1945</ele>
        <time>2016-02-27T08:45:13.000Z</time>
      </trkpt>
      <trkpt lat="46.17929" lon="6.77882">
        <ele>1950.8000488281</ele>
        <time>2016-02-27T08:45:19.000Z</time>
      </trkpt>
      <trkpt lat="46.17909" lon="6.77881">
        <ele>1956</ele>
        <time>2016-02-27T08:45:25.000Z</time>
      </trkpt>
      <trkpt lat="46.17891" lon="6.77882">
        <ele>1961.4000244141</ele>
        <time>2016-02-27T08:45:31.000Z</time>
      </trkpt>
      <trkpt lat="46.17871" lon="6.77882">
        <ele>1967.1999511719</ele>
        <time>2016-02-27T08:45:37.000Z</time>
      </trkpt>
      <trkpt lat="46.17851" lon="6.77881">
        <ele>1974.8000488281</ele>
        <time>2016-02-27T08:45:43.000Z</time>
      </trkpt>
      <trkpt lat="46.17817" lon="6.77876">
        <ele>1987.5999755859</ele>
        <time>2016-02-27T08:45:53.000Z</time>
      </trkpt>
      <trkpt lat="46.17795" lon="6.77871">
        <ele>1994.5999755859</ele>
        <time>2016-02-27T08:45:59.000Z</time>
      </trkpt>
      <trkpt lat="46.17775" lon="6.77868">
        <ele>2001.4000244141</ele>
        <time>2016-02-27T08:46:05.000Z</time>
      </trkpt>
      <trkpt lat="46.17755" lon="6.77868">
        <ele>2008.4000244141</ele>
        <time>2016-02-27T08:46:11.000Z</time>
      </trkpt>
      <trkpt lat="46.17734" lon="6.77867">
        <ele>2015.4000244141</ele>
        <time>2016-02-27T08:46:17.000Z</time>
      </trkpt>
      <trkpt lat="46.17713" lon="6.77865">
        <ele>2021.1999511719</ele>
        <time>2016-02-27T08:46:23.000Z</time>
      </trkpt>
      <trkpt lat="46.17693" lon="6.77864">
        <ele>2026.4000244141</ele>
        <time>2016-02-27T08:46:29.000Z</time>
      </trkpt>
      <trkpt lat="46.17672" lon="6.77861">
        <ele>2031.4000244141</ele>
        <time>2016-02-27T08:46:35.000Z</time>
      </trkpt>
      <trkpt lat="46.17639" lon="6.77861">
        <ele>2040.5999755859</ele>
        <time>2016-02-27T08:46:45.000Z</time>
      </trkpt>
      <trkpt lat="46.17619" lon="6.7786">
        <ele>2049.6000976562</ele>
        <time>2016-02-27T08:46:51.000Z</time>
      </trkpt>
      <trkpt lat="46.17598" lon="6.77857">
        <ele>2058.6000976562</ele>
        <time>2016-02-27T08:46:57.000Z</time>
      </trkpt>
      <trkpt lat="46.17577" lon="6.77854">
        <ele>2066</ele>
        <time>2016-02-27T08:47:03.000Z</time>
      </trkpt>
      <trkpt lat="46.17557" lon="6.77851">
        <ele>2073</ele>
        <time>2016-02-27T08:47:09.000Z</time>
      </trkpt>
      <trkpt lat="46.17538" lon="6.77848">
        <ele>2079.1999511719</ele>
        <time>2016-02-27T08:47:15.000Z</time>
      </trkpt>
      <trkpt lat="46.17518" lon="6.77846">
        <ele>2085.3999023438</ele>
        <time>2016-02-27T08:47:21.000Z</time>
      </trkpt>
      <trkpt lat="46.17499" lon="6.77844">
        <ele>2091.6000976562</ele>
        <time>2016-02-27T08:47:27.000Z</time>
      </trkpt>
      <trkpt lat="46.1748" lon="6.77842">
        <ele>2096.6000976562</ele>
        <time>2016-02-27T08:47:33.000Z</time>
      </trkpt>
      <trkpt lat="46.17444" lon="6.77838">
        <ele>2115.1999511719</ele>
        <time>2016-02-27T08:47:44.000Z</time>
      </trkpt>
      <trkpt lat="46.17426" lon="6.77836">
        <ele>2125</ele>
        <time>2016-02-27T08:47:50.000Z</time>
      </trkpt>
      <trkpt lat="46.17407" lon="6.77836">
        <ele>2134.3999023438</ele>
        <time>2016-02-27T08:47:56.000Z</time>
      </trkpt>
      <trkpt lat="46.17389" lon="6.77835">
        <ele>2140.8000488281</ele>
        <time>2016-02-27T08:48:02.000Z</time>
      </trkpt>
      <trkpt lat="46.17371" lon="6.77836">
        <ele>2148.8000488281</ele>
        <time>2016-02-27T08:48:08.000Z</time>
      </trkpt>
      <trkpt lat="46.17351" lon="6.77832">
        <ele>2158.8000488281</ele>
        <time>2016-02-27T08:48:14.000Z</time>
      </trkpt>
      <trkpt lat="46.17331" lon="6.77828">
        <ele>2169</ele>
        <time>2016-02-27T08:48:20.000Z</time>
      </trkpt>
      <trkpt lat="46.1731" lon="6.77824">
        <ele>2179.1999511719</ele>
        <time>2016-02-27T08:48:26.000Z</time>
      </trkpt>
      <trkpt lat="46.17274" lon="6.77825">
        <ele>2184.6000976562</ele>
        <time>2016-02-27T08:48:40.000Z</time>
      </trkpt>
      <trkpt lat="46.17261" lon="6.77821">
        <ele>2187.8000488281</ele>
        <time>2016-02-27T08:48:46.000Z</time>
      </trkpt>
      <trkpt lat="46.17261" lon="6.77814">
        <ele>2187.8000488281</ele>
        <time>2016-02-27T08:48:50.000Z</time>
      </trkpt>
      <trkpt lat="46.17261" lon="6.77788">
        <ele>2187.8000488281</ele>
        <time>2016-02-27T08:49:00.000Z</time>
      </trkpt>
      <trkpt lat="46.17261" lon="6.77758">
        <ele>2189</ele>
        <time>2016-02-27T08:49:08.000Z</time>
      </trkpt>
      <trkpt lat="46.17264" lon="6.7773">
        <ele>2190</ele>
        <time>2016-02-27T08:49:13.000Z</time>
      </trkpt>
      <trkpt lat="46.17267" lon="6.77716">
        <ele>2189.1999511719</ele>
        <time>2016-02-27T08:49:16.000Z</time>
      </trkpt>
      <trkpt lat="46.17268" lon="6.77692">
        <ele>2187.6000976562</ele>
        <time>2016-02-27T08:50:01.000Z</time>
      </trkpt>
      <trkpt lat="46.17265" lon="6.77676">
        <ele>2185</ele>
        <time>2016-02-27T08:50:04.000Z</time>
      </trkpt>
      <trkpt lat="46.17262" lon="6.77649">
        <ele>2180.3999023438</ele>
        <time>2016-02-27T08:50:08.000Z</time>
      </trkpt>
      <trkpt lat="46.17264" lon="6.77622">
        <ele>2176.8000488281</ele>
        <time>2016-02-27T08:50:14.000Z</time>
      </trkpt>
      <trkpt lat="46.1727" lon="6.77599">
        <ele>2170.3999023438</ele>
        <time>2016-02-27T08:50:37.000Z</time>
      </trkpt>
      <trkpt lat="46.17273" lon="6.77565">
        <ele>2159.6000976562</ele>
        <time>2016-02-27T08:50:41.000Z</time>
      </trkpt>
      <trkpt lat="46.17282" lon="6.7753">
        <ele>2150.8000488281</ele>
        <time>2016-02-27T08:50:44.000Z</time>
      </trkpt>
      <trkpt lat="46.17291" lon="6.77497">
        <ele>2139.6000976562</ele>
        <time>2016-02-27T08:50:47.000Z</time>
      </trkpt>
      <trkpt lat="46.17294" lon="6.77487">
        <ele>2136.1999511719</ele>
        <time>2016-02-27T08:50:48.000Z</time>
      </trkpt>
      <trkpt lat="46.173" lon="6.77471">
        <ele>2128.8000488281</ele>
        <time>2016-02-27T08:50:50.000Z</time>
      </trkpt>
      <trkpt lat="46.17307" lon="6.77456">
        <ele>2127.3999023438</ele>
        <time>2016-02-27T08:50:52.000Z</time>
      </trkpt>
      <trkpt lat="46.17318" lon="6.77434">
        <ele>2123.3999023438</ele>
        <time>2016-02-27T08:50:55.000Z</time>
      </trkpt>
      <trkpt lat="46.17323" lon="6.77418">
        <ele>2120.6000976562</ele>
        <time>2016-02-27T08:50:57.000Z</time>
      </trkpt>
      <trkpt lat="46.17326" lon="6.77411">
        <ele>2116.8000488281</ele>
        <time>2016-02-27T08:50:58.000Z</time>
      </trkpt>
      <trkpt lat="46.17336" lon="6.77396">
        <ele>2106.6000976562</ele>
        <time>2016-02-27T08:52:15.000Z</time>
      </trkpt>
      <trkpt lat="46.17338" lon="6.77373">
        <ele>2101.1999511719</ele>
        <time>2016-02-27T08:52:21.000Z</time>
      </trkpt>
      <trkpt lat="46.17342" lon="6.77349">
        <ele>2094.3999023438</ele>
        <time>2016-02-27T08:52:24.000Z</time>
      </trkpt>
      <trkpt lat="46.17351" lon="6.77323">
        <ele>2085.8000488281</ele>
        <time>2016-02-27T08:52:27.000Z</time>
      </trkpt>
      <trkpt lat="46.17354" lon="6.77313">
        <ele>2080.3999023438</ele>
        <time>2016-02-27T08:52:28.000Z</time>
      </trkpt>
      <trkpt lat="46.1736" lon="6.77293">
        <ele>2068.3999023438</ele>
        <time>2016-02-27T08:52:30.000Z</time>
      </trkpt>
      <trkpt lat="46.17368" lon="6.77266">
        <ele>2066.8000488281</ele>
        <time>2016-02-27T08:52:33.000Z</time>
      </trkpt>
      <trkpt lat="46.17373" lon="6.77258">
        <ele>2067.1999511719</ele>
        <time>2016-02-27T08:52:34.000Z</time>
      </trkpt>
      <trkpt lat="46.17385" lon="6.77235">
        <ele>2066.6000976562</ele>
        <time>2016-02-27T08:52:37.000Z</time>
      </trkpt>
      <trkpt lat="46.17393" lon="6.77216">
        <ele>2064.1999511719</ele>
        <time>2016-02-27T08:52:39.000Z</time>
      </trkpt>
      <trkpt lat="46.17397" lon="6.77207">
        <ele>2061.6000976562</ele>
        <time>2016-02-27T08:52:40.000Z</time>
      </trkpt>
      <trkpt lat="46.17414" lon="6.77182">
        <ele>2044.8000488281</ele>
        <time>2016-02-27T08:52:43.000Z</time>
      </trkpt>
      <trkpt lat="46.17426" lon="6.77167">
        <ele>2037.8000488281</ele>
        <time>2016-02-27T08:52:45.000Z</time>
      </trkpt>
      <trkpt lat="46.17442" lon="6.77144">
        <ele>2025</ele>
        <time>2016-02-27T08:52:48.000Z</time>
      </trkpt>
      <trkpt lat="46.17457" lon="6.77121">
        <ele>2011.4000244141</ele>
        <time>2016-02-27T08:52:51.000Z</time>
      </trkpt>
      <trkpt lat="46.17468" lon="6.77103">
        <ele>2008.4000244141</ele>
        <time>2016-02-27T08:52:53.000Z</time>
      </trkpt>
      <trkpt lat="46.17475" lon="6.77095">
        <ele>2006.4000244141</ele>
        <time>2016-02-27T08:52:54.000Z</time>
      </trkpt>
      <trkpt lat="46.17496" lon="6.77074">
        <ele>1994.4000244141</ele>
        <time>2016-02-27T08:52:57.000Z</time>
      </trkpt>
      <trkpt lat="46.17515" lon="6.77054">
        <ele>1981.8000488281</ele>
        <time>2016-02-27T08:53:00.000Z</time>
      </trkpt>
      <trkpt lat="46.17521" lon="6.77045">
        <ele>1977.4000244141</ele>
        <time>2016-02-27T08:53:01.000Z</time>
      </trkpt>
      <trkpt lat="46.17541" lon="6.77025">
        <ele>1971.8000488281</ele>
        <time>2016-02-27T08:53:04.000Z</time>
      </trkpt>
      <trkpt lat="46.17549" lon="6.77018">
        <ele>1971.1999511719</ele>
        <time>2016-02-27T08:53:05.000Z</time>
      </trkpt>
      <trkpt lat="46.17557" lon="6.77011">
        <ele>1970.8000488281</ele>
        <time>2016-02-27T08:53:06.000Z</time>
      </trkpt>
      <trkpt lat="46.17577" lon="6.76998">
        <ele>1963</ele>
        <time>2016-02-27T08:53:08.000Z</time>
      </trkpt>
      <trkpt lat="46.17603" lon="6.76985">
        <ele>1951.5999755859</ele>
        <time>2016-02-27T08:53:11.000Z</time>
      </trkpt>
      <trkpt lat="46.17615" lon="6.76964">
        <ele>1941</ele>
        <time>2016-02-27T08:53:13.000Z</time>
      </trkpt>
      <trkpt lat="46.17621" lon="6.76939">
        <ele>1941</ele>
        <time>2016-02-27T08:53:15.000Z</time>
      </trkpt>
      <trkpt lat="46.17639" lon="6.76913">
        <ele>1940.1999511719</ele>
        <time>2016-02-27T08:53:18.000Z</time>
      </trkpt>
      <trkpt lat="46.17652" lon="6.76889">
        <ele>1933.8000488281</ele>
        <time>2016-02-27T08:53:21.000Z</time>
      </trkpt>
      <trkpt lat="46.17677" lon="6.76902">
        <ele>1927.1999511719</ele>
        <time>2016-02-27T08:53:35.000Z</time>
      </trkpt>
      <trkpt lat="46.17697" lon="6.76901">
        <ele>1919.1999511719</ele>
        <time>2016-02-27T08:53:38.000Z</time>
      </trkpt>
      <trkpt lat="46.17716" lon="6.76903">
        <ele>1912.4000244141</ele>
        <time>2016-02-27T08:53:41.000Z</time>
      </trkpt>
      <trkpt lat="46.17734" lon="6.76907">
        <ele>1903.8000488281</ele>
        <time>2016-02-27T08:53:45.000Z</time>
      </trkpt>
      <trkpt lat="46.17742" lon="6.76938">
        <ele>1893.1999511719</ele>
        <time>2016-02-27T08:54:18.000Z</time>
      </trkpt>
      <trkpt lat="46.17738" lon="6.76969">
        <ele>1890.8000488281</ele>
        <time>2016-02-27T08:54:22.000Z</time>
      </trkpt>
      <trkpt lat="46.17737" lon="6.77004">
        <ele>1884.1999511719</ele>
        <time>2016-02-27T08:54:25.000Z</time>
      </trkpt>
      <trkpt lat="46.17729" lon="6.77029">
        <ele>1879</ele>
        <time>2016-02-27T08:54:27.000Z</time>
      </trkpt>
      <trkpt lat="46.17724" lon="6.77043">
        <ele>1876.8000488281</ele>
        <time>2016-02-27T08:54:28.000Z</time>
      </trkpt>
      <trkpt lat="46.17718" lon="6.77055">
        <ele>1875</ele>
        <time>2016-02-27T08:54:29.000Z</time>
      </trkpt>
      <trkpt lat="46.17703" lon="6.77076">
        <ele>1877</ele>
        <time>2016-02-27T08:54:31.000Z</time>
      </trkpt>
      <trkpt lat="46.17692" lon="6.771">
        <ele>1881</ele>
        <time>2016-02-27T08:54:33.000Z</time>
      </trkpt>
      <trkpt lat="46.1769" lon="6.77113">
        <ele>1881.1999511719</ele>
        <time>2016-02-27T08:54:34.000Z</time>
      </trkpt>
      <trkpt lat="46.17688" lon="6.77138">
        <ele>1878.8000488281</ele>
        <time>2016-02-27T08:54:36.000Z</time>
      </trkpt>
      <trkpt lat="46.177" lon="6.7716">
        <ele>1872.5999755859</ele>
        <time>2016-02-27T08:54:39.000Z</time>
      </trkpt>
      <trkpt lat="46.17717" lon="6.77132">
        <ele>1867.1999511719</ele>
        <time>2016-02-27T08:54:42.000Z</time>
      </trkpt>
      <trkpt lat="46.17737" lon="6.77112">
        <ele>1860.4000244141</ele>
        <time>2016-02-27T08:54:45.000Z</time>
      </trkpt>
      <trkpt lat="46.17743" lon="6.77109">
        <ele>1859</ele>
        <time>2016-02-27T08:54:46.000Z</time>
      </trkpt>
      <trkpt lat="46.17748" lon="6.77113">
        <ele>1857.1999511719</ele>
        <time>2016-02-27T08:54:47.000Z</time>
      </trkpt>
      <trkpt lat="46.17769" lon="6.77129">
        <ele>1850.4000244141</ele>
        <time>2016-02-27T08:54:50.000Z</time>
      </trkpt>
      <trkpt lat="46.17788" lon="6.77137">
        <ele>1844.4000244141</ele>
        <time>2016-02-27T08:54:52.000Z</time>
      </trkpt>
      <trkpt lat="46.17806" lon="6.77128">
        <ele>1835.8000488281</ele>
        <time>2016-02-27T08:54:54.000Z</time>
      </trkpt>
      <trkpt lat="46.17813" lon="6.77122">
        <ele>1832</ele>
        <time>2016-02-27T08:54:55.000Z</time>
      </trkpt>
      <trkpt lat="46.17821" lon="6.77122">
        <ele>1830.5999755859</ele>
        <time>2016-02-27T08:54:56.000Z</time>
      </trkpt>
      <trkpt lat="46.1784" lon="6.7712">
        <ele>1827</ele>
        <time>2016-02-27T08:54:59.000Z</time>
      </trkpt>
      <trkpt lat="46.17849" lon="6.77128">
        <ele>1826.4000244141</ele>
        <time>2016-02-27T08:55:09.000Z</time>
      </trkpt>
      <trkpt lat="46.17852" lon="6.77133">
        <ele>1826.5999755859</ele>
        <time>2016-02-27T08:55:23.000Z</time>
      </trkpt>
      <trkpt lat="46.17859" lon="6.77117">
        <ele>1822.8000488281</ele>
        <time>2016-02-27T08:55:46.000Z</time>
      </trkpt>
      <trkpt lat="46.17877" lon="6.771">
        <ele>1814.1999511719</ele>
        <time>2016-02-27T08:55:49.000Z</time>
      </trkpt>
      <trkpt lat="46.17895" lon="6.77086">
        <ele>1806.1999511719</ele>
        <time>2016-02-27T08:55:51.000Z</time>
      </trkpt>
      <trkpt lat="46.17917" lon="6.77079">
        <ele>1801.4000244141</ele>
        <time>2016-02-27T08:55:53.000Z</time>
      </trkpt>
      <trkpt lat="46.17933" lon="6.7706">
        <ele>1794.1999511719</ele>
        <time>2016-02-27T08:55:55.000Z</time>
      </trkpt>
      <trkpt lat="46.17951" lon="6.77045">
        <ele>1789.1999511719</ele>
        <time>2016-02-27T08:55:57.000Z</time>
      </trkpt>
      <trkpt lat="46.17959" lon="6.77034">
        <ele>1786.1999511719</ele>
        <time>2016-02-27T08:55:58.000Z</time>
      </trkpt>
      <trkpt lat="46.17977" lon="6.77016">
        <ele>1779.5999755859</ele>
        <time>2016-02-27T08:56:00.000Z</time>
      </trkpt>
      <trkpt lat="46.17983" lon="6.77005">
        <ele>1777.5999755859</ele>
        <time>2016-02-27T08:56:01.000Z</time>
      </trkpt>
      <trkpt lat="46.17998" lon="6.76985">
        <ele>1773</ele>
        <time>2016-02-27T08:56:03.000Z</time>
      </trkpt>
      <trkpt lat="46.1801" lon="6.76965">
        <ele>1769.8000488281</ele>
        <time>2016-02-27T08:56:05.000Z</time>
      </trkpt>
      <trkpt lat="46.18016" lon="6.76931">
        <ele>1766.1999511719</ele>
        <time>2016-02-27T08:56:08.000Z</time>
      </trkpt>
      <trkpt lat="46.18033" lon="6.76913">
        <ele>1761.5999755859</ele>
        <time>2016-02-27T08:56:10.000Z</time>
      </trkpt>
      <trkpt lat="46.18042" lon="6.7689">
        <ele>1759.4000244141</ele>
        <time>2016-02-27T08:56:12.000Z</time>
      </trkpt>
      <trkpt lat="46.18061" lon="6.76864">
        <ele>1748</ele>
        <time>2016-02-27T08:56:15.000Z</time>
      </trkpt>
      <trkpt lat="46.18065" lon="6.76855">
        <ele>1744.1999511719</ele>
        <time>2016-02-27T08:56:16.000Z</time>
      </trkpt>
      <trkpt lat="46.18074" lon="6.76848">
        <ele>1739.5999755859</ele>
        <time>2016-02-27T08:56:17.000Z</time>
      </trkpt>
      <trkpt lat="46.1809" lon="6.76822">
        <ele>1729.8000488281</ele>
        <time>2016-02-27T08:56:20.000Z</time>
      </trkpt>
      <trkpt lat="46.18106" lon="6.76815">
        <ele>1723</ele>
        <time>2016-02-27T08:56:22.000Z</time>
      </trkpt>
      <trkpt lat="46.18127" lon="6.76811">
        <ele>1715</ele>
        <time>2016-02-27T08:56:25.000Z</time>
      </trkpt>
      <trkpt lat="46.18145" lon="6.76821">
        <ele>1711.8000488281</ele>
        <time>2016-02-27T08:56:27.000Z</time>
      </trkpt>
      <trkpt lat="46.18167" lon="6.76835">
        <ele>1706.1999511719</ele>
        <time>2016-02-27T08:56:30.000Z</time>
      </trkpt>
      <trkpt lat="46.18189" lon="6.76828">
        <ele>1704</ele>
        <time>2016-02-27T08:56:33.000Z</time>
      </trkpt>
      <trkpt lat="46.18208" lon="6.76826">
        <ele>1701.4000244141</ele>
        <time>2016-02-27T08:56:36.000Z</time>
      </trkpt>
      <trkpt lat="46.18222" lon="6.76833">
        <ele>1697.8000488281</ele>
        <time>2016-02-27T08:56:51.000Z</time>
      </trkpt>
      <trkpt lat="46.18217" lon="6.76835">
        <ele>1698.4000244141</ele>
        <time>2016-02-27T08:56:55.000Z</time>
      </trkpt>
      <trkpt lat="46.18219" lon="6.76855">
        <ele>1694.5999755859</ele>
        <time>2016-02-27T08:57:07.000Z</time>
      </trkpt>
      <trkpt lat="46.18233" lon="6.76874">
        <ele>1688.8000488281</ele>
        <time>2016-02-27T08:57:10.000Z</time>
      </trkpt>
      <trkpt lat="46.18244" lon="6.76885">
        <ele>1683.4000244141</ele>
        <time>2016-02-27T08:57:12.000Z</time>
      </trkpt>
      <trkpt lat="46.18249" lon="6.76888">
        <ele>1681.1999511719</ele>
        <time>2016-02-27T08:57:13.000Z</time>
      </trkpt>
      <trkpt lat="46.18269" lon="6.76896">
        <ele>1673.4000244141</ele>
        <time>2016-02-27T08:57:16.000Z</time>
      </trkpt>
      <trkpt lat="46.18292" lon="6.76907">
        <ele>1665.4000244141</ele>
        <time>2016-02-27T08:57:19.000Z</time>
      </trkpt>
      <trkpt lat="46.183" lon="6.76907">
        <ele>1662.8000488281</ele>
        <time>2016-02-27T08:57:20.000Z</time>
      </trkpt>
      <trkpt lat="46.1831" lon="6.76911">
        <ele>1660.1999511719</ele>
        <time>2016-02-27T08:57:21.000Z</time>
      </trkpt>
      <trkpt lat="46.18327" lon="6.76915">
        <ele>1654</ele>
        <time>2016-02-27T08:57:23.000Z</time>
      </trkpt>
      <trkpt lat="46.18353" lon="6.76921">
        <ele>1644.5999755859</ele>
        <time>2016-02-27T08:57:26.000Z</time>
      </trkpt>
      <trkpt lat="46.18377" lon="6.76919">
        <ele>1634.1999511719</ele>
        <time>2016-02-27T08:57:29.000Z</time>
      </trkpt>
      <trkpt lat="46.18395" lon="6.76914">
        <ele>1626.1999511719</ele>
        <time>2016-02-27T08:57:32.000Z</time>
      </trkpt>
      <trkpt lat="46.18417" lon="6.76911">
        <ele>1617.8000488281</ele>
        <time>2016-02-27T08:57:36.000Z</time>
      </trkpt>
      <trkpt lat="46.18435" lon="6.76913">
        <ele>1611.4000244141</ele>
        <time>2016-02-27T08:57:39.000Z</time>
      </trkpt>
      <trkpt lat="46.18457" lon="6.76914">
        <ele>1603.8000488281</ele>
        <time>2016-02-27T08:57:43.000Z</time>
      </trkpt>
      <trkpt lat="46.18461" lon="6.76909">
        <ele>1601.5999755859</ele>
        <time>2016-02-27T08:57:44.000Z</time>
      </trkpt>
      <trkpt lat="46.18469" lon="6.76911">
        <ele>1599.1999511719</ele>
        <time>2016-02-27T08:57:45.000Z</time>
      </trkpt>
      <trkpt lat="46.18487" lon="6.76907">
        <ele>1593.5999755859</ele>
        <time>2016-02-27T08:57:48.000Z</time>
      </trkpt>
      <trkpt lat="46.18509" lon="6.76913">
        <ele>1590</ele>
        <time>2016-02-27T08:57:51.000Z</time>
      </trkpt>
      <trkpt lat="46.18525" lon="6.76887">
        <ele>1584.5999755859</ele>
        <time>2016-02-27T08:57:54.000Z</time>
      </trkpt>
      <trkpt lat="46.18532" lon="6.76856">
        <ele>1579.1999511719</ele>
        <time>2016-02-27T08:57:56.000Z</time>
      </trkpt>
      <trkpt lat="46.18539" lon="6.76817">
        <ele>1570.4000244141</ele>
        <time>2016-02-27T08:57:58.000Z</time>
      </trkpt>
      <trkpt lat="46.18548" lon="6.76775">
        <ele>1562</ele>
        <time>2016-02-27T08:58:00.000Z</time>
      </trkpt>
      <trkpt lat="46.18552" lon="6.76734">
        <ele>1553.1999511719</ele>
        <time>2016-02-27T08:58:02.000Z</time>
      </trkpt>
      <trkpt lat="46.18556" lon="6.76695">
        <ele>1550</ele>
        <time>2016-02-27T08:58:04.000Z</time>
      </trkpt>
      <trkpt lat="46.18559" lon="6.76678">
        <ele>1548.1999511719</ele>
        <time>2016-02-27T08:58:05.000Z</time>
      </trkpt>
      <trkpt lat="46.1857" lon="6.7665">
        <ele>1542</ele>
        <time>2016-02-27T08:58:07.000Z</time>
      </trkpt>
      <trkpt lat="46.18577" lon="6.76625">
        <ele>1539.1999511719</ele>
        <time>2016-02-27T08:58:09.000Z</time>
      </trkpt>
      <trkpt lat="46.18588" lon="6.76596">
        <ele>1534.4000244141</ele>
        <time>2016-02-27T08:58:12.000Z</time>
      </trkpt>
      <trkpt lat="46.18597" lon="6.76586">
        <ele>1530</ele>
        <time>2016-02-27T08:58:14.000Z</time>
      </trkpt>
      <trkpt lat="46.18601" lon="6.7658">
        <ele>1528</ele>
        <time>2016-02-27T08:58:15.000Z</time>
      </trkpt>
      <trkpt lat="46.18605" lon="6.76591">
        <ele>1526.4000244141</ele>
        <time>2016-02-27T08:58:34.000Z</time>
      </trkpt>
      <trkpt lat="46.18605" lon="6.76592">
        <ele>1526.4000244141</ele>
        <time>2016-02-27T08:58:35.000Z</time>
      </trkpt>
      <trkpt lat="46.18602" lon="6.76618">
        <ele>1527.8000488281</ele>
        <time>2016-02-27T08:59:08.000Z</time>
      </trkpt>
      <trkpt lat="46.18599" lon="6.76624">
        <ele>1529.4000244141</ele>
        <time>2016-02-27T08:59:11.000Z</time>
      </trkpt>
      <trkpt lat="46.18599" lon="6.7665">
        <ele>1528.8000488281</ele>
        <time>2016-02-27T08:59:16.000Z</time>
      </trkpt>
      <trkpt lat="46.18603" lon="6.76677">
        <ele>1534.1999511719</ele>
        <time>2016-02-27T08:59:19.000Z</time>
      </trkpt>
      <trkpt lat="46.18615" lon="6.76702">
        <ele>1536.5999755859</ele>
        <time>2016-02-27T08:59:22.000Z</time>
      </trkpt>
      <trkpt lat="46.18635" lon="6.76692">
        <ele>1524</ele>
        <time>2016-02-27T08:59:25.000Z</time>
      </trkpt>
      <trkpt lat="46.18662" lon="6.7668">
        <ele>1517.8000488281</ele>
        <time>2016-02-27T08:59:27.000Z</time>
      </trkpt>
      <trkpt lat="46.18682" lon="6.76664">
        <ele>1507.5999755859</ele>
        <time>2016-02-27T08:59:29.000Z</time>
      </trkpt>
      <trkpt lat="46.187" lon="6.76641">
        <ele>1498.4000244141</ele>
        <time>2016-02-27T08:59:32.000Z</time>
      </trkpt>
      <trkpt lat="46.18703" lon="6.76634">
        <ele>1497.8000488281</ele>
        <time>2016-02-27T08:59:33.000Z</time>
      </trkpt>
      <trkpt lat="46.18694" lon="6.7662">
        <ele>1499.1999511719</ele>
        <time>2016-02-27T08:59:40.000Z</time>
      </trkpt>
      <trkpt lat="46.18689" lon="6.76624">
        <ele>1500.1999511719</ele>
        <time>2016-02-27T08:59:46.000Z</time>
      </trkpt>
      <trkpt lat="46.18672" lon="6.76632">
        <ele>1503.1999511719</ele>
        <time>2016-02-27T09:00:26.000Z</time>
      </trkpt>
      <trkpt lat="46.18656" lon="6.76646">
        <ele>1506</ele>
        <time>2016-02-27T09:00:34.000Z</time>
      </trkpt>
      <trkpt lat="46.18622" lon="6.76669">
        <ele>1523</ele>
        <time>2016-02-27T09:00:45.000Z</time>
      </trkpt>
      <trkpt lat="46.18605" lon="6.76682">
        <ele>1534.8000488281</ele>
        <time>2016-02-27T09:00:50.000Z</time>
      </trkpt>
      <trkpt lat="46.18586" lon="6.76697">
        <ele>1543</ele>
        <time>2016-02-27T09:00:56.000Z</time>
      </trkpt>
      <trkpt lat="46.18566" lon="6.76705">
        <ele>1546.4000244141</ele>
        <time>2016-02-27T09:01:01.000Z</time>
      </trkpt>
      <trkpt lat="46.18549" lon="6.76717">
        <ele>1555.1999511719</ele>
        <time>2016-02-27T09:01:06.000Z</time>
      </trkpt>
      <trkpt lat="46.18532" lon="6.7673">
        <ele>1564</ele>
        <time>2016-02-27T09:01:12.000Z</time>
      </trkpt>
      <trkpt lat="46.18514" lon="6.7674">
        <ele>1573.1999511719</ele>
        <time>2016-02-27T09:01:18.000Z</time>
      </trkpt>
      <trkpt lat="46.18506" lon="6.76745">
        <ele>1578.1999511719</ele>
        <time>2016-02-27T09:01:21.000Z</time>
      </trkpt>
      <trkpt lat="46.18488" lon="6.76757">
        <ele>1588.4000244141</ele>
        <time>2016-02-27T09:01:27.000Z</time>
      </trkpt>
      <trkpt lat="46.18456" lon="6.7678">
        <ele>1604.8000488281</ele>
        <time>2016-02-27T09:01:37.000Z</time>
      </trkpt>
      <trkpt lat="46.18436" lon="6.76793">
        <ele>1614.8000488281</ele>
        <time>2016-02-27T09:01:43.000Z</time>
      </trkpt>
      <trkpt lat="46.18416" lon="6.76804">
        <ele>1624.5999755859</ele>
        <time>2016-02-27T09:01:48.000Z</time>
      </trkpt>
      <trkpt lat="46.18397" lon="6.76816">
        <ele>1633.1999511719</ele>
        <time>2016-02-27T09:01:53.000Z</time>
      </trkpt>
      <trkpt lat="46.18378" lon="6.76833">
        <ele>1640.5999755859</ele>
        <time>2016-02-27T09:01:58.000Z</time>
      </trkpt>
      <trkpt lat="46.1836" lon="6.76847">
        <ele>1647.8000488281</ele>
        <time>2016-02-27T09:02:03.000Z</time>
      </trkpt>
      <trkpt lat="46.18342" lon="6.7686">
        <ele>1654.4000244141</ele>
        <time>2016-02-27T09:02:08.000Z</time>
      </trkpt>
      <trkpt lat="46.18324" lon="6.76876">
        <ele>1659</ele>
        <time>2016-02-27T09:02:13.000Z</time>
      </trkpt>
      <trkpt lat="46.18305" lon="6.7689">
        <ele>1663.4000244141</ele>
        <time>2016-02-27T09:02:18.000Z</time>
      </trkpt>
      <trkpt lat="46.18287" lon="6.76903">
        <ele>1666.8000488281</ele>
        <time>2016-02-27T09:02:23.000Z</time>
      </trkpt>
      <trkpt lat="46.18261" lon="6.76922">
        <ele>1677.1999511719</ele>
        <time>2016-02-27T09:02:30.000Z</time>
      </trkpt>
      <trkpt lat="46.18243" lon="6.76935">
        <ele>1685.4000244141</ele>
        <time>2016-02-27T09:02:35.000Z</time>
      </trkpt>
      <trkpt lat="46.18226" lon="6.76948">
        <ele>1694</ele>
        <time>2016-02-27T09:02:40.000Z</time>
      </trkpt>
      <trkpt lat="46.1821" lon="6.76961">
        <ele>1703.8000488281</ele>
        <time>2016-02-27T09:02:45.000Z</time>
      </trkpt>
      <trkpt lat="46.18193" lon="6.76974">
        <ele>1713.4000244141</ele>
        <time>2016-02-27T09:02:50.000Z</time>
      </trkpt>
      <trkpt lat="46.18174" lon="6.76987">
        <ele>1723.4000244141</ele>
        <time>2016-02-27T09:02:56.000Z</time>
      </trkpt>
      <trkpt lat="46.18156" lon="6.77">
        <ele>1736.1999511719</ele>
        <time>2016-02-27T09:03:02.000Z</time>
      </trkpt>
      <trkpt lat="46.18138" lon="6.77013">
        <ele>1747.8000488281</ele>
        <time>2016-02-27T09:03:08.000Z</time>
      </trkpt>
      <trkpt lat="46.18098" lon="6.77044">
        <ele>1769</ele>
        <time>2016-02-27T09:03:20.000Z</time>
      </trkpt>
      <trkpt lat="46.1808" lon="6.77056">
        <ele>1774.1999511719</ele>
        <time>2016-02-27T09:03:25.000Z</time>
      </trkpt>
      <trkpt lat="46.18062" lon="6.7707">
        <ele>1779.8000488281</ele>
        <time>2016-02-27T09:03:30.000Z</time>
      </trkpt>
      <trkpt lat="46.18044" lon="6.77082">
        <ele>1784.4000244141</ele>
        <time>2016-02-27T09:03:35.000Z</time>
      </trkpt>
      <trkpt lat="46.18025" lon="6.77096">
        <ele>1789.5999755859</ele>
        <time>2016-02-27T09:03:42.000Z</time>
      </trkpt>
      <trkpt lat="46.18008" lon="6.77106">
        <ele>1794.1999511719</ele>
        <time>2016-02-27T09:03:48.000Z</time>
      </trkpt>
      <trkpt lat="46.17992" lon="6.77119">
        <ele>1800.5999755859</ele>
        <time>2016-02-27T09:03:53.000Z</time>
      </trkpt>
      <trkpt lat="46.17975" lon="6.7713">
        <ele>1807.1999511719</ele>
        <time>2016-02-27T09:03:58.000Z</time>
      </trkpt>
      <trkpt lat="46.17958" lon="6.77143">
        <ele>1814</ele>
        <time>2016-02-27T09:04:03.000Z</time>
      </trkpt>
      <trkpt lat="46.17941" lon="6.77154">
        <ele>1817.8000488281</ele>
        <time>2016-02-27T09:04:08.000Z</time>
      </trkpt>
      <trkpt lat="46.17924" lon="6.77166">
        <ele>1824.4000244141</ele>
        <time>2016-02-27T09:04:13.000Z</time>
      </trkpt>
      <trkpt lat="46.17906" lon="6.77178">
        <ele>1832.5999755859</ele>
        <time>2016-02-27T09:04:18.000Z</time>
      </trkpt>
      <trkpt lat="46.17888" lon="6.77191">
        <ele>1843.1999511719</ele>
        <time>2016-02-27T09:04:23.000Z</time>
      </trkpt>
      <trkpt lat="46.17855" lon="6.77216">
        <ele>1859.4000244141</ele>
        <time>2016-02-27T09:04:32.000Z</time>
      </trkpt>
      <trkpt lat="46.17837" lon="6.77231">
        <ele>1864.1999511719</ele>
        <time>2016-02-27T09:04:37.000Z</time>
      </trkpt>
      <trkpt lat="46.17818" lon="6.77243">
        <ele>1869</ele>
        <time>2016-02-27T09:04:42.000Z</time>
      </trkpt>
      <trkpt lat="46.17801" lon="6.77254">
        <ele>1875.8000488281</ele>
        <time>2016-02-27T09:04:47.000Z</time>
      </trkpt>
      <trkpt lat="46.17782" lon="6.77265">
        <ele>1884</ele>
        <time>2016-02-27T09:04:53.000Z</time>
      </trkpt>
      <trkpt lat="46.17765" lon="6.77278">
        <ele>1892.5999755859</ele>
        <time>2016-02-27T09:04:58.000Z</time>
      </trkpt>
      <trkpt lat="46.17747" lon="6.77292">
        <ele>1898.4000244141</ele>
        <time>2016-02-27T09:05:03.000Z</time>
      </trkpt>
      <trkpt lat="46.17731" lon="6.77304">
        <ele>1903.8000488281</ele>
        <time>2016-02-27T09:05:07.000Z</time>
      </trkpt>
      <trkpt lat="46.17712" lon="6.77318">
        <ele>1912</ele>
        <time>2016-02-27T09:05:12.000Z</time>
      </trkpt>
      <trkpt lat="46.17694" lon="6.77331">
        <ele>1920</ele>
        <time>2016-02-27T09:05:17.000Z</time>
      </trkpt>
      <trkpt lat="46.17676" lon="6.77341">
        <ele>1927</ele>
        <time>2016-02-27T09:05:22.000Z</time>
      </trkpt>
      <trkpt lat="46.17659" lon="6.77353">
        <ele>1935.1999511719</ele>
        <time>2016-02-27T09:05:27.000Z</time>
      </trkpt>
      <trkpt lat="46.17641" lon="6.77367">
        <ele>1945.5999755859</ele>
        <time>2016-02-27T09:05:32.000Z</time>
      </trkpt>
      <trkpt lat="46.17607" lon="6.77395">
        <ele>1968.1999511719</ele>
        <time>2016-02-27T09:05:42.000Z</time>
      </trkpt>
      <trkpt lat="46.17587" lon="6.77407">
        <ele>1976.8000488281</ele>
        <time>2016-02-27T09:05:47.000Z</time>
      </trkpt>
      <trkpt lat="46.17566" lon="6.77417">
        <ele>1986.8000488281</ele>
        <time>2016-02-27T09:05:52.000Z</time>
      </trkpt>
      <trkpt lat="46.17546" lon="6.77431">
        <ele>2000.1999511719</ele>
        <time>2016-02-27T09:05:58.000Z</time>
      </trkpt>
      <trkpt lat="46.17529" lon="6.77444">
        <ele>2014</ele>
        <time>2016-02-27T09:06:04.000Z</time>
      </trkpt>
      <trkpt lat="46.17512" lon="6.77455">
        <ele>2024</ele>
        <time>2016-02-27T09:06:10.000Z</time>
      </trkpt>
      <trkpt lat="46.17496" lon="6.77467">
        <ele>2030.8000488281</ele>
        <time>2016-02-27T09:06:16.000Z</time>
      </trkpt>
      <trkpt lat="46.17478" lon="6.77479">
        <ele>2037.8000488281</ele>
        <time>2016-02-27T09:06:22.000Z</time>
      </trkpt>
      <trkpt lat="46.17461" lon="6.77492">
        <ele>2053.3999023438</ele>
        <time>2016-02-27T09:06:28.000Z</time>
      </trkpt>
      <trkpt lat="46.17431" lon="6.7752">
        <ele>2084.6000976562</ele>
        <time>2016-02-27T09:06:38.000Z</time>
      </trkpt>
      <trkpt lat="46.17414" lon="6.7753">
        <ele>2096.8000488281</ele>
        <time>2016-02-27T09:06:43.000Z</time>
      </trkpt>
      <trkpt lat="46.17397" lon="6.77541">
        <ele>2109</ele>
        <time>2016-02-27T09:06:48.000Z</time>
      </trkpt>
      <trkpt lat="46.1738" lon="6.7756">
        <ele>2121.1999511719</ele>
        <time>2016-02-27T09:06:53.000Z</time>
      </trkpt>
      <trkpt lat="46.17363" lon="6.77572">
        <ele>2129.1999511719</ele>
        <time>2016-02-27T09:06:58.000Z</time>
      </trkpt>
      <trkpt lat="46.17346" lon="6.77583">
        <ele>2138.1999511719</ele>
        <time>2016-02-27T09:07:03.000Z</time>
      </trkpt>
      <trkpt lat="46.17328" lon="6.77597">
        <ele>2148</ele>
        <time>2016-02-27T09:07:08.000Z</time>
      </trkpt>
      <trkpt lat="46.17311" lon="6.77609">
        <ele>2156.3999023438</ele>
        <time>2016-02-27T09:07:13.000Z</time>
      </trkpt>
      <trkpt lat="46.17292" lon="6.77617">
        <ele>2166.6000976562</ele>
        <time>2016-02-27T09:07:18.000Z</time>
      </trkpt>
      <trkpt lat="46.17275" lon="6.77627">
        <ele>2175.1999511719</ele>
        <time>2016-02-27T09:07:23.000Z</time>
      </trkpt>
      <trkpt lat="46.17243" lon="6.77649">
        <ele>2184.8000488281</ele>
        <time>2016-02-27T09:07:32.000Z</time>
      </trkpt>
      <trkpt lat="46.17226" lon="6.77663">
        <ele>2189.8000488281</ele>
        <time>2016-02-27T09:07:37.000Z</time>
      </trkpt>
      <trkpt lat="46.1721" lon="6.77678">
        <ele>2196.1999511719</ele>
        <time>2016-02-27T09:07:46.000Z</time>
      </trkpt>
      <trkpt lat="46.17209" lon="6.77679">
        <ele>2196.6000976562</ele>
        <time>2016-02-27T09:07:47.000Z</time>
      </trkpt>
      <trkpt lat="46.17211" lon="6.77687">
        <ele>2196.6000976562</ele>
        <time>2016-02-27T09:07:53.000Z</time>
      </trkpt>
      <trkpt lat="46.17216" lon="6.77704">
        <ele>2195.6000976562</ele>
        <time>2016-02-27T09:08:10.000Z</time>
      </trkpt>
      <trkpt lat="46.17224" lon="6.77724">
        <ele>2193.8000488281</ele>
        <time>2016-02-27T09:08:24.000Z</time>
      </trkpt>
      <trkpt lat="46.17229" lon="6.77741">
        <ele>2192.8000488281</ele>
        <time>2016-02-27T09:08:30.000Z</time>
      </trkpt>
      <trkpt lat="46.17233" lon="6.77768">
        <ele>2192.1999511719</ele>
        <time>2016-02-27T09:08:39.000Z</time>
      </trkpt>
      <trkpt lat="46.17235" lon="6.77796">
        <ele>2192</ele>
        <time>2016-02-27T09:08:50.000Z</time>
      </trkpt>
      <trkpt lat="46.17234" lon="6.77804">
        <ele>2192</ele>
        <time>2016-02-27T09:08:53.000Z</time>
      </trkpt>
      <trkpt lat="46.17234" lon="6.77817">
        <ele>2192</ele>
        <time>2016-02-27T09:08:58.000Z</time>
      </trkpt>
      <trkpt lat="46.1723" lon="6.77842">
        <ele>2188</ele>
        <time>2016-02-27T09:09:09.000Z</time>
      </trkpt>
      <trkpt lat="46.17229" lon="6.77855">
        <ele>2186</ele>
        <time>2016-02-27T09:09:15.000Z</time>
      </trkpt>
      <trkpt lat="46.1722" lon="6.77877">
        <ele>2184</ele>
        <time>2016-02-27T09:10:02.000Z</time>
      </trkpt>
      <trkpt lat="46.17214" lon="6.77895">
        <ele>2182</ele>
        <time>2016-02-27T09:10:05.000Z</time>
      </trkpt>
      <trkpt lat="46.17207" lon="6.77925">
        <ele>2178.8000488281</ele>
        <time>2016-02-27T09:10:08.000Z</time>
      </trkpt>
      <trkpt lat="46.17205" lon="6.77961">
        <ele>2173.3999023438</ele>
        <time>2016-02-27T09:10:11.000Z</time>
      </trkpt>
      <trkpt lat="46.17207" lon="6.77994">
        <ele>2169.3999023438</ele>
        <time>2016-02-27T09:10:14.000Z</time>
      </trkpt>
      <trkpt lat="46.1721" lon="6.78025">
        <ele>2168.8000488281</ele>
        <time>2016-02-27T09:10:17.000Z</time>
      </trkpt>
      <trkpt lat="46.17214" lon="6.78048">
        <ele>2168</ele>
        <time>2016-02-27T09:10:19.000Z</time>
      </trkpt>
      <trkpt lat="46.1722" lon="6.78073">
        <ele>2166.1999511719</ele>
        <time>2016-02-27T09:10:21.000Z</time>
      </trkpt>
      <trkpt lat="46.1723" lon="6.78096">
        <ele>2163</ele>
        <time>2016-02-27T09:10:23.000Z</time>
      </trkpt>
      <trkpt lat="46.17242" lon="6.78118">
        <ele>2160.8000488281</ele>
        <time>2016-02-27T09:10:25.000Z</time>
      </trkpt>
      <trkpt lat="46.17253" lon="6.78138">
        <ele>2158.8000488281</ele>
        <time>2016-02-27T09:10:27.000Z</time>
      </trkpt>
      <trkpt lat="46.17258" lon="6.78149">
        <ele>2157.8000488281</ele>
        <time>2016-02-27T09:10:28.000Z</time>
      </trkpt>
      <trkpt lat="46.17265" lon="6.7817">
        <ele>2154.6000976562</ele>
        <time>2016-02-27T09:10:30.000Z</time>
      </trkpt>
      <trkpt lat="46.17274" lon="6.78192">
        <ele>2150.3999023438</ele>
        <time>2016-02-27T09:10:33.000Z</time>
      </trkpt>
      <trkpt lat="46.17278" lon="6.78198">
        <ele>2149.1999511719</ele>
        <time>2016-02-27T09:10:34.000Z</time>
      </trkpt>
      <trkpt lat="46.17291" lon="6.78212">
        <ele>2145.3999023438</ele>
        <time>2016-02-27T09:10:42.000Z</time>
      </trkpt>
      <trkpt lat="46.17296" lon="6.78223">
        <ele>2143.1999511719</ele>
        <time>2016-02-27T09:11:06.000Z</time>
      </trkpt>
      <trkpt lat="46.17315" lon="6.78235">
        <ele>2138.3999023438</ele>
        <time>2016-02-27T09:11:11.000Z</time>
      </trkpt>
      <trkpt lat="46.17322" lon="6.78261">
        <ele>2131</ele>
        <time>2016-02-27T09:11:14.000Z</time>
      </trkpt>
      <trkpt lat="46.17328" lon="6.78293">
        <ele>2123.1999511719</ele>
        <time>2016-02-27T09:11:17.000Z</time>
      </trkpt>
      <trkpt lat="46.1733" lon="6.78303">
        <ele>2120.3999023438</ele>
        <time>2016-02-27T09:11:18.000Z</time>
      </trkpt>
      <trkpt lat="46.17337" lon="6.78338">
        <ele>2113</ele>
        <time>2016-02-27T09:11:21.000Z</time>
      </trkpt>
      <trkpt lat="46.1734" lon="6.78362">
        <ele>2110.6000976562</ele>
        <time>2016-02-27T09:11:23.000Z</time>
      </trkpt>
      <trkpt lat="46.17344" lon="6.78372">
        <ele>2109</ele>
        <time>2016-02-27T09:11:24.000Z</time>
      </trkpt>
      <trkpt lat="46.17357" lon="6.78402">
        <ele>2102.6000976562</ele>
        <time>2016-02-27T09:11:27.000Z</time>
      </trkpt>
      <trkpt lat="46.17375" lon="6.78419">
        <ele>2093</ele>
        <time>2016-02-27T09:11:30.000Z</time>
      </trkpt>
      <trkpt lat="46.174" lon="6.78415">
        <ele>2082.3999023438</ele>
        <time>2016-02-27T09:11:33.000Z</time>
      </trkpt>
      <trkpt lat="46.17417" lon="6.78391">
        <ele>2078</ele>
        <time>2016-02-27T09:11:36.000Z</time>
      </trkpt>
      <trkpt lat="46.17423" lon="6.78383">
        <ele>2076.3999023438</ele>
        <time>2016-02-27T09:11:37.000Z</time>
      </trkpt>
      <trkpt lat="46.17442" lon="6.7836">
        <ele>2071.3999023438</ele>
        <time>2016-02-27T09:11:40.000Z</time>
      </trkpt>
      <trkpt lat="46.17456" lon="6.78339">
        <ele>2068.8000488281</ele>
        <time>2016-02-27T09:11:43.000Z</time>
      </trkpt>
      <trkpt lat="46.17463" lon="6.78332">
        <ele>2067.1999511719</ele>
        <time>2016-02-27T09:11:44.000Z</time>
      </trkpt>
      <trkpt lat="46.17481" lon="6.78321">
        <ele>2062.3999023438</ele>
        <time>2016-02-27T09:11:46.000Z</time>
      </trkpt>
      <trkpt lat="46.17493" lon="6.78319">
        <ele>2060.3999023438</ele>
        <time>2016-02-27T09:11:47.000Z</time>
      </trkpt>
      <trkpt lat="46.17519" lon="6.78322">
        <ele>2055</ele>
        <time>2016-02-27T09:11:49.000Z</time>
      </trkpt>
      <trkpt lat="46.17549" lon="6.78325">
        <ele>2048.6000976562</ele>
        <time>2016-02-27T09:11:51.000Z</time>
      </trkpt>
      <trkpt lat="46.17564" lon="6.78325">
        <ele>2045.8000488281</ele>
        <time>2016-02-27T09:11:52.000Z</time>
      </trkpt>
      <trkpt lat="46.17592" lon="6.78333">
        <ele>2038.5999755859</ele>
        <time>2016-02-27T09:11:54.000Z</time>
      </trkpt>
      <trkpt lat="46.1762" lon="6.7834">
        <ele>2031.8000488281</ele>
        <time>2016-02-27T09:11:56.000Z</time>
      </trkpt>
      <trkpt lat="46.17635" lon="6.78339">
        <ele>2029</ele>
        <time>2016-02-27T09:11:57.000Z</time>
      </trkpt>
      <trkpt lat="46.17648" lon="6.7834">
        <ele>2025.8000488281</ele>
        <time>2016-02-27T09:11:58.000Z</time>
      </trkpt>
      <trkpt lat="46.17674" lon="6.78341">
        <ele>2020.1999511719</ele>
        <time>2016-02-27T09:12:00.000Z</time>
      </trkpt>
      <trkpt lat="46.17697" lon="6.78342">
        <ele>2015</ele>
        <time>2016-02-27T09:12:02.000Z</time>
      </trkpt>
      <trkpt lat="46.17707" lon="6.78342">
        <ele>2013</ele>
        <time>2016-02-27T09:12:03.000Z</time>
      </trkpt>
      <trkpt lat="46.17717" lon="6.7834">
        <ele>2011</ele>
        <time>2016-02-27T09:12:04.000Z</time>
      </trkpt>
      <trkpt lat="46.17742" lon="6.78332">
        <ele>2007.1999511719</ele>
        <time>2016-02-27T09:12:07.000Z</time>
      </trkpt>
      <trkpt lat="46.17749" lon="6.7833">
        <ele>2005.5999755859</ele>
        <time>2016-02-27T09:12:08.000Z</time>
      </trkpt>
      <trkpt lat="46.17764" lon="6.78321">
        <ele>2002.4000244141</ele>
        <time>2016-02-27T09:12:10.000Z</time>
      </trkpt>
      <trkpt lat="46.17786" lon="6.78308">
        <ele>1997.1999511719</ele>
        <time>2016-02-27T09:12:13.000Z</time>
      </trkpt>
      <trkpt lat="46.17804" lon="6.78296">
        <ele>1992.1999511719</ele>
        <time>2016-02-27T09:12:16.000Z</time>
      </trkpt>
      <trkpt lat="46.17821" lon="6.78291">
        <ele>1987.5999755859</ele>
        <time>2016-02-27T09:12:56.000Z</time>
      </trkpt>
      <trkpt lat="46.17838" lon="6.7828">
        <ele>1983.4000244141</ele>
        <time>2016-02-27T09:12:58.000Z</time>
      </trkpt>
      <trkpt lat="46.17856" lon="6.78271">
        <ele>1978.8000488281</ele>
        <time>2016-02-27T09:13:00.000Z</time>
      </trkpt>
      <trkpt lat="46.17878" lon="6.78262">
        <ele>1973.1999511719</ele>
        <time>2016-02-27T09:13:03.000Z</time>
      </trkpt>
      <trkpt lat="46.179" lon="6.78254">
        <ele>1967.4000244141</ele>
        <time>2016-02-27T09:13:06.000Z</time>
      </trkpt>
      <trkpt lat="46.17918" lon="6.78246">
        <ele>1963.5999755859</ele>
        <time>2016-02-27T09:13:08.000Z</time>
      </trkpt>
      <trkpt lat="46.17928" lon="6.78244">
        <ele>1961.8000488281</ele>
        <time>2016-02-27T09:13:09.000Z</time>
      </trkpt>
      <trkpt lat="46.17951" lon="6.78237">
        <ele>1958.1999511719</ele>
        <time>2016-02-27T09:13:11.000Z</time>
      </trkpt>
      <trkpt lat="46.17971" lon="6.78217">
        <ele>1954.1999511719</ele>
        <time>2016-02-27T09:13:13.000Z</time>
      </trkpt>
      <trkpt lat="46.1798" lon="6.7821">
        <ele>1952</ele>
        <time>2016-02-27T09:13:14.000Z</time>
      </trkpt>
      <trkpt lat="46.17996" lon="6.78193">
        <ele>1947.1999511719</ele>
        <time>2016-02-27T09:13:16.000Z</time>
      </trkpt>
      <trkpt lat="46.18018" lon="6.78172">
        <ele>1944.1999511719</ele>
        <time>2016-02-27T09:13:19.000Z</time>
      </trkpt>
      <trkpt lat="46.18031" lon="6.7816">
        <ele>1944.1999511719</ele>
        <time>2016-02-27T09:13:21.000Z</time>
      </trkpt>
      <trkpt lat="46.18033" lon="6.78149">
        <ele>1944.1999511719</ele>
        <time>2016-02-27T09:14:50.000Z</time>
      </trkpt>
      <trkpt lat="46.18033" lon="6.78156">
        <ele>1944.5999755859</ele>
        <time>2016-02-27T09:18:04.000Z</time>
      </trkpt>
      <trkpt lat="46.18036" lon="6.78144">
        <ele>1943.5999755859</ele>
        <time>2016-02-27T09:20:06.000Z</time>
      </trkpt>
      <trkpt lat="46.18038" lon="6.78114">
        <ele>1941.8000488281</ele>
        <time>2016-02-27T09:20:11.000Z</time>
      </trkpt>
      <trkpt lat="46.18044" lon="6.78086">
        <ele>1940.1999511719</ele>
        <time>2016-02-27T09:20:14.000Z</time>
      </trkpt>
      <trkpt lat="46.18053" lon="6.78055">
        <ele>1937.5999755859</ele>
        <time>2016-02-27T09:20:17.000Z</time>
      </trkpt>
      <trkpt lat="46.18061" lon="6.78035">
        <ele>1935</ele>
        <time>2016-02-27T09:20:19.000Z</time>
      </trkpt>
      <trkpt lat="46.1808" lon="6.78017">
        <ele>1929.8000488281</ele>
        <time>2016-02-27T09:20:22.000Z</time>
      </trkpt>
      <trkpt lat="46.18094" lon="6.78018">
        <ele>1927.4000244141</ele>
        <time>2016-02-27T09:20:24.000Z</time>
      </trkpt>
      <trkpt lat="46.18116" lon="6.78022">
        <ele>1924.8000488281</ele>
        <time>2016-02-27T09:20:27.000Z</time>
      </trkpt>
      <trkpt lat="46.18137" lon="6.78031">
        <ele>1922.4000244141</ele>
        <time>2016-02-27T09:20:30.000Z</time>
      </trkpt>
      <trkpt lat="46.1815" lon="6.78036">
        <ele>1920.5999755859</ele>
        <time>2016-02-27T09:20:32.000Z</time>
      </trkpt>
      <trkpt lat="46.18171" lon="6.78034">
        <ele>1916.8000488281</ele>
        <time>2016-02-27T09:20:35.000Z</time>
      </trkpt>
      <trkpt lat="46.18192" lon="6.78019">
        <ele>1916</ele>
        <time>2016-02-27T09:20:38.000Z</time>
      </trkpt>
      <trkpt lat="46.18204" lon="6.78006">
        <ele>1918.5999755859</ele>
        <time>2016-02-27T09:20:40.000Z</time>
      </trkpt>
      <trkpt lat="46.18222" lon="6.77985">
        <ele>1921.4000244141</ele>
        <time>2016-02-27T09:20:43.000Z</time>
      </trkpt>
      <trkpt lat="46.18237" lon="6.77963">
        <ele>1916.4000244141</ele>
        <time>2016-02-27T09:20:46.000Z</time>
      </trkpt>
      <trkpt lat="46.18251" lon="6.77939">
        <ele>1910.1999511719</ele>
        <time>2016-02-27T09:20:49.000Z</time>
      </trkpt>
      <trkpt lat="46.18271" lon="6.77929">
        <ele>1907.1999511719</ele>
        <time>2016-02-27T09:20:52.000Z</time>
      </trkpt>
      <trkpt lat="46.18284" lon="6.77931">
        <ele>1906.4000244141</ele>
        <time>2016-02-27T09:20:54.000Z</time>
      </trkpt>
      <trkpt lat="46.1829" lon="6.77931">
        <ele>1906</ele>
        <time>2016-02-27T09:20:55.000Z</time>
      </trkpt>
      <trkpt lat="46.18308" lon="6.77925">
        <ele>1905</ele>
        <time>2016-02-27T09:20:58.000Z</time>
      </trkpt>
      <trkpt lat="46.18328" lon="6.77931">
        <ele>1897.5999755859</ele>
        <time>2016-02-27T09:21:01.000Z</time>
      </trkpt>
      <trkpt lat="46.18336" lon="6.77938">
        <ele>1894</ele>
        <time>2016-02-27T09:21:06.000Z</time>
      </trkpt>
      <trkpt lat="46.18336" lon="6.77938">
        <ele>1894</ele>
        <time>2016-02-27T09:21:07.000Z</time>
      </trkpt>
      <trkpt lat="46.18343" lon="6.77967">
        <ele>1890.4000244141</ele>
        <time>2016-02-27T09:21:27.000Z</time>
      </trkpt>
      <trkpt lat="46.18347" lon="6.77972">
        <ele>1888.8000488281</ele>
        <time>2016-02-27T09:21:28.000Z</time>
      </trkpt>
      <trkpt lat="46.18355" lon="6.77983">
        <ele>1885.1999511719</ele>
        <time>2016-02-27T09:21:30.000Z</time>
      </trkpt>
      <trkpt lat="46.18367" lon="6.78002">
        <ele>1875.4000244141</ele>
        <time>2016-02-27T09:21:34.000Z</time>
      </trkpt>
      <trkpt lat="46.1837" lon="6.78009">
        <ele>1871.4000244141</ele>
        <time>2016-02-27T09:21:38.000Z</time>
      </trkpt>
      <trkpt lat="46.18359" lon="6.78032">
        <ele>1868.8000488281</ele>
        <time>2016-02-27T09:22:09.000Z</time>
      </trkpt>
      <trkpt lat="46.18356" lon="6.78039">
        <ele>1868.1999511719</ele>
        <time>2016-02-27T09:22:10.000Z</time>
      </trkpt>
      <trkpt lat="46.18345" lon="6.78062">
        <ele>1868.5999755859</ele>
        <time>2016-02-27T09:22:13.000Z</time>
      </trkpt>
      <trkpt lat="46.18331" lon="6.78091">
        <ele>1866.4000244141</ele>
        <time>2016-02-27T09:22:16.000Z</time>
      </trkpt>
      <trkpt lat="46.1831" lon="6.78117">
        <ele>1867.5999755859</ele>
        <time>2016-02-27T09:22:19.000Z</time>
      </trkpt>
      <trkpt lat="46.18302" lon="6.78124">
        <ele>1867.1999511719</ele>
        <time>2016-02-27T09:22:20.000Z</time>
      </trkpt>
      <trkpt lat="46.18286" lon="6.78139">
        <ele>1866.4000244141</ele>
        <time>2016-02-27T09:22:22.000Z</time>
      </trkpt>
      <trkpt lat="46.18274" lon="6.78162">
        <ele>1862</ele>
        <time>2016-02-27T09:22:24.000Z</time>
      </trkpt>
      <trkpt lat="46.18268" lon="6.78175">
        <ele>1857.8000488281</ele>
        <time>2016-02-27T09:22:25.000Z</time>
      </trkpt>
      <trkpt lat="46.18255" lon="6.78195">
        <ele>1854.4000244141</ele>
        <time>2016-02-27T09:22:27.000Z</time>
      </trkpt>
      <trkpt lat="46.18248" lon="6.78206">
        <ele>1853</ele>
        <time>2016-02-27T09:22:28.000Z</time>
      </trkpt>
      <trkpt lat="46.18235" lon="6.78228">
        <ele>1849.1999511719</ele>
        <time>2016-02-27T09:22:30.000Z</time>
      </trkpt>
      <trkpt lat="46.18221" lon="6.7825">
        <ele>1845.8000488281</ele>
        <time>2016-02-27T09:22:32.000Z</time>
      </trkpt>
      <trkpt lat="46.18207" lon="6.7827">
        <ele>1843.1999511719</ele>
        <time>2016-02-27T09:22:34.000Z</time>
      </trkpt>
      <trkpt lat="46.18194" lon="6.7829">
        <ele>1840.4000244141</ele>
        <time>2016-02-27T09:22:36.000Z</time>
      </trkpt>
      <trkpt lat="46.18183" lon="6.7831">
        <ele>1840.4000244141</ele>
        <time>2016-02-27T09:22:38.000Z</time>
      </trkpt>
      <trkpt lat="46.1817" lon="6.78343">
        <ele>1834.8000488281</ele>
        <time>2016-02-27T09:22:41.000Z</time>
      </trkpt>
      <trkpt lat="46.18159" lon="6.78374">
        <ele>1828.5999755859</ele>
        <time>2016-02-27T09:22:44.000Z</time>
      </trkpt>
      <trkpt lat="46.18146" lon="6.78401">
        <ele>1824.8000488281</ele>
        <time>2016-02-27T09:22:47.000Z</time>
      </trkpt>
      <trkpt lat="46.18134" lon="6.78422">
        <ele>1820.1999511719</ele>
        <time>2016-02-27T09:22:50.000Z</time>
      </trkpt>
      <trkpt lat="46.18117" lon="6.78442">
        <ele>1817.4000244141</ele>
        <time>2016-02-27T09:22:54.000Z</time>
      </trkpt>
      <trkpt lat="46.18109" lon="6.78443">
        <ele>1820.4000244141</ele>
        <time>2016-02-27T09:22:58.000Z</time>
      </trkpt>
      <trkpt lat="46.18094" lon="6.78451">
        <ele>1822.8000488281</ele>
        <time>2016-02-27T09:23:12.000Z</time>
      </trkpt>
      <trkpt lat="46.18079" lon="6.7847">
        <ele>1820.8000488281</ele>
        <time>2016-02-27T09:23:16.000Z</time>
      </trkpt>
      <trkpt lat="46.18065" lon="6.78485">
        <ele>1820.1999511719</ele>
        <time>2016-02-27T09:23:19.000Z</time>
      </trkpt>
      <trkpt lat="46.18048" lon="6.78499">
        <ele>1821.5999755859</ele>
        <time>2016-02-27T09:23:22.000Z</time>
      </trkpt>
      <trkpt lat="46.1803" lon="6.78516">
        <ele>1823.4000244141</ele>
        <time>2016-02-27T09:23:26.000Z</time>
      </trkpt>
      <trkpt lat="46.18012" lon="6.78529">
        <ele>1825.8000488281</ele>
        <time>2016-02-27T09:23:31.000Z</time>
      </trkpt>
      <trkpt lat="46.17996" lon="6.78546">
        <ele>1823.8000488281</ele>
        <time>2016-02-27T09:23:35.000Z</time>
      </trkpt>
      <trkpt lat="46.1798" lon="6.78563">
        <ele>1822.4000244141</ele>
        <time>2016-02-27T09:23:39.000Z</time>
      </trkpt>
      <trkpt lat="46.17973" lon="6.78569">
        <ele>1823.5999755859</ele>
        <time>2016-02-27T09:23:41.000Z</time>
      </trkpt>
      <trkpt lat="46.1796" lon="6.78586">
        <ele>1825.4000244141</ele>
        <time>2016-02-27T09:23:45.000Z</time>
      </trkpt>
      <trkpt lat="46.17946" lon="6.78609">
        <ele>1826.1999511719</ele>
        <time>2016-02-27T09:23:49.000Z</time>
      </trkpt>
      <trkpt lat="46.17938" lon="6.78627">
        <ele>1824</ele>
        <time>2016-02-27T09:23:52.000Z</time>
      </trkpt>
      <trkpt lat="46.17923" lon="6.78651">
        <ele>1819</ele>
        <time>2016-02-27T09:23:57.000Z</time>
      </trkpt>
      <trkpt lat="46.17888" lon="6.78739">
        <ele>1816.1999511719</ele>
        <time>2016-02-27T09:24:11.000Z</time>
      </trkpt>
      <trkpt lat="46.17888" lon="6.78764">
        <ele>1813</ele>
        <time>2016-02-27T09:24:16.000Z</time>
      </trkpt>
      <trkpt lat="46.17894" lon="6.78796">
        <ele>1807.1999511719</ele>
        <time>2016-02-27T09:24:21.000Z</time>
      </trkpt>
      <trkpt lat="46.17899" lon="6.78818">
        <ele>1802.8000488281</ele>
        <time>2016-02-27T09:24:24.000Z</time>
      </trkpt>
      <trkpt lat="46.17908" lon="6.78848">
        <ele>1804.4000244141</ele>
        <time>2016-02-27T09:24:28.000Z</time>
      </trkpt>
      <trkpt lat="46.17912" lon="6.7885">
        <ele>1803.8000488281</ele>
        <time>2016-02-27T09:24:30.000Z</time>
      </trkpt>
      <trkpt lat="46.17901" lon="6.78836">
        <ele>1804.4000244141</ele>
        <time>2016-02-27T09:25:02.000Z</time>
      </trkpt>
      <trkpt lat="46.17886" lon="6.78833">
        <ele>1808.5999755859</ele>
        <time>2016-02-27T09:25:51.000Z</time>
      </trkpt>
      <trkpt lat="46.17867" lon="6.78844">
        <ele>1816.5999755859</ele>
        <time>2016-02-27T09:25:57.000Z</time>
      </trkpt>
      <trkpt lat="46.17847" lon="6.78852">
        <ele>1824.5999755859</ele>
        <time>2016-02-27T09:26:02.000Z</time>
      </trkpt>
      <trkpt lat="46.17821" lon="6.78863">
        <ele>1831.1999511719</ele>
        <time>2016-02-27T09:26:09.000Z</time>
      </trkpt>
      <trkpt lat="46.17807" lon="6.7887">
        <ele>1835</ele>
        <time>2016-02-27T09:26:13.000Z</time>
      </trkpt>
      <trkpt lat="46.17803" lon="6.78872">
        <ele>1836.1999511719</ele>
        <time>2016-02-27T09:26:14.000Z</time>
      </trkpt>
      <trkpt lat="46.17784" lon="6.78879">
        <ele>1842.1999511719</ele>
        <time>2016-02-27T09:26:20.000Z</time>
      </trkpt>
      <trkpt lat="46.17766" lon="6.78888">
        <ele>1846.5999755859</ele>
        <time>2016-02-27T09:26:26.000Z</time>
      </trkpt>
      <trkpt lat="46.17746" lon="6.78897">
        <ele>1851.5999755859</ele>
        <time>2016-02-27T09:26:32.000Z</time>
      </trkpt>
      <trkpt lat="46.17727" lon="6.78905">
        <ele>1856.1999511719</ele>
        <time>2016-02-27T09:26:37.000Z</time>
      </trkpt>
      <trkpt lat="46.17708" lon="6.78913">
        <ele>1859.5999755859</ele>
        <time>2016-02-27T09:26:42.000Z</time>
      </trkpt>
      <trkpt lat="46.17688" lon="6.78923">
        <ele>1863</ele>
        <time>2016-02-27T09:26:48.000Z</time>
      </trkpt>
      <trkpt lat="46.17669" lon="6.78931">
        <ele>1866.4000244141</ele>
        <time>2016-02-27T09:26:53.000Z</time>
      </trkpt>
      <trkpt lat="46.17649" lon="6.78939">
        <ele>1869</ele>
        <time>2016-02-27T09:26:58.000Z</time>
      </trkpt>
      <trkpt lat="46.17629" lon="6.78947">
        <ele>1871.5999755859</ele>
        <time>2016-02-27T09:27:03.000Z</time>
      </trkpt>
      <trkpt lat="46.17606" lon="6.78956">
        <ele>1875.4000244141</ele>
        <time>2016-02-27T09:27:09.000Z</time>
      </trkpt>
      <trkpt lat="46.17587" lon="6.78964">
        <ele>1879</ele>
        <time>2016-02-27T09:27:14.000Z</time>
      </trkpt>
      <trkpt lat="46.17567" lon="6.78972">
        <ele>1882.8000488281</ele>
        <time>2016-02-27T09:27:19.000Z</time>
      </trkpt>
      <trkpt lat="46.17547" lon="6.78979">
        <ele>1886.8000488281</ele>
        <time>2016-02-27T09:27:24.000Z</time>
      </trkpt>
      <trkpt lat="46.17528" lon="6.78986">
        <ele>1890.1999511719</ele>
        <time>2016-02-27T09:27:29.000Z</time>
      </trkpt>
      <trkpt lat="46.17508" lon="6.78992">
        <ele>1893.4000244141</ele>
        <time>2016-02-27T09:27:34.000Z</time>
      </trkpt>
      <trkpt lat="46.17489" lon="6.79">
        <ele>1896.4000244141</ele>
        <time>2016-02-27T09:27:39.000Z</time>
      </trkpt>
      <trkpt lat="46.1747" lon="6.79007">
        <ele>1899.8000488281</ele>
        <time>2016-02-27T09:27:44.000Z</time>
      </trkpt>
      <trkpt lat="46.1745" lon="6.79014">
        <ele>1903.5999755859</ele>
        <time>2016-02-27T09:27:49.000Z</time>
      </trkpt>
      <trkpt lat="46.17431" lon="6.79022">
        <ele>1907</ele>
        <time>2016-02-27T09:27:54.000Z</time>
      </trkpt>
      <trkpt lat="46.17412" lon="6.7903">
        <ele>1911</ele>
        <time>2016-02-27T09:27:59.000Z</time>
      </trkpt>
      <trkpt lat="46.17392" lon="6.79039">
        <ele>1915</ele>
        <time>2016-02-27T09:28:04.000Z</time>
      </trkpt>
      <trkpt lat="46.17373" lon="6.79047">
        <ele>1920</ele>
        <time>2016-02-27T09:28:09.000Z</time>
      </trkpt>
      <trkpt lat="46.17354" lon="6.79054">
        <ele>1924.8000488281</ele>
        <time>2016-02-27T09:28:14.000Z</time>
      </trkpt>
      <trkpt lat="46.17315" lon="6.79068">
        <ele>1934.4000244141</ele>
        <time>2016-02-27T09:28:24.000Z</time>
      </trkpt>
      <trkpt lat="46.17297" lon="6.79076">
        <ele>1940</ele>
        <time>2016-02-27T09:28:29.000Z</time>
      </trkpt>
      <trkpt lat="46.17278" lon="6.79084">
        <ele>1946.4000244141</ele>
        <time>2016-02-27T09:28:34.000Z</time>
      </trkpt>
      <trkpt lat="46.17259" lon="6.7909">
        <ele>1953.1999511719</ele>
        <time>2016-02-27T09:28:39.000Z</time>
      </trkpt>
      <trkpt lat="46.17241" lon="6.79097">
        <ele>1959.4000244141</ele>
        <time>2016-02-27T09:28:44.000Z</time>
      </trkpt>
      <trkpt lat="46.17223" lon="6.79104">
        <ele>1965.1999511719</ele>
        <time>2016-02-27T09:28:49.000Z</time>
      </trkpt>
      <trkpt lat="46.17204" lon="6.79111">
        <ele>1970.4000244141</ele>
        <time>2016-02-27T09:28:54.000Z</time>
      </trkpt>
      <trkpt lat="46.17184" lon="6.79118">
        <ele>1977.5999755859</ele>
        <time>2016-02-27T09:28:59.000Z</time>
      </trkpt>
      <trkpt lat="46.17153" lon="6.79132">
        <ele>1995.5999755859</ele>
        <time>2016-02-27T09:29:07.000Z</time>
      </trkpt>
      <trkpt lat="46.17134" lon="6.7914">
        <ele>2003</ele>
        <time>2016-02-27T09:29:12.000Z</time>
      </trkpt>
      <trkpt lat="46.17115" lon="6.79149">
        <ele>2007.5999755859</ele>
        <time>2016-02-27T09:29:17.000Z</time>
      </trkpt>
      <trkpt lat="46.17095" lon="6.79156">
        <ele>2011.8000488281</ele>
        <time>2016-02-27T09:29:22.000Z</time>
      </trkpt>
      <trkpt lat="46.17076" lon="6.79164">
        <ele>2014.4000244141</ele>
        <time>2016-02-27T09:29:27.000Z</time>
      </trkpt>
      <trkpt lat="46.17057" lon="6.79171">
        <ele>2020.5999755859</ele>
        <time>2016-02-27T09:29:32.000Z</time>
      </trkpt>
      <trkpt lat="46.17038" lon="6.79177">
        <ele>2026</ele>
        <time>2016-02-27T09:29:37.000Z</time>
      </trkpt>
      <trkpt lat="46.17019" lon="6.79186">
        <ele>2031</ele>
        <time>2016-02-27T09:29:42.000Z</time>
      </trkpt>
      <trkpt lat="46.16992" lon="6.79196">
        <ele>2042.4000244141</ele>
        <time>2016-02-27T09:29:49.000Z</time>
      </trkpt>
      <trkpt lat="46.16973" lon="6.79205">
        <ele>2050.8000488281</ele>
        <time>2016-02-27T09:29:54.000Z</time>
      </trkpt>
      <trkpt lat="46.16954" lon="6.79213">
        <ele>2057</ele>
        <time>2016-02-27T09:29:59.000Z</time>
      </trkpt>
      <trkpt lat="46.16935" lon="6.79222">
        <ele>2063.1999511719</ele>
        <time>2016-02-27T09:30:04.000Z</time>
      </trkpt>
      <trkpt lat="46.16915" lon="6.7923">
        <ele>2069.3999023438</ele>
        <time>2016-02-27T09:30:09.000Z</time>
      </trkpt>
      <trkpt lat="46.16896" lon="6.79238">
        <ele>2075.6000976562</ele>
        <time>2016-02-27T09:30:14.000Z</time>
      </trkpt>
      <trkpt lat="46.16877" lon="6.79245">
        <ele>2081.3999023438</ele>
        <time>2016-02-27T09:30:19.000Z</time>
      </trkpt>
      <trkpt lat="46.16858" lon="6.79252">
        <ele>2087.1999511719</ele>
        <time>2016-02-27T09:30:24.000Z</time>
      </trkpt>
      <trkpt lat="46.16841" lon="6.7926">
        <ele>2092.6000976562</ele>
        <time>2016-02-27T09:30:29.000Z</time>
      </trkpt>
      <trkpt lat="46.16823" lon="6.79268">
        <ele>2097.1999511719</ele>
        <time>2016-02-27T09:30:34.000Z</time>
      </trkpt>
      <trkpt lat="46.16804" lon="6.79275">
        <ele>2102.3999023438</ele>
        <time>2016-02-27T09:30:39.000Z</time>
      </trkpt>
      <trkpt lat="46.16765" lon="6.79289">
        <ele>2114.8000488281</ele>
        <time>2016-02-27T09:30:49.000Z</time>
      </trkpt>
      <trkpt lat="46.16747" lon="6.79296">
        <ele>2119</ele>
        <time>2016-02-27T09:30:54.000Z</time>
      </trkpt>
      <trkpt lat="46.16729" lon="6.79303">
        <ele>2123</ele>
        <time>2016-02-27T09:30:59.000Z</time>
      </trkpt>
      <trkpt lat="46.1671" lon="6.7931">
        <ele>2128.1999511719</ele>
        <time>2016-02-27T09:31:04.000Z</time>
      </trkpt>
      <trkpt lat="46.1669" lon="6.79317">
        <ele>2135.1999511719</ele>
        <time>2016-02-27T09:31:09.000Z</time>
      </trkpt>
      <trkpt lat="46.16671" lon="6.79325">
        <ele>2142.1999511719</ele>
        <time>2016-02-27T09:31:14.000Z</time>
      </trkpt>
      <trkpt lat="46.16651" lon="6.79332">
        <ele>2149.8000488281</ele>
        <time>2016-02-27T09:31:19.000Z</time>
      </trkpt>
      <trkpt lat="46.16633" lon="6.7934">
        <ele>2157.3999023438</ele>
        <time>2016-02-27T09:31:24.000Z</time>
      </trkpt>
      <trkpt lat="46.16615" lon="6.79348">
        <ele>2165.3999023438</ele>
        <time>2016-02-27T09:31:29.000Z</time>
      </trkpt>
      <trkpt lat="46.16584" lon="6.79359">
        <ele>2178.3999023438</ele>
        <time>2016-02-27T09:31:37.000Z</time>
      </trkpt>
      <trkpt lat="46.16565" lon="6.79366">
        <ele>2185.3999023438</ele>
        <time>2016-02-27T09:31:42.000Z</time>
      </trkpt>
      <trkpt lat="46.16546" lon="6.79373">
        <ele>2190.8000488281</ele>
        <time>2016-02-27T09:31:47.000Z</time>
      </trkpt>
      <trkpt lat="46.16529" lon="6.79384">
        <ele>2194.6000976562</ele>
        <time>2016-02-27T09:31:53.000Z</time>
      </trkpt>
      <trkpt lat="46.16512" lon="6.79381">
        <ele>2199.1999511719</ele>
        <time>2016-02-27T09:32:02.000Z</time>
      </trkpt>
      <trkpt lat="46.165" lon="6.79361">
        <ele>2203.8000488281</ele>
        <time>2016-02-27T09:32:40.000Z</time>
      </trkpt>
      <trkpt lat="46.16493" lon="6.7933">
        <ele>2208.1999511719</ele>
        <time>2016-02-27T09:32:57.000Z</time>
      </trkpt>
      <trkpt lat="46.16487" lon="6.79305">
        <ele>2210.1999511719</ele>
        <time>2016-02-27T09:33:07.000Z</time>
      </trkpt>
      <trkpt lat="46.16484" lon="6.79304">
        <ele>2210.8000488281</ele>
        <time>2016-02-27T09:36:10.000Z</time>
      </trkpt>
      <trkpt lat="46.16489" lon="6.79289">
        <ele>2209.3999023438</ele>
        <time>2016-02-27T09:37:36.000Z</time>
      </trkpt>
      <trkpt lat="46.16494" lon="6.79287">
        <ele>2208</ele>
        <time>2016-02-27T09:40:34.000Z</time>
      </trkpt>
      <trkpt lat="46.16504" lon="6.79282">
        <ele>2204.8000488281</ele>
        <time>2016-02-27T09:40:52.000Z</time>
      </trkpt>
      <trkpt lat="46.16522" lon="6.79293">
        <ele>2199.8000488281</ele>
        <time>2016-02-27T09:40:55.000Z</time>
      </trkpt>
      <trkpt lat="46.16536" lon="6.79299">
        <ele>2195.8000488281</ele>
        <time>2016-02-27T09:40:57.000Z</time>
      </trkpt>
      <trkpt lat="46.16544" lon="6.79301">
        <ele>2193.6000976562</ele>
        <time>2016-02-27T09:40:58.000Z</time>
      </trkpt>
      <trkpt lat="46.16563" lon="6.79311">
        <ele>2187.6000976562</ele>
        <time>2016-02-27T09:41:01.000Z</time>
      </trkpt>
      <trkpt lat="46.16575" lon="6.79318">
        <ele>2182.6000976562</ele>
        <time>2016-02-27T09:41:03.000Z</time>
      </trkpt>
      <trkpt lat="46.16592" lon="6.7933">
        <ele>2175.6000976562</ele>
        <time>2016-02-27T09:41:06.000Z</time>
      </trkpt>
      <trkpt lat="46.16602" lon="6.79341">
        <ele>2171.3999023438</ele>
        <time>2016-02-27T09:41:12.000Z</time>
      </trkpt>
      <trkpt lat="46.16601" lon="6.79341">
        <ele>2171.6000976562</ele>
        <time>2016-02-27T09:41:13.000Z</time>
      </trkpt>
      <trkpt lat="46.16607" lon="6.79361">
        <ele>2169</ele>
        <time>2016-02-27T09:41:26.000Z</time>
      </trkpt>
      <trkpt lat="46.16617" lon="6.79392">
        <ele>2164</ele>
        <time>2016-02-27T09:41:30.000Z</time>
      </trkpt>
      <trkpt lat="46.16628" lon="6.79414">
        <ele>2158.1999511719</ele>
        <time>2016-02-27T09:41:33.000Z</time>
      </trkpt>
      <trkpt lat="46.16645" lon="6.79435">
        <ele>2149.3999023438</ele>
        <time>2016-02-27T09:41:37.000Z</time>
      </trkpt>
      <trkpt lat="46.16657" lon="6.79446">
        <ele>2144.6000976562</ele>
        <time>2016-02-27T09:41:40.000Z</time>
      </trkpt>
      <trkpt lat="46.16677" lon="6.79468">
        <ele>2136.6000976562</ele>
        <time>2016-02-27T09:41:43.000Z</time>
      </trkpt>
      <trkpt lat="46.16702" lon="6.79479">
        <ele>2128.1999511719</ele>
        <time>2016-02-27T09:41:46.000Z</time>
      </trkpt>
      <trkpt lat="46.16723" lon="6.79489">
        <ele>2121.3999023438</ele>
        <time>2016-02-27T09:41:48.000Z</time>
      </trkpt>
      <trkpt lat="46.16743" lon="6.79501">
        <ele>2112.3999023438</ele>
        <time>2016-02-27T09:41:50.000Z</time>
      </trkpt>
      <trkpt lat="46.16757" lon="6.79522">
        <ele>2105.1999511719</ele>
        <time>2016-02-27T09:41:52.000Z</time>
      </trkpt>
      <trkpt lat="46.16767" lon="6.79548">
        <ele>2099.1999511719</ele>
        <time>2016-02-27T09:41:55.000Z</time>
      </trkpt>
      <trkpt lat="46.16767" lon="6.79578">
        <ele>2097.6000976562</ele>
        <time>2016-02-27T09:41:58.000Z</time>
      </trkpt>
      <trkpt lat="46.16767" lon="6.7959">
        <ele>2097.1999511719</ele>
        <time>2016-02-27T09:41:59.000Z</time>
      </trkpt>
      <trkpt lat="46.16769" lon="6.79618">
        <ele>2095.3999023438</ele>
        <time>2016-02-27T09:42:01.000Z</time>
      </trkpt>
      <trkpt lat="46.16781" lon="6.79644">
        <ele>2089</ele>
        <time>2016-02-27T09:42:03.000Z</time>
      </trkpt>
      <trkpt lat="46.16794" lon="6.79671">
        <ele>2084.1999511719</ele>
        <time>2016-02-27T09:42:05.000Z</time>
      </trkpt>
      <trkpt lat="46.16801" lon="6.79684">
        <ele>2082</ele>
        <time>2016-02-27T09:42:06.000Z</time>
      </trkpt>
      <trkpt lat="46.16809" lon="6.79695">
        <ele>2079.6000976562</ele>
        <time>2016-02-27T09:42:07.000Z</time>
      </trkpt>
      <trkpt lat="46.16828" lon="6.79714">
        <ele>2075.6000976562</ele>
        <time>2016-02-27T09:42:09.000Z</time>
      </trkpt>
      <trkpt lat="46.1685" lon="6.79734">
        <ele>2071</ele>
        <time>2016-02-27T09:42:11.000Z</time>
      </trkpt>
      <trkpt lat="46.16873" lon="6.79755">
        <ele>2066.3999023438</ele>
        <time>2016-02-27T09:42:13.000Z</time>
      </trkpt>
      <trkpt lat="46.16886" lon="6.79765">
        <ele>2063.8000488281</ele>
        <time>2016-02-27T09:42:14.000Z</time>
      </trkpt>
      <trkpt lat="46.16912" lon="6.79785">
        <ele>2061.3999023438</ele>
        <time>2016-02-27T09:42:16.000Z</time>
      </trkpt>
      <trkpt lat="46.16939" lon="6.798">
        <ele>2060.3999023438</ele>
        <time>2016-02-27T09:42:18.000Z</time>
      </trkpt>
      <trkpt lat="46.16963" lon="6.7981">
        <ele>2059.3999023438</ele>
        <time>2016-02-27T09:42:20.000Z</time>
      </trkpt>
      <trkpt lat="46.16985" lon="6.79816">
        <ele>2057.3999023438</ele>
        <time>2016-02-27T09:42:22.000Z</time>
      </trkpt>
      <trkpt lat="46.17006" lon="6.79815">
        <ele>2054.3999023438</ele>
        <time>2016-02-27T09:42:24.000Z</time>
      </trkpt>
      <trkpt lat="46.17022" lon="6.79809">
        <ele>2051.6000976562</ele>
        <time>2016-02-27T09:42:26.000Z</time>
      </trkpt>
      <trkpt lat="46.1704" lon="6.798">
        <ele>2047.8000488281</ele>
        <time>2016-02-27T09:42:28.000Z</time>
      </trkpt>
      <trkpt lat="46.17049" lon="6.79793">
        <ele>2044.4000244141</ele>
        <time>2016-02-27T09:42:29.000Z</time>
      </trkpt>
      <trkpt lat="46.17066" lon="6.79782">
        <ele>2038.5999755859</ele>
        <time>2016-02-27T09:42:31.000Z</time>
      </trkpt>
      <trkpt lat="46.17089" lon="6.79763">
        <ele>2030.8000488281</ele>
        <time>2016-02-27T09:42:34.000Z</time>
      </trkpt>
      <trkpt lat="46.17108" lon="6.79762">
        <ele>2026.5999755859</ele>
        <time>2016-02-27T09:42:37.000Z</time>
      </trkpt>
      <trkpt lat="46.1712" lon="6.7974">
        <ele>2018.4000244141</ele>
        <time>2016-02-27T09:42:40.000Z</time>
      </trkpt>
      <trkpt lat="46.17138" lon="6.79733">
        <ele>2013.5999755859</ele>
        <time>2016-02-27T09:42:43.000Z</time>
      </trkpt>
      <trkpt lat="46.17156" lon="6.79724">
        <ele>2009</ele>
        <time>2016-02-27T09:42:46.000Z</time>
      </trkpt>
      <trkpt lat="46.17175" lon="6.79715">
        <ele>2004.8000488281</ele>
        <time>2016-02-27T09:42:49.000Z</time>
      </trkpt>
      <trkpt lat="46.17198" lon="6.79708">
        <ele>2000.5999755859</ele>
        <time>2016-02-27T09:42:52.000Z</time>
      </trkpt>
      <trkpt lat="46.17221" lon="6.79696">
        <ele>1991.4000244141</ele>
        <time>2016-02-27T09:42:55.000Z</time>
      </trkpt>
      <trkpt lat="46.17241" lon="6.79684">
        <ele>1986</ele>
        <time>2016-02-27T09:42:58.000Z</time>
      </trkpt>
      <trkpt lat="46.17251" lon="6.79664">
        <ele>1979.8000488281</ele>
        <time>2016-02-27T09:43:12.000Z</time>
      </trkpt>
      <trkpt lat="46.17265" lon="6.79667">
        <ele>1980</ele>
        <time>2016-02-27T09:43:16.000Z</time>
      </trkpt>
      <trkpt lat="46.17276" lon="6.7966">
        <ele>1977.1999511719</ele>
        <time>2016-02-27T09:43:27.000Z</time>
      </trkpt>
      <trkpt lat="46.17289" lon="6.79648">
        <ele>1973.1999511719</ele>
        <time>2016-02-27T09:44:05.000Z</time>
      </trkpt>
      <trkpt lat="46.17294" lon="6.79616">
        <ele>1964</ele>
        <time>2016-02-27T09:44:09.000Z</time>
      </trkpt>
      <trkpt lat="46.17306" lon="6.79593">
        <ele>1956.5999755859</ele>
        <time>2016-02-27T09:44:11.000Z</time>
      </trkpt>
      <trkpt lat="46.17325" lon="6.79563">
        <ele>1948.8000488281</ele>
        <time>2016-02-27T09:44:13.000Z</time>
      </trkpt>
      <trkpt lat="46.17342" lon="6.79528">
        <ele>1941.8000488281</ele>
        <time>2016-02-27T09:44:15.000Z</time>
      </trkpt>
      <trkpt lat="46.17359" lon="6.79483">
        <ele>1932.4000244141</ele>
        <time>2016-02-27T09:44:17.000Z</time>
      </trkpt>
      <trkpt lat="46.17374" lon="6.79438">
        <ele>1924.4000244141</ele>
        <time>2016-02-27T09:44:19.000Z</time>
      </trkpt>
      <trkpt lat="46.17388" lon="6.794">
        <ele>1916.5999755859</ele>
        <time>2016-02-27T09:44:21.000Z</time>
      </trkpt>
      <trkpt lat="46.17406" lon="6.79365">
        <ele>1909</ele>
        <time>2016-02-27T09:44:23.000Z</time>
      </trkpt>
      <trkpt lat="46.17427" lon="6.79335">
        <ele>1900.8000488281</ele>
        <time>2016-02-27T09:44:25.000Z</time>
      </trkpt>
      <trkpt lat="46.17451" lon="6.79301">
        <ele>1893</ele>
        <time>2016-02-27T09:44:27.000Z</time>
      </trkpt>
      <trkpt lat="46.17474" lon="6.79266">
        <ele>1888</ele>
        <time>2016-02-27T09:44:29.000Z</time>
      </trkpt>
      <trkpt lat="46.17495" lon="6.79229">
        <ele>1884.8000488281</ele>
        <time>2016-02-27T09:44:31.000Z</time>
      </trkpt>
      <trkpt lat="46.17516" lon="6.79199">
        <ele>1883.8000488281</ele>
        <time>2016-02-27T09:44:33.000Z</time>
      </trkpt>
      <trkpt lat="46.17536" lon="6.7917">
        <ele>1878.5999755859</ele>
        <time>2016-02-27T09:44:35.000Z</time>
      </trkpt>
      <trkpt lat="46.17556" lon="6.79144">
        <ele>1874.1999511719</ele>
        <time>2016-02-27T09:44:37.000Z</time>
      </trkpt>
      <trkpt lat="46.17572" lon="6.79121">
        <ele>1872.1999511719</ele>
        <time>2016-02-27T09:44:39.000Z</time>
      </trkpt>
      <trkpt lat="46.1758" lon="6.79113">
        <ele>1871.1999511719</ele>
        <time>2016-02-27T09:44:40.000Z</time>
      </trkpt>
      <trkpt lat="46.17597" lon="6.79096">
        <ele>1868.5999755859</ele>
        <time>2016-02-27T09:44:42.000Z</time>
      </trkpt>
      <trkpt lat="46.17617" lon="6.79076">
        <ele>1863.5999755859</ele>
        <time>2016-02-27T09:44:44.000Z</time>
      </trkpt>
      <trkpt lat="46.17641" lon="6.79058">
        <ele>1859.8000488281</ele>
        <time>2016-02-27T09:44:46.000Z</time>
      </trkpt>
      <trkpt lat="46.17667" lon="6.79043">
        <ele>1859</ele>
        <time>2016-02-27T09:44:48.000Z</time>
      </trkpt>
      <trkpt lat="46.17692" lon="6.79034">
        <ele>1858</ele>
        <time>2016-02-27T09:44:50.000Z</time>
      </trkpt>
      <trkpt lat="46.17717" lon="6.79029">
        <ele>1854</ele>
        <time>2016-02-27T09:44:52.000Z</time>
      </trkpt>
      <trkpt lat="46.17738" lon="6.79032">
        <ele>1852</ele>
        <time>2016-02-27T09:44:54.000Z</time>
      </trkpt>
      <trkpt lat="46.17755" lon="6.79042">
        <ele>1852</ele>
        <time>2016-02-27T09:44:56.000Z</time>
      </trkpt>
      <trkpt lat="46.17771" lon="6.79051">
        <ele>1852</ele>
        <time>2016-02-27T09:44:59.000Z</time>
      </trkpt>
      <trkpt lat="46.17777" lon="6.79053">
        <ele>1852</ele>
        <time>2016-02-27T09:45:00.000Z</time>
      </trkpt>
      <trkpt lat="46.17797" lon="6.79053">
        <ele>1851.1999511719</ele>
        <time>2016-02-27T09:45:04.000Z</time>
      </trkpt>
      <trkpt lat="46.17802" lon="6.79051">
        <ele>1850.4000244141</ele>
        <time>2016-02-27T09:45:05.000Z</time>
      </trkpt>
      <trkpt lat="46.17808" lon="6.79047">
        <ele>1849.1999511719</ele>
        <time>2016-02-27T09:45:06.000Z</time>
      </trkpt>
      <trkpt lat="46.17822" lon="6.7902">
        <ele>1844.1999511719</ele>
        <time>2016-02-27T09:45:10.000Z</time>
      </trkpt>
      <trkpt lat="46.17826" lon="6.79014">
        <ele>1843</ele>
        <time>2016-02-27T09:45:11.000Z</time>
      </trkpt>
      <trkpt lat="46.17828" lon="6.79011">
        <ele>1842.4000244141</ele>
        <time>2016-02-27T09:45:12.000Z</time>
      </trkpt>
      <trkpt lat="46.17837" lon="6.78997">
        <ele>1838.8000488281</ele>
        <time>2016-02-27T09:45:52.000Z</time>
      </trkpt>
      <trkpt lat="46.1784" lon="6.78987">
        <ele>1836.4000244141</ele>
        <time>2016-02-27T09:45:54.000Z</time>
      </trkpt>
      <trkpt lat="46.17842" lon="6.7898">
        <ele>1835.5999755859</ele>
        <time>2016-02-27T09:45:56.000Z</time>
      </trkpt>
      <trkpt lat="46.17845" lon="6.78977">
        <ele>1834.8000488281</ele>
        <time>2016-02-27T09:46:00.000Z</time>
      </trkpt>
      <trkpt lat="46.17855" lon="6.78961">
        <ele>1832</ele>
        <time>2016-02-27T09:46:41.000Z</time>
      </trkpt>
      <trkpt lat="46.17873" lon="6.78938">
        <ele>1825</ele>
        <time>2016-02-27T09:46:45.000Z</time>
      </trkpt>
      <trkpt lat="46.17887" lon="6.78923">
        <ele>1819.5999755859</ele>
        <time>2016-02-27T09:46:47.000Z</time>
      </trkpt>
      <trkpt lat="46.17901" lon="6.78905">
        <ele>1813.8000488281</ele>
        <time>2016-02-27T09:46:49.000Z</time>
      </trkpt>
      <trkpt lat="46.17916" lon="6.78883">
        <ele>1807.1999511719</ele>
        <time>2016-02-27T09:46:52.000Z</time>
      </trkpt>
      <trkpt lat="46.17924" lon="6.7887">
        <ele>1803.5999755859</ele>
        <time>2016-02-27T09:46:55.000Z</time>
      </trkpt>
      <trkpt lat="46.17925" lon="6.7887">
        <ele>1803.4000244141</ele>
        <time>2016-02-27T09:46:57.000Z</time>
      </trkpt>
      <trkpt lat="46.17925" lon="6.7887">
        <ele>1803.5999755859</ele>
        <time>2016-02-27T09:47:00.000Z</time>
      </trkpt>
      <trkpt lat="46.17923" lon="6.78878">
        <ele>1805</ele>
        <time>2016-02-27T09:48:58.000Z</time>
      </trkpt>
      <trkpt lat="46.17921" lon="6.78879">
        <ele>1805.5999755859</ele>
        <time>2016-02-27T09:51:00.000Z</time>
      </trkpt>
      <trkpt lat="46.17927" lon="6.78881">
        <ele>1804.5999755859</ele>
        <time>2016-02-27T09:52:44.000Z</time>
      </trkpt>
      <trkpt lat="46.17936" lon="6.78899">
        <ele>1804.8000488281</ele>
        <time>2016-02-27T09:54:07.000Z</time>
      </trkpt>
      <trkpt lat="46.1794" lon="6.7891">
        <ele>1806.4000244141</ele>
        <time>2016-02-27T09:55:39.000Z</time>
      </trkpt>
      <trkpt lat="46.17929" lon="6.78931">
        <ele>1815.5999755859</ele>
        <time>2016-02-27T09:56:09.000Z</time>
      </trkpt>
      <trkpt lat="46.17916" lon="6.78954">
        <ele>1821.4000244141</ele>
        <time>2016-02-27T09:56:13.000Z</time>
      </trkpt>
      <trkpt lat="46.17904" lon="6.78977">
        <ele>1825.5999755859</ele>
        <time>2016-02-27T09:56:17.000Z</time>
      </trkpt>
      <trkpt lat="46.17887" lon="6.7901">
        <ele>1833.4000244141</ele>
        <time>2016-02-27T09:56:24.000Z</time>
      </trkpt>
      <trkpt lat="46.17879" lon="6.79024">
        <ele>1837.4000244141</ele>
        <time>2016-02-27T09:56:27.000Z</time>
      </trkpt>
      <trkpt lat="46.17864" lon="6.79045">
        <ele>1843.4000244141</ele>
        <time>2016-02-27T09:56:32.000Z</time>
      </trkpt>
      <trkpt lat="46.1785" lon="6.79068">
        <ele>1847.8000488281</ele>
        <time>2016-02-27T09:56:37.000Z</time>
      </trkpt>
      <trkpt lat="46.17847" lon="6.79072">
        <ele>1848.5999755859</ele>
        <time>2016-02-27T09:56:38.000Z</time>
      </trkpt>
      <trkpt lat="46.17838" lon="6.79087">
        <ele>1853.1999511719</ele>
        <time>2016-02-27T09:56:41.000Z</time>
      </trkpt>
      <trkpt lat="46.17824" lon="6.79109">
        <ele>1859.8000488281</ele>
        <time>2016-02-27T09:56:46.000Z</time>
      </trkpt>
      <trkpt lat="46.17812" lon="6.79129">
        <ele>1865.8000488281</ele>
        <time>2016-02-27T09:56:50.000Z</time>
      </trkpt>
      <trkpt lat="46.17798" lon="6.79153">
        <ele>1870.4000244141</ele>
        <time>2016-02-27T09:56:55.000Z</time>
      </trkpt>
      <trkpt lat="46.17786" lon="6.79173">
        <ele>1872.8000488281</ele>
        <time>2016-02-27T09:56:59.000Z</time>
      </trkpt>
      <trkpt lat="46.17774" lon="6.79194">
        <ele>1875.5999755859</ele>
        <time>2016-02-27T09:57:03.000Z</time>
      </trkpt>
      <trkpt lat="46.17762" lon="6.79214">
        <ele>1880.8000488281</ele>
        <time>2016-02-27T09:57:07.000Z</time>
      </trkpt>
      <trkpt lat="46.17747" lon="6.79239">
        <ele>1888</ele>
        <time>2016-02-27T09:57:12.000Z</time>
      </trkpt>
      <trkpt lat="46.17734" lon="6.79262">
        <ele>1895.4000244141</ele>
        <time>2016-02-27T09:57:17.000Z</time>
      </trkpt>
      <trkpt lat="46.17719" lon="6.79287">
        <ele>1902.8000488281</ele>
        <time>2016-02-27T09:57:22.000Z</time>
      </trkpt>
      <trkpt lat="46.17699" lon="6.79323">
        <ele>1910.8000488281</ele>
        <time>2016-02-27T09:57:30.000Z</time>
      </trkpt>
      <trkpt lat="46.17687" lon="6.79343">
        <ele>1913.1999511719</ele>
        <time>2016-02-27T09:57:34.000Z</time>
      </trkpt>
      <trkpt lat="46.17675" lon="6.79362">
        <ele>1916.5999755859</ele>
        <time>2016-02-27T09:57:38.000Z</time>
      </trkpt>
      <trkpt lat="46.1766" lon="6.79386">
        <ele>1923</ele>
        <time>2016-02-27T09:57:43.000Z</time>
      </trkpt>
      <trkpt lat="46.17645" lon="6.79409">
        <ele>1929.4000244141</ele>
        <time>2016-02-27T09:57:48.000Z</time>
      </trkpt>
      <trkpt lat="46.17631" lon="6.79435">
        <ele>1935.5999755859</ele>
        <time>2016-02-27T09:57:53.000Z</time>
      </trkpt>
      <trkpt lat="46.17621" lon="6.79456">
        <ele>1940.5999755859</ele>
        <time>2016-02-27T09:57:57.000Z</time>
      </trkpt>
      <trkpt lat="46.17608" lon="6.79477">
        <ele>1943.8000488281</ele>
        <time>2016-02-27T09:58:01.000Z</time>
      </trkpt>
      <trkpt lat="46.17596" lon="6.79497">
        <ele>1945.1999511719</ele>
        <time>2016-02-27T09:58:05.000Z</time>
      </trkpt>
      <trkpt lat="46.17582" lon="6.7952">
        <ele>1946.5999755859</ele>
        <time>2016-02-27T09:58:10.000Z</time>
      </trkpt>
      <trkpt lat="46.17568" lon="6.79543">
        <ele>1950.4000244141</ele>
        <time>2016-02-27T09:58:15.000Z</time>
      </trkpt>
      <trkpt lat="46.17553" lon="6.79568">
        <ele>1955.1999511719</ele>
        <time>2016-02-27T09:58:20.000Z</time>
      </trkpt>
      <trkpt lat="46.17542" lon="6.79588">
        <ele>1959.4000244141</ele>
        <time>2016-02-27T09:58:24.000Z</time>
      </trkpt>
      <trkpt lat="46.17527" lon="6.7961">
        <ele>1963.8000488281</ele>
        <time>2016-02-27T09:58:29.000Z</time>
      </trkpt>
      <trkpt lat="46.17513" lon="6.79634">
        <ele>1971.4000244141</ele>
        <time>2016-02-27T09:58:34.000Z</time>
      </trkpt>
      <trkpt lat="46.17511" lon="6.79638">
        <ele>1972.8000488281</ele>
        <time>2016-02-27T09:58:35.000Z</time>
      </trkpt>
      <trkpt lat="46.17503" lon="6.79653">
        <ele>1978.1999511719</ele>
        <time>2016-02-27T09:58:40.000Z</time>
      </trkpt>
      <trkpt lat="46.17489" lon="6.79674">
        <ele>1983.4000244141</ele>
        <time>2016-02-27T09:58:48.000Z</time>
      </trkpt>
      <trkpt lat="46.17475" lon="6.79697">
        <ele>1989.5999755859</ele>
        <time>2016-02-27T09:58:54.000Z</time>
      </trkpt>
      <trkpt lat="46.17462" lon="6.7972">
        <ele>1995.1999511719</ele>
        <time>2016-02-27T09:58:59.000Z</time>
      </trkpt>
      <trkpt lat="46.17447" lon="6.79744">
        <ele>2004.4000244141</ele>
        <time>2016-02-27T09:59:04.000Z</time>
      </trkpt>
      <trkpt lat="46.17432" lon="6.79768">
        <ele>2010.5999755859</ele>
        <time>2016-02-27T09:59:09.000Z</time>
      </trkpt>
      <trkpt lat="46.17419" lon="6.7979">
        <ele>2018.4000244141</ele>
        <time>2016-02-27T09:59:14.000Z</time>
      </trkpt>
      <trkpt lat="46.17407" lon="6.79814">
        <ele>2026.8000488281</ele>
        <time>2016-02-27T09:59:19.000Z</time>
      </trkpt>
      <trkpt lat="46.17393" lon="6.79837">
        <ele>2035.4000244141</ele>
        <time>2016-02-27T09:59:24.000Z</time>
      </trkpt>
      <trkpt lat="46.17379" lon="6.7986">
        <ele>2041.8000488281</ele>
        <time>2016-02-27T09:59:29.000Z</time>
      </trkpt>
      <trkpt lat="46.17366" lon="6.79883">
        <ele>2048.3999023438</ele>
        <time>2016-02-27T09:59:34.000Z</time>
      </trkpt>
      <trkpt lat="46.17351" lon="6.79907">
        <ele>2055.3999023438</ele>
        <time>2016-02-27T09:59:39.000Z</time>
      </trkpt>
      <trkpt lat="46.17339" lon="6.79927">
        <ele>2059</ele>
        <time>2016-02-27T09:59:43.000Z</time>
      </trkpt>
      <trkpt lat="46.17327" lon="6.79947">
        <ele>2062.6000976562</ele>
        <time>2016-02-27T09:59:47.000Z</time>
      </trkpt>
      <trkpt lat="46.17313" lon="6.79972">
        <ele>2067</ele>
        <time>2016-02-27T09:59:52.000Z</time>
      </trkpt>
      <trkpt lat="46.17298" lon="6.79996">
        <ele>2071.8000488281</ele>
        <time>2016-02-27T09:59:57.000Z</time>
      </trkpt>
      <trkpt lat="46.17285" lon="6.80019">
        <ele>2075.6000976562</ele>
        <time>2016-02-27T10:00:02.000Z</time>
      </trkpt>
      <trkpt lat="46.1727" lon="6.80043">
        <ele>2081</ele>
        <time>2016-02-27T10:00:07.000Z</time>
      </trkpt>
      <trkpt lat="46.17256" lon="6.80068">
        <ele>2089.1999511719</ele>
        <time>2016-02-27T10:00:12.000Z</time>
      </trkpt>
      <trkpt lat="46.17242" lon="6.80091">
        <ele>2096</ele>
        <time>2016-02-27T10:00:17.000Z</time>
      </trkpt>
      <trkpt lat="46.17229" lon="6.80114">
        <ele>2106.3999023438</ele>
        <time>2016-02-27T10:00:22.000Z</time>
      </trkpt>
      <trkpt lat="46.17214" lon="6.80139">
        <ele>2116.8000488281</ele>
        <time>2016-02-27T10:00:27.000Z</time>
      </trkpt>
      <trkpt lat="46.17202" lon="6.80161">
        <ele>2127.6000976562</ele>
        <time>2016-02-27T10:00:32.000Z</time>
      </trkpt>
      <trkpt lat="46.17188" lon="6.80185">
        <ele>2138.8000488281</ele>
        <time>2016-02-27T10:00:38.000Z</time>
      </trkpt>
      <trkpt lat="46.17183" lon="6.80196">
        <ele>2143.6000976562</ele>
        <time>2016-02-27T10:00:41.000Z</time>
      </trkpt>
      <trkpt lat="46.17183" lon="6.80208">
        <ele>2147.1999511719</ele>
        <time>2016-02-27T10:00:52.000Z</time>
      </trkpt>
      <trkpt lat="46.17187" lon="6.80209">
        <ele>2146.6000976562</ele>
        <time>2016-02-27T10:00:58.000Z</time>
      </trkpt>
      <trkpt lat="46.17198" lon="6.80225">
        <ele>2148</ele>
        <time>2016-02-27T10:01:33.000Z</time>
      </trkpt>
      <trkpt lat="46.17216" lon="6.80234">
        <ele>2145.1999511719</ele>
        <time>2016-02-27T10:01:46.000Z</time>
      </trkpt>
      <trkpt lat="46.1723" lon="6.80251">
        <ele>2143.1999511719</ele>
        <time>2016-02-27T10:01:57.000Z</time>
      </trkpt>
      <trkpt lat="46.17231" lon="6.80253">
        <ele>2143.1999511719</ele>
        <time>2016-02-27T10:01:58.000Z</time>
      </trkpt>
      <trkpt lat="46.17243" lon="6.80273">
        <ele>2141</ele>
        <time>2016-02-27T10:02:11.000Z</time>
      </trkpt>
      <trkpt lat="46.17256" lon="6.80293">
        <ele>2138.6000976562</ele>
        <time>2016-02-27T10:02:19.000Z</time>
      </trkpt>
      <trkpt lat="46.17272" lon="6.8033">
        <ele>2137</ele>
        <time>2016-02-27T10:02:32.000Z</time>
      </trkpt>
      <trkpt lat="46.17279" lon="6.8035">
        <ele>2138</ele>
        <time>2016-02-27T10:02:39.000Z</time>
      </trkpt>
      <trkpt lat="46.17286" lon="6.80374">
        <ele>2139.3999023438</ele>
        <time>2016-02-27T10:02:46.000Z</time>
      </trkpt>
      <trkpt lat="46.17295" lon="6.80398">
        <ele>2140.1999511719</ele>
        <time>2016-02-27T10:02:53.000Z</time>
      </trkpt>
      <trkpt lat="46.1731" lon="6.80418">
        <ele>2139</ele>
        <time>2016-02-27T10:03:01.000Z</time>
      </trkpt>
      <trkpt lat="46.17325" lon="6.80432">
        <ele>2138.6000976562</ele>
        <time>2016-02-27T10:03:10.000Z</time>
      </trkpt>
      <trkpt lat="46.17328" lon="6.80434">
        <ele>2138.6000976562</ele>
        <time>2016-02-27T10:03:12.000Z</time>
      </trkpt>
      <trkpt lat="46.17331" lon="6.8044">
        <ele>2138.8000488281</ele>
        <time>2016-02-27T10:04:32.000Z</time>
      </trkpt>
      <trkpt lat="46.17341" lon="6.80452">
        <ele>2139</ele>
        <time>2016-02-27T10:05:43.000Z</time>
      </trkpt>
      <trkpt lat="46.17354" lon="6.8047">
        <ele>2139.3999023438</ele>
        <time>2016-02-27T10:05:57.000Z</time>
      </trkpt>
      <trkpt lat="46.17367" lon="6.8049">
        <ele>2140</ele>
        <time>2016-02-27T10:06:08.000Z</time>
      </trkpt>
      <trkpt lat="46.17368" lon="6.80491">
        <ele>2139.8000488281</ele>
        <time>2016-02-27T10:06:10.000Z</time>
      </trkpt>
      <trkpt lat="46.17375" lon="6.80509">
        <ele>2138.6000976562</ele>
        <time>2016-02-27T10:06:27.000Z</time>
      </trkpt>
      <trkpt lat="46.17375" lon="6.80532">
        <ele>2138.1999511719</ele>
        <time>2016-02-27T10:07:25.000Z</time>
      </trkpt>
      <trkpt lat="46.17375" lon="6.80534">
        <ele>2138.1999511719</ele>
        <time>2016-02-27T10:07:26.000Z</time>
      </trkpt>
      <trkpt lat="46.17379" lon="6.80543">
        <ele>2137.6000976562</ele>
        <time>2016-02-27T10:07:34.000Z</time>
      </trkpt>
      <trkpt lat="46.17379" lon="6.80543">
        <ele>2137.6000976562</ele>
        <time>2016-02-27T10:07:35.000Z</time>
      </trkpt>
      <trkpt lat="46.17377" lon="6.80557">
        <ele>2137.3999023438</ele>
        <time>2016-02-27T10:09:41.000Z</time>
      </trkpt>
      <trkpt lat="46.1737" lon="6.80565">
        <ele>2136.8000488281</ele>
        <time>2016-02-27T10:09:45.000Z</time>
      </trkpt>
      <trkpt lat="46.17369" lon="6.80567">
        <ele>2136.8000488281</ele>
        <time>2016-02-27T10:09:48.000Z</time>
      </trkpt>
      <trkpt lat="46.17352" lon="6.80582">
        <ele>2131.8000488281</ele>
        <time>2016-02-27T10:10:43.000Z</time>
      </trkpt>
      <trkpt lat="46.17349" lon="6.80584">
        <ele>2131.3999023438</ele>
        <time>2016-02-27T10:10:47.000Z</time>
      </trkpt>
      <trkpt lat="46.17335" lon="6.80601">
        <ele>2124</ele>
        <time>2016-02-27T10:10:57.000Z</time>
      </trkpt>
      <trkpt lat="46.17322" lon="6.80618">
        <ele>2118.8000488281</ele>
        <time>2016-02-27T10:11:04.000Z</time>
      </trkpt>
      <trkpt lat="46.17323" lon="6.80619">
        <ele>2118.1999511719</ele>
        <time>2016-02-27T10:11:10.000Z</time>
      </trkpt>
      <trkpt lat="46.1732" lon="6.80626">
        <ele>2115.6000976562</ele>
        <time>2016-02-27T10:11:38.000Z</time>
      </trkpt>
      <trkpt lat="46.17341" lon="6.8062">
        <ele>2115.6000976562</ele>
        <time>2016-02-27T10:11:47.000Z</time>
      </trkpt>
      <trkpt lat="46.17341" lon="6.80624">
        <ele>2113.6000976562</ele>
        <time>2016-02-27T10:11:49.000Z</time>
      </trkpt>
      <trkpt lat="46.17341" lon="6.80648">
        <ele>2104.1999511719</ele>
        <time>2016-02-27T10:11:57.000Z</time>
      </trkpt>
      <trkpt lat="46.1734" lon="6.80652">
        <ele>2102.3999023438</ele>
        <time>2016-02-27T10:11:59.000Z</time>
      </trkpt>
      <trkpt lat="46.1735" lon="6.80656">
        <ele>2099.1999511719</ele>
        <time>2016-02-27T10:12:04.000Z</time>
      </trkpt>
      <trkpt lat="46.17353" lon="6.80662">
        <ele>2095.6000976562</ele>
        <time>2016-02-27T10:12:08.000Z</time>
      </trkpt>
      <trkpt lat="46.17354" lon="6.80663">
        <ele>2094.8000488281</ele>
        <time>2016-02-27T10:12:09.000Z</time>
      </trkpt>
      <trkpt lat="46.17352" lon="6.80674">
        <ele>2088.6000976562</ele>
        <time>2016-02-27T10:12:16.000Z</time>
      </trkpt>
      <trkpt lat="46.17363" lon="6.80677">
        <ele>2085.6000976562</ele>
        <time>2016-02-27T10:12:22.000Z</time>
      </trkpt>
      <trkpt lat="46.17361" lon="6.80696">
        <ele>2075.3999023438</ele>
        <time>2016-02-27T10:12:32.000Z</time>
      </trkpt>
      <trkpt lat="46.17369" lon="6.80702">
        <ele>2070.8000488281</ele>
        <time>2016-02-27T10:12:40.000Z</time>
      </trkpt>
      <trkpt lat="46.17376" lon="6.80709">
        <ele>2066.1999511719</ele>
        <time>2016-02-27T10:12:45.000Z</time>
      </trkpt>
      <trkpt lat="46.17381" lon="6.80729">
        <ele>2054.3999023438</ele>
        <time>2016-02-27T10:12:57.000Z</time>
      </trkpt>
      <trkpt lat="46.17387" lon="6.80733">
        <ele>2051.1999511719</ele>
        <time>2016-02-27T10:13:01.000Z</time>
      </trkpt>
      <trkpt lat="46.17387" lon="6.80734">
        <ele>2050.8000488281</ele>
        <time>2016-02-27T10:13:02.000Z</time>
      </trkpt>
      <trkpt lat="46.17381" lon="6.80751">
        <ele>2043.1999511719</ele>
        <time>2016-02-27T10:13:17.000Z</time>
      </trkpt>
      <trkpt lat="46.17381" lon="6.80753">
        <ele>2042</ele>
        <time>2016-02-27T10:13:18.000Z</time>
      </trkpt>
      <trkpt lat="46.17376" lon="6.80775">
        <ele>2031.8000488281</ele>
        <time>2016-02-27T10:13:26.000Z</time>
      </trkpt>
      <trkpt lat="46.17382" lon="6.80779">
        <ele>2028.1999511719</ele>
        <time>2016-02-27T10:13:31.000Z</time>
      </trkpt>
      <trkpt lat="46.17396" lon="6.80785">
        <ele>2022</ele>
        <time>2016-02-27T10:13:43.000Z</time>
      </trkpt>
      <trkpt lat="46.17383" lon="6.80801">
        <ele>2016.1999511719</ele>
        <time>2016-02-27T10:13:50.000Z</time>
      </trkpt>
      <trkpt lat="46.17374" lon="6.80823">
        <ele>2006</ele>
        <time>2016-02-27T10:14:04.000Z</time>
      </trkpt>
      <trkpt lat="46.17379" lon="6.80825">
        <ele>2004</ele>
        <time>2016-02-27T10:14:08.000Z</time>
      </trkpt>
      <trkpt lat="46.1738" lon="6.80824">
        <ele>2003.8000488281</ele>
        <time>2016-02-27T10:14:10.000Z</time>
      </trkpt>
      <trkpt lat="46.17401" lon="6.80822">
        <ele>2002.4000244141</ele>
        <time>2016-02-27T10:14:29.000Z</time>
      </trkpt>
      <trkpt lat="46.1742" lon="6.80824">
        <ele>2002.4000244141</ele>
        <time>2016-02-27T10:14:35.000Z</time>
      </trkpt>
      <trkpt lat="46.17437" lon="6.80834">
        <ele>1998.4000244141</ele>
        <time>2016-02-27T10:14:44.000Z</time>
      </trkpt>
      <trkpt lat="46.17452" lon="6.80853">
        <ele>1989</ele>
        <time>2016-02-27T10:15:03.000Z</time>
      </trkpt>
      <trkpt lat="46.17474" lon="6.80861">
        <ele>1986.4000244141</ele>
        <time>2016-02-27T10:15:10.000Z</time>
      </trkpt>
      <trkpt lat="46.17479" lon="6.80866">
        <ele>1984.5999755859</ele>
        <time>2016-02-27T10:15:13.000Z</time>
      </trkpt>
      <trkpt lat="46.17488" lon="6.80882">
        <ele>1978</ele>
        <time>2016-02-27T10:15:20.000Z</time>
      </trkpt>
      <trkpt lat="46.17489" lon="6.80885">
        <ele>1976.5999755859</ele>
        <time>2016-02-27T10:15:21.000Z</time>
      </trkpt>
      <trkpt lat="46.17487" lon="6.80905">
        <ele>1965.4000244141</ele>
        <time>2016-02-27T10:15:28.000Z</time>
      </trkpt>
      <trkpt lat="46.17495" lon="6.8092">
        <ele>1961.1999511719</ele>
        <time>2016-02-27T10:15:33.000Z</time>
      </trkpt>
      <trkpt lat="46.17486" lon="6.8092">
        <ele>1959</ele>
        <time>2016-02-27T10:15:38.000Z</time>
      </trkpt>
      <trkpt lat="46.17494" lon="6.80942">
        <ele>1953</ele>
        <time>2016-02-27T10:15:54.000Z</time>
      </trkpt>
      <trkpt lat="46.17492" lon="6.80955">
        <ele>1948.1999511719</ele>
        <time>2016-02-27T10:15:58.000Z</time>
      </trkpt>
      <trkpt lat="46.17491" lon="6.80958">
        <ele>1946.5999755859</ele>
        <time>2016-02-27T10:15:59.000Z</time>
      </trkpt>
      <trkpt lat="46.1749" lon="6.80972">
        <ele>1941.5999755859</ele>
        <time>2016-02-27T10:16:06.000Z</time>
      </trkpt>
      <trkpt lat="46.17499" lon="6.80989">
        <ele>1937</ele>
        <time>2016-02-27T10:16:17.000Z</time>
      </trkpt>
      <trkpt lat="46.17515" lon="6.81003">
        <ele>1934.8000488281</ele>
        <time>2016-02-27T10:16:23.000Z</time>
      </trkpt>
      <trkpt lat="46.17515" lon="6.8101">
        <ele>1931.8000488281</ele>
        <time>2016-02-27T10:16:25.000Z</time>
      </trkpt>
      <trkpt lat="46.17501" lon="6.81014">
        <ele>1927.4000244141</ele>
        <time>2016-02-27T10:16:31.000Z</time>
      </trkpt>
      <trkpt lat="46.17495" lon="6.81021">
        <ele>1924</ele>
        <time>2016-02-27T10:16:41.000Z</time>
      </trkpt>
      <trkpt lat="46.17498" lon="6.81039">
        <ele>1917.8000488281</ele>
        <time>2016-02-27T10:16:48.000Z</time>
      </trkpt>
      <trkpt lat="46.17499" lon="6.81059">
        <ele>1910.8000488281</ele>
        <time>2016-02-27T10:17:00.000Z</time>
      </trkpt>
      <trkpt lat="46.17498" lon="6.81065">
        <ele>1908.5999755859</ele>
        <time>2016-02-27T10:17:02.000Z</time>
      </trkpt>
      <trkpt lat="46.17498" lon="6.81084">
        <ele>1902.1999511719</ele>
        <time>2016-02-27T10:17:09.000Z</time>
      </trkpt>
      <trkpt lat="46.17482" lon="6.81093">
        <ele>1897</ele>
        <time>2016-02-27T10:17:15.000Z</time>
      </trkpt>
      <trkpt lat="46.1748" lon="6.81116">
        <ele>1889.5999755859</ele>
        <time>2016-02-27T10:17:23.000Z</time>
      </trkpt>
      <trkpt lat="46.17473" lon="6.81126">
        <ele>1885.5999755859</ele>
        <time>2016-02-27T10:17:30.000Z</time>
      </trkpt>
      <trkpt lat="46.17472" lon="6.81127">
        <ele>1885.1999511719</ele>
        <time>2016-02-27T10:17:31.000Z</time>
      </trkpt>
      <trkpt lat="46.17461" lon="6.8114">
        <ele>1880</ele>
        <time>2016-02-27T10:18:44.000Z</time>
      </trkpt>
      <trkpt lat="46.17458" lon="6.81144">
        <ele>1878.8000488281</ele>
        <time>2016-02-27T10:18:45.000Z</time>
      </trkpt>
      <trkpt lat="46.17459" lon="6.81168">
        <ele>1872.8000488281</ele>
        <time>2016-02-27T10:18:48.000Z</time>
      </trkpt>
      <trkpt lat="46.17454" lon="6.81193">
        <ele>1866.8000488281</ele>
        <time>2016-02-27T10:18:50.000Z</time>
      </trkpt>
      <trkpt lat="46.17444" lon="6.81224">
        <ele>1859.1999511719</ele>
        <time>2016-02-27T10:18:52.000Z</time>
      </trkpt>
      <trkpt lat="46.17432" lon="6.81258">
        <ele>1852.1999511719</ele>
        <time>2016-02-27T10:18:54.000Z</time>
      </trkpt>
      <trkpt lat="46.17419" lon="6.81292">
        <ele>1848.1999511719</ele>
        <time>2016-02-27T10:18:56.000Z</time>
      </trkpt>
      <trkpt lat="46.17407" lon="6.81326">
        <ele>1845.1999511719</ele>
        <time>2016-02-27T10:18:58.000Z</time>
      </trkpt>
      <trkpt lat="46.17396" lon="6.81357">
        <ele>1842.5999755859</ele>
        <time>2016-02-27T10:19:00.000Z</time>
      </trkpt>
      <trkpt lat="46.17386" lon="6.81383">
        <ele>1839.4000244141</ele>
        <time>2016-02-27T10:19:02.000Z</time>
      </trkpt>
      <trkpt lat="46.17375" lon="6.81395">
        <ele>1837.8000488281</ele>
        <time>2016-02-27T10:19:07.000Z</time>
      </trkpt>
      <trkpt lat="46.17368" lon="6.81388">
        <ele>1837.8000488281</ele>
        <time>2016-02-27T10:21:04.000Z</time>
      </trkpt>
      <trkpt lat="46.17367" lon="6.81395">
        <ele>1837.5999755859</ele>
        <time>2016-02-27T10:23:53.000Z</time>
      </trkpt>
      <trkpt lat="46.17367" lon="6.81391">
        <ele>1837.5999755859</ele>
        <time>2016-02-27T10:26:30.000Z</time>
      </trkpt>
      <trkpt lat="46.17364" lon="6.81392">
        <ele>1837.5999755859</ele>
        <time>2016-02-27T10:29:02.000Z</time>
      </trkpt>
      <trkpt lat="46.17359" lon="6.81419">
        <ele>1835.4000244141</ele>
        <time>2016-02-27T10:29:21.000Z</time>
      </trkpt>
      <trkpt lat="46.17355" lon="6.81446">
        <ele>1831.8000488281</ele>
        <time>2016-02-27T10:29:24.000Z</time>
      </trkpt>
      <trkpt lat="46.17352" lon="6.81455">
        <ele>1831.1999511719</ele>
        <time>2016-02-27T10:29:25.000Z</time>
      </trkpt>
      <trkpt lat="46.17344" lon="6.81485">
        <ele>1830.1999511719</ele>
        <time>2016-02-27T10:29:28.000Z</time>
      </trkpt>
      <trkpt lat="46.1734" lon="6.8152">
        <ele>1827.4000244141</ele>
        <time>2016-02-27T10:29:31.000Z</time>
      </trkpt>
      <trkpt lat="46.1734" lon="6.81531">
        <ele>1826</ele>
        <time>2016-02-27T10:29:32.000Z</time>
      </trkpt>
      <trkpt lat="46.17341" lon="6.81559">
        <ele>1822.4000244141</ele>
        <time>2016-02-27T10:29:36.000Z</time>
      </trkpt>
      <trkpt lat="46.1734" lon="6.81572">
        <ele>1820.5999755859</ele>
        <time>2016-02-27T10:29:39.000Z</time>
      </trkpt>
      <trkpt lat="46.1734" lon="6.81575">
        <ele>1819.8000488281</ele>
        <time>2016-02-27T10:29:40.000Z</time>
      </trkpt>
      <trkpt lat="46.17338" lon="6.81597">
        <ele>1814.4000244141</ele>
        <time>2016-02-27T10:29:47.000Z</time>
      </trkpt>
      <trkpt lat="46.17336" lon="6.81609">
        <ele>1813.1999511719</ele>
        <time>2016-02-27T10:29:49.000Z</time>
      </trkpt>
      <trkpt lat="46.17334" lon="6.81636">
        <ele>1810.5999755859</ele>
        <time>2016-02-27T10:29:52.000Z</time>
      </trkpt>
      <trkpt lat="46.17331" lon="6.81657">
        <ele>1808.5999755859</ele>
        <time>2016-02-27T10:29:54.000Z</time>
      </trkpt>
      <trkpt lat="46.17326" lon="6.81689">
        <ele>1805.4000244141</ele>
        <time>2016-02-27T10:29:57.000Z</time>
      </trkpt>
      <trkpt lat="46.17325" lon="6.81707">
        <ele>1803.4000244141</ele>
        <time>2016-02-27T10:29:59.000Z</time>
      </trkpt>
      <trkpt lat="46.17325" lon="6.81736">
        <ele>1799.8000488281</ele>
        <time>2016-02-27T10:30:02.000Z</time>
      </trkpt>
      <trkpt lat="46.17327" lon="6.81745">
        <ele>1798.5999755859</ele>
        <time>2016-02-27T10:30:03.000Z</time>
      </trkpt>
      <trkpt lat="46.17329" lon="6.81757">
        <ele>1796.8000488281</ele>
        <time>2016-02-27T10:30:05.000Z</time>
      </trkpt>
      <trkpt lat="46.17329" lon="6.81767">
        <ele>1795.5999755859</ele>
        <time>2016-02-27T10:30:09.000Z</time>
      </trkpt>
      <trkpt lat="46.17339" lon="6.81787">
        <ele>1791.4000244141</ele>
        <time>2016-02-27T10:30:35.000Z</time>
      </trkpt>
      <trkpt lat="46.17353" lon="6.81807">
        <ele>1786.5999755859</ele>
        <time>2016-02-27T10:30:41.000Z</time>
      </trkpt>
      <trkpt lat="46.17354" lon="6.8181">
        <ele>1785.8000488281</ele>
        <time>2016-02-27T10:30:42.000Z</time>
      </trkpt>
      <trkpt lat="46.17356" lon="6.81835">
        <ele>1780.8000488281</ele>
        <time>2016-02-27T10:30:49.000Z</time>
      </trkpt>
      <trkpt lat="46.17352" lon="6.81853">
        <ele>1777.1999511719</ele>
        <time>2016-02-27T10:30:53.000Z</time>
      </trkpt>
      <trkpt lat="46.1735" lon="6.81857">
        <ele>1776.5999755859</ele>
        <time>2016-02-27T10:30:54.000Z</time>
      </trkpt>
      <trkpt lat="46.17349" lon="6.81885">
        <ele>1770</ele>
        <time>2016-02-27T10:30:57.000Z</time>
      </trkpt>
      <trkpt lat="46.17352" lon="6.81913">
        <ele>1763.1999511719</ele>
        <time>2016-02-27T10:30:59.000Z</time>
      </trkpt>
      <trkpt lat="46.17357" lon="6.81946">
        <ele>1755.5999755859</ele>
        <time>2016-02-27T10:31:01.000Z</time>
      </trkpt>
      <trkpt lat="46.17362" lon="6.81981">
        <ele>1749.1999511719</ele>
        <time>2016-02-27T10:31:03.000Z</time>
      </trkpt>
      <trkpt lat="46.17366" lon="6.82014">
        <ele>1746</ele>
        <time>2016-02-27T10:31:05.000Z</time>
      </trkpt>
      <trkpt lat="46.1737" lon="6.82045">
        <ele>1743.5999755859</ele>
        <time>2016-02-27T10:31:07.000Z</time>
      </trkpt>
      <trkpt lat="46.17373" lon="6.82073">
        <ele>1741.5999755859</ele>
        <time>2016-02-27T10:31:09.000Z</time>
      </trkpt>
      <trkpt lat="46.17375" lon="6.82102">
        <ele>1739.4000244141</ele>
        <time>2016-02-27T10:31:14.000Z</time>
      </trkpt>
      <trkpt lat="46.17378" lon="6.8213">
        <ele>1737</ele>
        <time>2016-02-27T10:31:27.000Z</time>
      </trkpt>
      <trkpt lat="46.17387" lon="6.82159">
        <ele>1733.4000244141</ele>
        <time>2016-02-27T10:31:31.000Z</time>
      </trkpt>
      <trkpt lat="46.17396" lon="6.82175">
        <ele>1730</ele>
        <time>2016-02-27T10:31:33.000Z</time>
      </trkpt>
      <trkpt lat="46.17409" lon="6.82196">
        <ele>1726.1999511719</ele>
        <time>2016-02-27T10:31:36.000Z</time>
      </trkpt>
      <trkpt lat="46.17421" lon="6.82222">
        <ele>1722.1999511719</ele>
        <time>2016-02-27T10:31:39.000Z</time>
      </trkpt>
      <trkpt lat="46.17428" lon="6.82243">
        <ele>1719.4000244141</ele>
        <time>2016-02-27T10:31:41.000Z</time>
      </trkpt>
      <trkpt lat="46.17437" lon="6.82276">
        <ele>1715.8000488281</ele>
        <time>2016-02-27T10:31:43.000Z</time>
      </trkpt>
      <trkpt lat="46.17445" lon="6.82312">
        <ele>1710.4000244141</ele>
        <time>2016-02-27T10:31:45.000Z</time>
      </trkpt>
      <trkpt lat="46.17451" lon="6.82348">
        <ele>1706.8000488281</ele>
        <time>2016-02-27T10:31:47.000Z</time>
      </trkpt>
      <trkpt lat="46.17454" lon="6.82382">
        <ele>1704</ele>
        <time>2016-02-27T10:31:49.000Z</time>
      </trkpt>
      <trkpt lat="46.17454" lon="6.82414">
        <ele>1700</ele>
        <time>2016-02-27T10:31:51.000Z</time>
      </trkpt>
      <trkpt lat="46.17451" lon="6.82446">
        <ele>1698</ele>
        <time>2016-02-27T10:31:53.000Z</time>
      </trkpt>
      <trkpt lat="46.17448" lon="6.82478">
        <ele>1694.5999755859</ele>
        <time>2016-02-27T10:31:55.000Z</time>
      </trkpt>
      <trkpt lat="46.17445" lon="6.82493">
        <ele>1692.4000244141</ele>
        <time>2016-02-27T10:31:56.000Z</time>
      </trkpt>
      <trkpt lat="46.17436" lon="6.82529">
        <ele>1688.5999755859</ele>
        <time>2016-02-27T10:31:58.000Z</time>
      </trkpt>
      <trkpt lat="46.17428" lon="6.82564">
        <ele>1683.4000244141</ele>
        <time>2016-02-27T10:32:00.000Z</time>
      </trkpt>
      <trkpt lat="46.17419" lon="6.82598">
        <ele>1681.8000488281</ele>
        <time>2016-02-27T10:32:02.000Z</time>
      </trkpt>
      <trkpt lat="46.17414" lon="6.82629">
        <ele>1681.4000244141</ele>
        <time>2016-02-27T10:32:04.000Z</time>
      </trkpt>
      <trkpt lat="46.17407" lon="6.82654">
        <ele>1680.8000488281</ele>
        <time>2016-02-27T10:32:06.000Z</time>
      </trkpt>
      <trkpt lat="46.17401" lon="6.82674">
        <ele>1681.1999511719</ele>
        <time>2016-02-27T10:32:08.000Z</time>
      </trkpt>
      <trkpt lat="46.17394" lon="6.82698">
        <ele>1681</ele>
        <time>2016-02-27T10:32:12.000Z</time>
      </trkpt>
      <trkpt lat="46.17391" lon="6.8272">
        <ele>1681.5999755859</ele>
        <time>2016-02-27T10:32:26.000Z</time>
      </trkpt>
      <trkpt lat="46.17391" lon="6.82722">
        <ele>1681.5999755859</ele>
        <time>2016-02-27T10:32:27.000Z</time>
      </trkpt>
      <trkpt lat="46.17389" lon="6.82726">
        <ele>1681.5999755859</ele>
        <time>2016-02-27T10:32:29.000Z</time>
      </trkpt>
      <trkpt lat="46.17387" lon="6.8273">
        <ele>1681.5999755859</ele>
        <time>2016-02-27T10:32:36.000Z</time>
      </trkpt>
      <trkpt lat="46.17376" lon="6.82747">
        <ele>1681.8000488281</ele>
        <time>2016-02-27T10:33:29.000Z</time>
      </trkpt>
      <trkpt lat="46.17392" lon="6.82738">
        <ele>1682.5999755859</ele>
        <time>2016-02-27T10:34:09.000Z</time>
      </trkpt>
      <trkpt lat="46.17408" lon="6.82725">
        <ele>1684.8000488281</ele>
        <time>2016-02-27T10:34:19.000Z</time>
      </trkpt>
      <trkpt lat="46.17422" lon="6.82708">
        <ele>1686.8000488281</ele>
        <time>2016-02-27T10:34:29.000Z</time>
      </trkpt>
      <trkpt lat="46.17437" lon="6.82692">
        <ele>1688.5999755859</ele>
        <time>2016-02-27T10:34:40.000Z</time>
      </trkpt>
      <trkpt lat="46.17452" lon="6.82676">
        <ele>1689.1999511719</ele>
        <time>2016-02-27T10:34:50.000Z</time>
      </trkpt>
      <trkpt lat="46.17465" lon="6.82658">
        <ele>1689.4000244141</ele>
        <time>2016-02-27T10:35:01.000Z</time>
      </trkpt>
      <trkpt lat="46.1748" lon="6.82641">
        <ele>1691.4000244141</ele>
        <time>2016-02-27T10:35:11.000Z</time>
      </trkpt>
      <trkpt lat="46.17496" lon="6.82624">
        <ele>1695.5999755859</ele>
        <time>2016-02-27T10:35:22.000Z</time>
      </trkpt>
      <trkpt lat="46.17512" lon="6.82608">
        <ele>1700</ele>
        <time>2016-02-27T10:35:33.000Z</time>
      </trkpt>
      <trkpt lat="46.17528" lon="6.82592">
        <ele>1704.8000488281</ele>
        <time>2016-02-27T10:35:44.000Z</time>
      </trkpt>
      <trkpt lat="46.17549" lon="6.82571">
        <ele>1711.1999511719</ele>
        <time>2016-02-27T10:35:59.000Z</time>
      </trkpt>
      <trkpt lat="46.17563" lon="6.82553">
        <ele>1716.8000488281</ele>
        <time>2016-02-27T10:36:08.000Z</time>
      </trkpt>
      <trkpt lat="46.17577" lon="6.82535">
        <ele>1723.1999511719</ele>
        <time>2016-02-27T10:36:19.000Z</time>
      </trkpt>
      <trkpt lat="46.17592" lon="6.82518">
        <ele>1730</ele>
        <time>2016-02-27T10:36:30.000Z</time>
      </trkpt>
      <trkpt lat="46.17607" lon="6.82501">
        <ele>1736.8000488281</ele>
        <time>2016-02-27T10:36:41.000Z</time>
      </trkpt>
      <trkpt lat="46.17623" lon="6.82487">
        <ele>1743.8000488281</ele>
        <time>2016-02-27T10:36:52.000Z</time>
      </trkpt>
      <trkpt lat="46.17638" lon="6.8247">
        <ele>1751.1999511719</ele>
        <time>2016-02-27T10:37:03.000Z</time>
      </trkpt>
      <trkpt lat="46.17652" lon="6.82452">
        <ele>1757.5999755859</ele>
        <time>2016-02-27T10:37:14.000Z</time>
      </trkpt>
      <trkpt lat="46.17662" lon="6.82438">
        <ele>1762.5999755859</ele>
        <time>2016-02-27T10:37:52.000Z</time>
      </trkpt>
      <trkpt lat="46.17676" lon="6.82422">
        <ele>1768.1999511719</ele>
        <time>2016-02-27T10:38:03.000Z</time>
      </trkpt>
      <trkpt lat="46.17692" lon="6.82407">
        <ele>1773.1999511719</ele>
        <time>2016-02-27T10:38:14.000Z</time>
      </trkpt>
      <trkpt lat="46.17706" lon="6.8239">
        <ele>1778</ele>
        <time>2016-02-27T10:38:25.000Z</time>
      </trkpt>
      <trkpt lat="46.17722" lon="6.82375">
        <ele>1784.1999511719</ele>
        <time>2016-02-27T10:38:37.000Z</time>
      </trkpt>
      <trkpt lat="46.17737" lon="6.82357">
        <ele>1790.8000488281</ele>
        <time>2016-02-27T10:38:48.000Z</time>
      </trkpt>
      <trkpt lat="46.17756" lon="6.82332">
        <ele>1800</ele>
        <time>2016-02-27T10:39:02.000Z</time>
      </trkpt>
      <trkpt lat="46.17771" lon="6.82317">
        <ele>1807.1999511719</ele>
        <time>2016-02-27T10:39:12.000Z</time>
      </trkpt>
      <trkpt lat="46.17786" lon="6.82301">
        <ele>1814.8000488281</ele>
        <time>2016-02-27T10:39:23.000Z</time>
      </trkpt>
      <trkpt lat="46.17801" lon="6.82284">
        <ele>1823.8000488281</ele>
        <time>2016-02-27T10:39:34.000Z</time>
      </trkpt>
      <trkpt lat="46.17813" lon="6.82274">
        <ele>1830.4000244141</ele>
        <time>2016-02-27T10:39:42.000Z</time>
      </trkpt>
      <trkpt lat="46.17829" lon="6.82258">
        <ele>1839.1999511719</ele>
        <time>2016-02-27T10:39:53.000Z</time>
      </trkpt>
      <trkpt lat="46.17844" lon="6.82241">
        <ele>1847.8000488281</ele>
        <time>2016-02-27T10:40:04.000Z</time>
      </trkpt>
      <trkpt lat="46.17861" lon="6.82217">
        <ele>1858.1999511719</ele>
        <time>2016-02-27T10:40:19.000Z</time>
      </trkpt>
      <trkpt lat="46.17876" lon="6.822">
        <ele>1867.1999511719</ele>
        <time>2016-02-27T10:40:31.000Z</time>
      </trkpt>
      <trkpt lat="46.17893" lon="6.82186">
        <ele>1876.1999511719</ele>
        <time>2016-02-27T10:40:42.000Z</time>
      </trkpt>
      <trkpt lat="46.17907" lon="6.82171">
        <ele>1881.8000488281</ele>
        <time>2016-02-27T10:40:53.000Z</time>
      </trkpt>
      <trkpt lat="46.17922" lon="6.82153">
        <ele>1890.1999511719</ele>
        <time>2016-02-27T10:41:05.000Z</time>
      </trkpt>
      <trkpt lat="46.17934" lon="6.82129">
        <ele>1895.5999755859</ele>
        <time>2016-02-27T10:41:15.000Z</time>
      </trkpt>
      <trkpt lat="46.17949" lon="6.82111">
        <ele>1904</ele>
        <time>2016-02-27T10:41:27.000Z</time>
      </trkpt>
      <trkpt lat="46.17972" lon="6.82088">
        <ele>1920.5999755859</ele>
        <time>2016-02-27T10:41:44.000Z</time>
      </trkpt>
      <trkpt lat="46.1799" lon="6.82075">
        <ele>1925.8000488281</ele>
        <time>2016-02-27T10:41:57.000Z</time>
      </trkpt>
      <trkpt lat="46.18005" lon="6.82059">
        <ele>1929.5999755859</ele>
        <time>2016-02-27T10:42:14.000Z</time>
      </trkpt>
      <trkpt lat="46.1802" lon="6.82042">
        <ele>1933.4000244141</ele>
        <time>2016-02-27T10:42:27.000Z</time>
      </trkpt>
      <trkpt lat="46.18037" lon="6.82024">
        <ele>1941.5999755859</ele>
        <time>2016-02-27T10:42:42.000Z</time>
      </trkpt>
      <trkpt lat="46.18053" lon="6.82007">
        <ele>1951.1999511719</ele>
        <time>2016-02-27T10:42:52.000Z</time>
      </trkpt>
      <trkpt lat="46.18057" lon="6.81993">
        <ele>1957.5999755859</ele>
        <time>2016-02-27T10:42:59.000Z</time>
      </trkpt>
      <trkpt lat="46.18071" lon="6.81974">
        <ele>1958.5999755859</ele>
        <time>2016-02-27T10:43:58.000Z</time>
      </trkpt>
      <trkpt lat="46.18075" lon="6.8197">
        <ele>1958</ele>
        <time>2016-02-27T10:44:00.000Z</time>
      </trkpt>
      <trkpt lat="46.1808" lon="6.8197">
        <ele>1956.5999755859</ele>
        <time>2016-02-27T10:44:04.000Z</time>
      </trkpt>
      <trkpt lat="46.1809" lon="6.81958">
        <ele>1955.1999511719</ele>
        <time>2016-02-27T10:44:13.000Z</time>
      </trkpt>
      <trkpt lat="46.18098" lon="6.81967">
        <ele>1952</ele>
        <time>2016-02-27T10:44:18.000Z</time>
      </trkpt>
      <trkpt lat="46.18117" lon="6.81963">
        <ele>1947</ele>
        <time>2016-02-27T10:44:24.000Z</time>
      </trkpt>
      <trkpt lat="46.18125" lon="6.8196">
        <ele>1946.1999511719</ele>
        <time>2016-02-27T10:44:25.000Z</time>
      </trkpt>
      <trkpt lat="46.18133" lon="6.81962">
        <ele>1944.5999755859</ele>
        <time>2016-02-27T10:44:26.000Z</time>
      </trkpt>
      <trkpt lat="46.18153" lon="6.81968">
        <ele>1940.8000488281</ele>
        <time>2016-02-27T10:44:28.000Z</time>
      </trkpt>
      <trkpt lat="46.18172" lon="6.81975">
        <ele>1937.5999755859</ele>
        <time>2016-02-27T10:44:30.000Z</time>
      </trkpt>
      <trkpt lat="46.18179" lon="6.81975">
        <ele>1937</ele>
        <time>2016-02-27T10:44:31.000Z</time>
      </trkpt>
      <trkpt lat="46.18198" lon="6.8197">
        <ele>1936.5999755859</ele>
        <time>2016-02-27T10:44:36.000Z</time>
      </trkpt>
      <trkpt lat="46.18201" lon="6.81977">
        <ele>1934.8000488281</ele>
        <time>2016-02-27T10:45:02.000Z</time>
      </trkpt>
      <trkpt lat="46.18204" lon="6.82003">
        <ele>1930</ele>
        <time>2016-02-27T10:45:17.000Z</time>
      </trkpt>
      <trkpt lat="46.1821" lon="6.82019">
        <ele>1927.1999511719</ele>
        <time>2016-02-27T10:45:21.000Z</time>
      </trkpt>
      <trkpt lat="46.18212" lon="6.82033">
        <ele>1925</ele>
        <time>2016-02-27T10:45:24.000Z</time>
      </trkpt>
      <trkpt lat="46.182" lon="6.82061">
        <ele>1918.8000488281</ele>
        <time>2016-02-27T10:45:31.000Z</time>
      </trkpt>
      <trkpt lat="46.18199" lon="6.82068">
        <ele>1916.1999511719</ele>
        <time>2016-02-27T10:45:33.000Z</time>
      </trkpt>
      <trkpt lat="46.18185" lon="6.82091">
        <ele>1908</ele>
        <time>2016-02-27T10:45:40.000Z</time>
      </trkpt>
      <trkpt lat="46.18168" lon="6.82103">
        <ele>1902.4000244141</ele>
        <time>2016-02-27T10:45:47.000Z</time>
      </trkpt>
      <trkpt lat="46.18148" lon="6.82116">
        <ele>1896.5999755859</ele>
        <time>2016-02-27T10:45:52.000Z</time>
      </trkpt>
      <trkpt lat="46.18141" lon="6.82132">
        <ele>1892.5999755859</ele>
        <time>2016-02-27T10:45:59.000Z</time>
      </trkpt>
      <trkpt lat="46.18144" lon="6.82146">
        <ele>1887.8000488281</ele>
        <time>2016-02-27T10:46:03.000Z</time>
      </trkpt>
      <trkpt lat="46.18138" lon="6.8217">
        <ele>1881.8000488281</ele>
        <time>2016-02-27T10:46:07.000Z</time>
      </trkpt>
      <trkpt lat="46.18135" lon="6.82201">
        <ele>1873.5999755859</ele>
        <time>2016-02-27T10:46:10.000Z</time>
      </trkpt>
      <trkpt lat="46.18137" lon="6.82212">
        <ele>1870.4000244141</ele>
        <time>2016-02-27T10:46:11.000Z</time>
      </trkpt>
      <trkpt lat="46.18138" lon="6.82223">
        <ele>1867.1999511719</ele>
        <time>2016-02-27T10:46:12.000Z</time>
      </trkpt>
      <trkpt lat="46.18133" lon="6.82251">
        <ele>1862</ele>
        <time>2016-02-27T10:46:14.000Z</time>
      </trkpt>
      <trkpt lat="46.18128" lon="6.82279">
        <ele>1859.1999511719</ele>
        <time>2016-02-27T10:46:16.000Z</time>
      </trkpt>
      <trkpt lat="46.18124" lon="6.82294">
        <ele>1857.8000488281</ele>
        <time>2016-02-27T10:46:17.000Z</time>
      </trkpt>
      <trkpt lat="46.18121" lon="6.82323">
        <ele>1852</ele>
        <time>2016-02-27T10:46:19.000Z</time>
      </trkpt>
      <trkpt lat="46.18123" lon="6.82358">
        <ele>1845</ele>
        <time>2016-02-27T10:46:22.000Z</time>
      </trkpt>
      <trkpt lat="46.18129" lon="6.82377">
        <ele>1841.1999511719</ele>
        <time>2016-02-27T10:46:25.000Z</time>
      </trkpt>
      <trkpt lat="46.1812" lon="6.82389">
        <ele>1839</ele>
        <time>2016-02-27T10:47:07.000Z</time>
      </trkpt>
      <trkpt lat="46.18114" lon="6.8242">
        <ele>1833.5999755859</ele>
        <time>2016-02-27T10:47:10.000Z</time>
      </trkpt>
      <trkpt lat="46.18108" lon="6.82453">
        <ele>1829</ele>
        <time>2016-02-27T10:47:12.000Z</time>
      </trkpt>
      <trkpt lat="46.181" lon="6.82495">
        <ele>1823.4000244141</ele>
        <time>2016-02-27T10:47:14.000Z</time>
      </trkpt>
      <trkpt lat="46.18095" lon="6.82538">
        <ele>1820.4000244141</ele>
        <time>2016-02-27T10:47:16.000Z</time>
      </trkpt>
      <trkpt lat="46.18091" lon="6.82573">
        <ele>1819.4000244141</ele>
        <time>2016-02-27T10:47:18.000Z</time>
      </trkpt>
      <trkpt lat="46.18089" lon="6.82584">
        <ele>1818.1999511719</ele>
        <time>2016-02-27T10:47:19.000Z</time>
      </trkpt>
      <trkpt lat="46.18088" lon="6.82598">
        <ele>1816.5999755859</ele>
        <time>2016-02-27T10:47:24.000Z</time>
      </trkpt>
      <trkpt lat="46.18088" lon="6.82599">
        <ele>1816.5999755859</ele>
        <time>2016-02-27T10:47:25.000Z</time>
      </trkpt>
      <trkpt lat="46.18086" lon="6.82625">
        <ele>1816</ele>
        <time>2016-02-27T10:48:00.000Z</time>
      </trkpt>
      <trkpt lat="46.18084" lon="6.82652">
        <ele>1815.4000244141</ele>
        <time>2016-02-27T10:48:08.000Z</time>
      </trkpt>
      <trkpt lat="46.1808" lon="6.82672">
        <ele>1811.4000244141</ele>
        <time>2016-02-27T10:48:12.000Z</time>
      </trkpt>
      <trkpt lat="46.18069" lon="6.827">
        <ele>1807.1999511719</ele>
        <time>2016-02-27T10:48:16.000Z</time>
      </trkpt>
      <trkpt lat="46.18066" lon="6.82707">
        <ele>1806.1999511719</ele>
        <time>2016-02-27T10:48:17.000Z</time>
      </trkpt>
      <trkpt lat="46.1805" lon="6.82725">
        <ele>1804.5999755859</ele>
        <time>2016-02-27T10:48:21.000Z</time>
      </trkpt>
      <trkpt lat="46.18048" lon="6.82748">
        <ele>1800.1999511719</ele>
        <time>2016-02-27T10:48:30.000Z</time>
      </trkpt>
      <trkpt lat="46.18057" lon="6.82761">
        <ele>1795</ele>
        <time>2016-02-27T10:48:32.000Z</time>
      </trkpt>
      <trkpt lat="46.18069" lon="6.82787">
        <ele>1786.1999511719</ele>
        <time>2016-02-27T10:48:36.000Z</time>
      </trkpt>
      <trkpt lat="46.18075" lon="6.82801">
        <ele>1781.4000244141</ele>
        <time>2016-02-27T10:48:38.000Z</time>
      </trkpt>
      <trkpt lat="46.18083" lon="6.8282">
        <ele>1775.1999511719</ele>
        <time>2016-02-27T10:48:40.000Z</time>
      </trkpt>
      <trkpt lat="46.18095" lon="6.82844">
        <ele>1767.8000488281</ele>
        <time>2016-02-27T10:48:42.000Z</time>
      </trkpt>
      <trkpt lat="46.18114" lon="6.82868">
        <ele>1759.4000244141</ele>
        <time>2016-02-27T10:48:45.000Z</time>
      </trkpt>
      <trkpt lat="46.18135" lon="6.82881">
        <ele>1753</ele>
        <time>2016-02-27T10:48:47.000Z</time>
      </trkpt>
      <trkpt lat="46.18156" lon="6.82904">
        <ele>1745.4000244141</ele>
        <time>2016-02-27T10:48:49.000Z</time>
      </trkpt>
      <trkpt lat="46.18165" lon="6.82917">
        <ele>1742.1999511719</ele>
        <time>2016-02-27T10:48:50.000Z</time>
      </trkpt>
      <trkpt lat="46.18178" lon="6.82946">
        <ele>1736</ele>
        <time>2016-02-27T10:48:52.000Z</time>
      </trkpt>
      <trkpt lat="46.18181" lon="6.82973">
        <ele>1731.5999755859</ele>
        <time>2016-02-27T10:48:54.000Z</time>
      </trkpt>
      <trkpt lat="46.18183" lon="6.82999">
        <ele>1726.8000488281</ele>
        <time>2016-02-27T10:48:56.000Z</time>
      </trkpt>
      <trkpt lat="46.18189" lon="6.83032">
        <ele>1719.8000488281</ele>
        <time>2016-02-27T10:48:59.000Z</time>
      </trkpt>
      <trkpt lat="46.18191" lon="6.83064">
        <ele>1714</ele>
        <time>2016-02-27T10:49:01.000Z</time>
      </trkpt>
      <trkpt lat="46.18194" lon="6.83077">
        <ele>1711.5999755859</ele>
        <time>2016-02-27T10:49:02.000Z</time>
      </trkpt>
      <trkpt lat="46.18214" lon="6.83107">
        <ele>1707.1999511719</ele>
        <time>2016-02-27T10:49:04.000Z</time>
      </trkpt>
      <trkpt lat="46.18232" lon="6.83137">
        <ele>1703</ele>
        <time>2016-02-27T10:49:06.000Z</time>
      </trkpt>
      <trkpt lat="46.18255" lon="6.83162">
        <ele>1699.4000244141</ele>
        <time>2016-02-27T10:49:08.000Z</time>
      </trkpt>
      <trkpt lat="46.18274" lon="6.83165">
        <ele>1697.8000488281</ele>
        <time>2016-02-27T10:49:09.000Z</time>
      </trkpt>
      <trkpt lat="46.18296" lon="6.83182">
        <ele>1694.5999755859</ele>
        <time>2016-02-27T10:49:11.000Z</time>
      </trkpt>
      <trkpt lat="46.18312" lon="6.83197">
        <ele>1692</ele>
        <time>2016-02-27T10:49:13.000Z</time>
      </trkpt>
      <trkpt lat="46.18324" lon="6.83212">
        <ele>1691.1999511719</ele>
        <time>2016-02-27T10:49:15.000Z</time>
      </trkpt>
      <trkpt lat="46.18335" lon="6.83245">
        <ele>1688.5999755859</ele>
        <time>2016-02-27T10:49:18.000Z</time>
      </trkpt>
      <trkpt lat="46.18338" lon="6.83256">
        <ele>1687.8000488281</ele>
        <time>2016-02-27T10:49:19.000Z</time>
      </trkpt>
      <trkpt lat="46.18343" lon="6.83282">
        <ele>1686.4000244141</ele>
        <time>2016-02-27T10:49:21.000Z</time>
      </trkpt>
      <trkpt lat="46.18349" lon="6.83316">
        <ele>1685.1999511719</ele>
        <time>2016-02-27T10:49:24.000Z</time>
      </trkpt>
      <trkpt lat="46.18353" lon="6.83336">
        <ele>1684.5999755859</ele>
        <time>2016-02-27T10:49:27.000Z</time>
      </trkpt>
      <trkpt lat="46.18356" lon="6.83341">
        <ele>1684.5999755859</ele>
        <time>2016-02-27T10:49:31.000Z</time>
      </trkpt>
      <trkpt lat="46.18357" lon="6.8334">
        <ele>1684.5999755859</ele>
        <time>2016-02-27T10:49:32.000Z</time>
      </trkpt>
      <trkpt lat="46.18363" lon="6.83312">
        <ele>1685.4000244141</ele>
        <time>2016-02-27T10:50:33.000Z</time>
      </trkpt>
      <trkpt lat="46.18362" lon="6.83282">
        <ele>1686.8000488281</ele>
        <time>2016-02-27T10:50:51.000Z</time>
      </trkpt>
      <trkpt lat="46.18364" lon="6.83252">
        <ele>1689.4000244141</ele>
        <time>2016-02-27T10:50:56.000Z</time>
      </trkpt>
      <trkpt lat="46.18363" lon="6.83223">
        <ele>1692</ele>
        <time>2016-02-27T10:51:00.000Z</time>
      </trkpt>
      <trkpt lat="46.18363" lon="6.83196">
        <ele>1694.1999511719</ele>
        <time>2016-02-27T10:51:04.000Z</time>
      </trkpt>
      <trkpt lat="46.18363" lon="6.83169">
        <ele>1695.8000488281</ele>
        <time>2016-02-27T10:51:08.000Z</time>
      </trkpt>
      <trkpt lat="46.18362" lon="6.83137">
        <ele>1700</ele>
        <time>2016-02-27T10:51:13.000Z</time>
      </trkpt>
      <trkpt lat="46.1836" lon="6.83107">
        <ele>1705.1999511719</ele>
        <time>2016-02-27T10:51:18.000Z</time>
      </trkpt>
      <trkpt lat="46.18358" lon="6.83077">
        <ele>1710.8000488281</ele>
        <time>2016-02-27T10:51:23.000Z</time>
      </trkpt>
      <trkpt lat="46.18356" lon="6.83046">
        <ele>1716.8000488281</ele>
        <time>2016-02-27T10:51:28.000Z</time>
      </trkpt>
      <trkpt lat="46.18356" lon="6.83017">
        <ele>1722</ele>
        <time>2016-02-27T10:51:33.000Z</time>
      </trkpt>
      <trkpt lat="46.18356" lon="6.8299">
        <ele>1726.1999511719</ele>
        <time>2016-02-27T10:51:38.000Z</time>
      </trkpt>
      <trkpt lat="46.18355" lon="6.82958">
        <ele>1732.8000488281</ele>
        <time>2016-02-27T10:51:42.000Z</time>
      </trkpt>
      <trkpt lat="46.18352" lon="6.82928">
        <ele>1739</ele>
        <time>2016-02-27T10:51:46.000Z</time>
      </trkpt>
      <trkpt lat="46.1835" lon="6.829">
        <ele>1744.5999755859</ele>
        <time>2016-02-27T10:51:50.000Z</time>
      </trkpt>
      <trkpt lat="46.1835" lon="6.82881">
        <ele>1747.5999755859</ele>
        <time>2016-02-27T10:51:53.000Z</time>
      </trkpt>
      <trkpt lat="46.18349" lon="6.82856">
        <ele>1752</ele>
        <time>2016-02-27T10:51:57.000Z</time>
      </trkpt>
      <trkpt lat="46.18346" lon="6.82824">
        <ele>1757.8000488281</ele>
        <time>2016-02-27T10:52:02.000Z</time>
      </trkpt>
      <trkpt lat="46.18345" lon="6.82793">
        <ele>1763.1999511719</ele>
        <time>2016-02-27T10:52:07.000Z</time>
      </trkpt>
      <trkpt lat="46.18344" lon="6.82762">
        <ele>1768.8000488281</ele>
        <time>2016-02-27T10:52:12.000Z</time>
      </trkpt>
      <trkpt lat="46.18341" lon="6.82731">
        <ele>1776</ele>
        <time>2016-02-27T10:52:17.000Z</time>
      </trkpt>
      <trkpt lat="46.18339" lon="6.827">
        <ele>1783.8000488281</ele>
        <time>2016-02-27T10:52:22.000Z</time>
      </trkpt>
      <trkpt lat="46.18338" lon="6.8267">
        <ele>1791.1999511719</ele>
        <time>2016-02-27T10:52:27.000Z</time>
      </trkpt>
      <trkpt lat="46.18336" lon="6.8264">
        <ele>1799</ele>
        <time>2016-02-27T10:52:32.000Z</time>
      </trkpt>
      <trkpt lat="46.18338" lon="6.82611">
        <ele>1807.4000244141</ele>
        <time>2016-02-27T10:52:37.000Z</time>
      </trkpt>
      <trkpt lat="46.18337" lon="6.82584">
        <ele>1814.4000244141</ele>
        <time>2016-02-27T10:52:42.000Z</time>
      </trkpt>
      <trkpt lat="46.18336" lon="6.82557">
        <ele>1819.5999755859</ele>
        <time>2016-02-27T10:52:46.000Z</time>
      </trkpt>
      <trkpt lat="46.18333" lon="6.82531">
        <ele>1824.1999511719</ele>
        <time>2016-02-27T10:52:50.000Z</time>
      </trkpt>
      <trkpt lat="46.18331" lon="6.82504">
        <ele>1828.8000488281</ele>
        <time>2016-02-27T10:52:54.000Z</time>
      </trkpt>
      <trkpt lat="46.18329" lon="6.82478">
        <ele>1833</ele>
        <time>2016-02-27T10:52:58.000Z</time>
      </trkpt>
      <trkpt lat="46.18328" lon="6.82452">
        <ele>1837</ele>
        <time>2016-02-27T10:53:02.000Z</time>
      </trkpt>
      <trkpt lat="46.18327" lon="6.82422">
        <ele>1841.1999511719</ele>
        <time>2016-02-27T10:53:07.000Z</time>
      </trkpt>
      <trkpt lat="46.18325" lon="6.8239">
        <ele>1846.1999511719</ele>
        <time>2016-02-27T10:53:12.000Z</time>
      </trkpt>
      <trkpt lat="46.18323" lon="6.82364">
        <ele>1849.1999511719</ele>
        <time>2016-02-27T10:53:16.000Z</time>
      </trkpt>
      <trkpt lat="46.18322" lon="6.82332">
        <ele>1853</ele>
        <time>2016-02-27T10:53:21.000Z</time>
      </trkpt>
      <trkpt lat="46.18321" lon="6.82306">
        <ele>1858.1999511719</ele>
        <time>2016-02-27T10:53:25.000Z</time>
      </trkpt>
      <trkpt lat="46.1832" lon="6.82293">
        <ele>1861.1999511719</ele>
        <time>2016-02-27T10:53:27.000Z</time>
      </trkpt>
      <trkpt lat="46.1832" lon="6.82264">
        <ele>1867.8000488281</ele>
        <time>2016-02-27T10:53:32.000Z</time>
      </trkpt>
      <trkpt lat="46.1832" lon="6.82237">
        <ele>1874.5999755859</ele>
        <time>2016-02-27T10:53:37.000Z</time>
      </trkpt>
      <trkpt lat="46.18321" lon="6.8221">
        <ele>1885.4000244141</ele>
        <time>2016-02-27T10:53:42.000Z</time>
      </trkpt>
      <trkpt lat="46.18322" lon="6.82184">
        <ele>1896</ele>
        <time>2016-02-27T10:53:47.000Z</time>
      </trkpt>
      <trkpt lat="46.18322" lon="6.82179">
        <ele>1898.1999511719</ele>
        <time>2016-02-27T10:53:48.000Z</time>
      </trkpt>
      <trkpt lat="46.18321" lon="6.82151">
        <ele>1908.5999755859</ele>
        <time>2016-02-27T10:53:53.000Z</time>
      </trkpt>
      <trkpt lat="46.1832" lon="6.82121">
        <ele>1917.5999755859</ele>
        <time>2016-02-27T10:53:59.000Z</time>
      </trkpt>
      <trkpt lat="46.18318" lon="6.8209">
        <ele>1926.8000488281</ele>
        <time>2016-02-27T10:54:04.000Z</time>
      </trkpt>
      <trkpt lat="46.18317" lon="6.82062">
        <ele>1934</ele>
        <time>2016-02-27T10:54:08.000Z</time>
      </trkpt>
      <trkpt lat="46.18315" lon="6.82035">
        <ele>1937.4000244141</ele>
        <time>2016-02-27T10:54:12.000Z</time>
      </trkpt>
      <trkpt lat="46.18314" lon="6.82003">
        <ele>1941.4000244141</ele>
        <time>2016-02-27T10:54:17.000Z</time>
      </trkpt>
      <trkpt lat="46.18312" lon="6.81976">
        <ele>1946.4000244141</ele>
        <time>2016-02-27T10:54:21.000Z</time>
      </trkpt>
      <trkpt lat="46.1831" lon="6.81945">
        <ele>1954.4000244141</ele>
        <time>2016-02-27T10:54:26.000Z</time>
      </trkpt>
      <trkpt lat="46.18308" lon="6.81914">
        <ele>1962.1999511719</ele>
        <time>2016-02-27T10:54:31.000Z</time>
      </trkpt>
      <trkpt lat="46.18307" lon="6.81886">
        <ele>1969.4000244141</ele>
        <time>2016-02-27T10:54:36.000Z</time>
      </trkpt>
      <trkpt lat="46.18307" lon="6.81858">
        <ele>1977</ele>
        <time>2016-02-27T10:54:41.000Z</time>
      </trkpt>
      <trkpt lat="46.18306" lon="6.81827">
        <ele>1985</ele>
        <time>2016-02-27T10:54:46.000Z</time>
      </trkpt>
      <trkpt lat="46.18306" lon="6.818">
        <ele>1993</ele>
        <time>2016-02-27T10:54:51.000Z</time>
      </trkpt>
      <trkpt lat="46.18306" lon="6.81771">
        <ele>2001.1999511719</ele>
        <time>2016-02-27T10:54:56.000Z</time>
      </trkpt>
      <trkpt lat="46.18307" lon="6.81736">
        <ele>2011.5999755859</ele>
        <time>2016-02-27T10:55:03.000Z</time>
      </trkpt>
      <trkpt lat="46.18306" lon="6.81707">
        <ele>2023.8000488281</ele>
        <time>2016-02-27T10:55:08.000Z</time>
      </trkpt>
      <trkpt lat="46.18308" lon="6.81679">
        <ele>2035.8000488281</ele>
        <time>2016-02-27T10:55:14.000Z</time>
      </trkpt>
      <trkpt lat="46.18309" lon="6.81652">
        <ele>2047.5999755859</ele>
        <time>2016-02-27T10:55:20.000Z</time>
      </trkpt>
      <trkpt lat="46.18307" lon="6.81624">
        <ele>2062.8000488281</ele>
        <time>2016-02-27T10:55:25.000Z</time>
      </trkpt>
      <trkpt lat="46.18306" lon="6.81597">
        <ele>2077.8000488281</ele>
        <time>2016-02-27T10:55:30.000Z</time>
      </trkpt>
      <trkpt lat="46.18306" lon="6.81568">
        <ele>2093.3999023438</ele>
        <time>2016-02-27T10:55:35.000Z</time>
      </trkpt>
      <trkpt lat="46.18306" lon="6.8154">
        <ele>2106</ele>
        <time>2016-02-27T10:55:40.000Z</time>
      </trkpt>
      <trkpt lat="46.18302" lon="6.8151">
        <ele>2119.3999023438</ele>
        <time>2016-02-27T10:55:46.000Z</time>
      </trkpt>
      <trkpt lat="46.18301" lon="6.81506">
        <ele>2121.3999023438</ele>
        <time>2016-02-27T10:55:48.000Z</time>
      </trkpt>
      <trkpt lat="46.18302" lon="6.81499">
        <ele>2124.6000976562</ele>
        <time>2016-02-27T10:55:52.000Z</time>
      </trkpt>
      <trkpt lat="46.18294" lon="6.81468">
        <ele>2128</ele>
        <time>2016-02-27T10:56:00.000Z</time>
      </trkpt>
      <trkpt lat="46.18289" lon="6.81453">
        <ele>2126.1999511719</ele>
        <time>2016-02-27T10:56:07.000Z</time>
      </trkpt>
      <trkpt lat="46.1828" lon="6.8143">
        <ele>2123.3999023438</ele>
        <time>2016-02-27T10:56:29.000Z</time>
      </trkpt>
      <trkpt lat="46.18277" lon="6.81407">
        <ele>2120.6000976562</ele>
        <time>2016-02-27T10:57:27.000Z</time>
      </trkpt>
      <trkpt lat="46.18273" lon="6.8139">
        <ele>2116.1999511719</ele>
        <time>2016-02-27T10:57:35.000Z</time>
      </trkpt>
      <trkpt lat="46.18257" lon="6.81374">
        <ele>2112</ele>
        <time>2016-02-27T10:57:40.000Z</time>
      </trkpt>
      <trkpt lat="46.18253" lon="6.81372">
        <ele>2111.3999023438</ele>
        <time>2016-02-27T10:57:41.000Z</time>
      </trkpt>
      <trkpt lat="46.18237" lon="6.81356">
        <ele>2107.3999023438</ele>
        <time>2016-02-27T10:57:45.000Z</time>
      </trkpt>
      <trkpt lat="46.18223" lon="6.81331">
        <ele>2099.3999023438</ele>
        <time>2016-02-27T10:57:50.000Z</time>
      </trkpt>
      <trkpt lat="46.1821" lon="6.81303">
        <ele>2095.6000976562</ele>
        <time>2016-02-27T10:57:54.000Z</time>
      </trkpt>
      <trkpt lat="46.18206" lon="6.81285">
        <ele>2091.3999023438</ele>
        <time>2016-02-27T10:57:56.000Z</time>
      </trkpt>
      <trkpt lat="46.18201" lon="6.81265">
        <ele>2086.6000976562</ele>
        <time>2016-02-27T10:57:58.000Z</time>
      </trkpt>
      <trkpt lat="46.18199" lon="6.8123">
        <ele>2079.1999511719</ele>
        <time>2016-02-27T10:58:01.000Z</time>
      </trkpt>
      <trkpt lat="46.18196" lon="6.81203">
        <ele>2078.1999511719</ele>
        <time>2016-02-27T10:58:03.000Z</time>
      </trkpt>
      <trkpt lat="46.18188" lon="6.81175">
        <ele>2076.3999023438</ele>
        <time>2016-02-27T10:58:05.000Z</time>
      </trkpt>
      <trkpt lat="46.18175" lon="6.8115">
        <ele>2075.3999023438</ele>
        <time>2016-02-27T10:58:07.000Z</time>
      </trkpt>
      <trkpt lat="46.18167" lon="6.81137">
        <ele>2074.1999511719</ele>
        <time>2016-02-27T10:58:08.000Z</time>
      </trkpt>
      <trkpt lat="46.18154" lon="6.81115">
        <ele>2072.1999511719</ele>
        <time>2016-02-27T10:58:10.000Z</time>
      </trkpt>
      <trkpt lat="46.18137" lon="6.8109">
        <ele>2070.8000488281</ele>
        <time>2016-02-27T10:58:13.000Z</time>
      </trkpt>
      <trkpt lat="46.18132" lon="6.81081">
        <ele>2070</ele>
        <time>2016-02-27T10:58:14.000Z</time>
      </trkpt>
      <trkpt lat="46.18124" lon="6.81062">
        <ele>2068.6000976562</ele>
        <time>2016-02-27T10:58:16.000Z</time>
      </trkpt>
      <trkpt lat="46.18129" lon="6.8103">
        <ele>2064.1999511719</ele>
        <time>2016-02-27T10:58:19.000Z</time>
      </trkpt>
      <trkpt lat="46.18132" lon="6.81019">
        <ele>2062.6000976562</ele>
        <time>2016-02-27T10:58:20.000Z</time>
      </trkpt>
      <trkpt lat="46.1814" lon="6.81007">
        <ele>2059.8000488281</ele>
        <time>2016-02-27T10:58:21.000Z</time>
      </trkpt>
      <trkpt lat="46.18153" lon="6.80981">
        <ele>2055.1999511719</ele>
        <time>2016-02-27T10:58:24.000Z</time>
      </trkpt>
      <trkpt lat="46.18156" lon="6.80977">
        <ele>2054.3999023438</ele>
        <time>2016-02-27T10:58:25.000Z</time>
      </trkpt>
      <trkpt lat="46.18176" lon="6.80985">
        <ele>2050.6000976562</ele>
        <time>2016-02-27T10:59:04.000Z</time>
      </trkpt>
      <trkpt lat="46.18193" lon="6.80975">
        <ele>2046.8000488281</ele>
        <time>2016-02-27T10:59:18.000Z</time>
      </trkpt>
      <trkpt lat="46.18185" lon="6.80945">
        <ele>2047.8000488281</ele>
        <time>2016-02-27T10:59:25.000Z</time>
      </trkpt>
      <trkpt lat="46.18187" lon="6.80913">
        <ele>2047.8000488281</ele>
        <time>2016-02-27T10:59:27.000Z</time>
      </trkpt>
      <trkpt lat="46.182" lon="6.80888">
        <ele>2046.5999755859</ele>
        <time>2016-02-27T10:59:29.000Z</time>
      </trkpt>
      <trkpt lat="46.18213" lon="6.80866">
        <ele>2044.5999755859</ele>
        <time>2016-02-27T10:59:31.000Z</time>
      </trkpt>
      <trkpt lat="46.18226" lon="6.80847">
        <ele>2042.1999511719</ele>
        <time>2016-02-27T10:59:33.000Z</time>
      </trkpt>
      <trkpt lat="46.18232" lon="6.8084">
        <ele>2040.8000488281</ele>
        <time>2016-02-27T10:59:34.000Z</time>
      </trkpt>
      <trkpt lat="46.18246" lon="6.80819">
        <ele>2038.8000488281</ele>
        <time>2016-02-27T10:59:38.000Z</time>
      </trkpt>
      <trkpt lat="46.18265" lon="6.80807">
        <ele>2036</ele>
        <time>2016-02-27T10:59:42.000Z</time>
      </trkpt>
      <trkpt lat="46.18284" lon="6.80808">
        <ele>2031.8000488281</ele>
        <time>2016-02-27T10:59:45.000Z</time>
      </trkpt>
      <trkpt lat="46.18304" lon="6.80812">
        <ele>2027.4000244141</ele>
        <time>2016-02-27T10:59:47.000Z</time>
      </trkpt>
      <trkpt lat="46.18323" lon="6.80819">
        <ele>2022.1999511719</ele>
        <time>2016-02-27T10:59:49.000Z</time>
      </trkpt>
      <trkpt lat="46.18348" lon="6.80823">
        <ele>2015.5999755859</ele>
        <time>2016-02-27T10:59:51.000Z</time>
      </trkpt>
      <trkpt lat="46.18369" lon="6.80828">
        <ele>2010.1999511719</ele>
        <time>2016-02-27T10:59:53.000Z</time>
      </trkpt>
      <trkpt lat="46.1839" lon="6.80838">
        <ele>2004.5999755859</ele>
        <time>2016-02-27T10:59:55.000Z</time>
      </trkpt>
      <trkpt lat="46.18415" lon="6.80835">
        <ele>1998.5999755859</ele>
        <time>2016-02-27T10:59:58.000Z</time>
      </trkpt>
      <trkpt lat="46.18433" lon="6.80832">
        <ele>1993.1999511719</ele>
        <time>2016-02-27T11:00:00.000Z</time>
      </trkpt>
      <trkpt lat="46.18445" lon="6.80828">
        <ele>1989.8000488281</ele>
        <time>2016-02-27T11:00:01.000Z</time>
      </trkpt>
      <trkpt lat="46.18468" lon="6.80819">
        <ele>1983.1999511719</ele>
        <time>2016-02-27T11:00:03.000Z</time>
      </trkpt>
      <trkpt lat="46.18503" lon="6.80807">
        <ele>1975.8000488281</ele>
        <time>2016-02-27T11:00:05.000Z</time>
      </trkpt>
      <trkpt lat="46.18522" lon="6.80798">
        <ele>1972.8000488281</ele>
        <time>2016-02-27T11:00:06.000Z</time>
      </trkpt>
      <trkpt lat="46.18539" lon="6.80789">
        <ele>1970.4000244141</ele>
        <time>2016-02-27T11:00:07.000Z</time>
      </trkpt>
      <trkpt lat="46.18569" lon="6.80764">
        <ele>1966.8000488281</ele>
        <time>2016-02-27T11:00:09.000Z</time>
      </trkpt>
      <trkpt lat="46.18597" lon="6.80739">
        <ele>1962</ele>
        <time>2016-02-27T11:00:11.000Z</time>
      </trkpt>
      <trkpt lat="46.18624" lon="6.80717">
        <ele>1956</ele>
        <time>2016-02-27T11:00:13.000Z</time>
      </trkpt>
      <trkpt lat="46.18648" lon="6.80699">
        <ele>1956.4000244141</ele>
        <time>2016-02-27T11:00:15.000Z</time>
      </trkpt>
      <trkpt lat="46.18665" lon="6.80684">
        <ele>1954.4000244141</ele>
        <time>2016-02-27T11:00:17.000Z</time>
      </trkpt>
      <trkpt lat="46.18681" lon="6.80668">
        <ele>1954.4000244141</ele>
        <time>2016-02-27T11:00:19.000Z</time>
      </trkpt>
      <trkpt lat="46.18696" lon="6.80653">
        <ele>1954.4000244141</ele>
        <time>2016-02-27T11:00:21.000Z</time>
      </trkpt>
      <trkpt lat="46.18713" lon="6.8063">
        <ele>1951.8000488281</ele>
        <time>2016-02-27T11:00:24.000Z</time>
      </trkpt>
      <trkpt lat="46.18724" lon="6.80614">
        <ele>1952.4000244141</ele>
        <time>2016-02-27T11:00:26.000Z</time>
      </trkpt>
      <trkpt lat="46.18736" lon="6.80594">
        <ele>1951.4000244141</ele>
        <time>2016-02-27T11:00:28.000Z</time>
      </trkpt>
      <trkpt lat="46.18747" lon="6.80573">
        <ele>1949.4000244141</ele>
        <time>2016-02-27T11:00:30.000Z</time>
      </trkpt>
      <trkpt lat="46.18761" lon="6.80553">
        <ele>1945.1999511719</ele>
        <time>2016-02-27T11:00:34.000Z</time>
      </trkpt>
      <trkpt lat="46.18763" lon="6.80553">
        <ele>1944.8000488281</ele>
        <time>2016-02-27T11:00:37.000Z</time>
      </trkpt>
      <trkpt lat="46.18773" lon="6.80559">
        <ele>1942.5999755859</ele>
        <time>2016-02-27T11:01:17.000Z</time>
      </trkpt>
      <trkpt lat="46.18781" lon="6.80535">
        <ele>1940</ele>
        <time>2016-02-27T11:01:21.000Z</time>
      </trkpt>
      <trkpt lat="46.18791" lon="6.80515">
        <ele>1938.8000488281</ele>
        <time>2016-02-27T11:01:23.000Z</time>
      </trkpt>
      <trkpt lat="46.18806" lon="6.80497">
        <ele>1936.8000488281</ele>
        <time>2016-02-27T11:01:25.000Z</time>
      </trkpt>
      <trkpt lat="46.18811" lon="6.80486">
        <ele>1936.1999511719</ele>
        <time>2016-02-27T11:01:26.000Z</time>
      </trkpt>
      <trkpt lat="46.18823" lon="6.80462">
        <ele>1935.8000488281</ele>
        <time>2016-02-27T11:01:28.000Z</time>
      </trkpt>
      <trkpt lat="46.1884" lon="6.80435">
        <ele>1934.5999755859</ele>
        <time>2016-02-27T11:01:30.000Z</time>
      </trkpt>
      <trkpt lat="46.1886" lon="6.80413">
        <ele>1929.4000244141</ele>
        <time>2016-02-27T11:01:32.000Z</time>
      </trkpt>
      <trkpt lat="46.18878" lon="6.80392">
        <ele>1927.5999755859</ele>
        <time>2016-02-27T11:01:34.000Z</time>
      </trkpt>
      <trkpt lat="46.18888" lon="6.80383">
        <ele>1925.1999511719</ele>
        <time>2016-02-27T11:01:35.000Z</time>
      </trkpt>
      <trkpt lat="46.18908" lon="6.80362">
        <ele>1923</ele>
        <time>2016-02-27T11:01:37.000Z</time>
      </trkpt>
      <trkpt lat="46.18925" lon="6.8034">
        <ele>1921.5999755859</ele>
        <time>2016-02-27T11:01:39.000Z</time>
      </trkpt>
      <trkpt lat="46.18934" lon="6.80333">
        <ele>1919.5999755859</ele>
        <time>2016-02-27T11:01:40.000Z</time>
      </trkpt>
      <trkpt lat="46.18955" lon="6.8032">
        <ele>1915.1999511719</ele>
        <time>2016-02-27T11:01:42.000Z</time>
      </trkpt>
      <trkpt lat="46.18973" lon="6.80309">
        <ele>1912.1999511719</ele>
        <time>2016-02-27T11:01:44.000Z</time>
      </trkpt>
      <trkpt lat="46.18991" lon="6.80294">
        <ele>1910.8000488281</ele>
        <time>2016-02-27T11:01:46.000Z</time>
      </trkpt>
      <trkpt lat="46.1901" lon="6.80286">
        <ele>1909.4000244141</ele>
        <time>2016-02-27T11:01:48.000Z</time>
      </trkpt>
      <trkpt lat="46.1903" lon="6.80275">
        <ele>1906.1999511719</ele>
        <time>2016-02-27T11:01:50.000Z</time>
      </trkpt>
      <trkpt lat="46.19046" lon="6.80262">
        <ele>1901.5999755859</ele>
        <time>2016-02-27T11:01:52.000Z</time>
      </trkpt>
      <trkpt lat="46.19066" lon="6.8025">
        <ele>1896.4000244141</ele>
        <time>2016-02-27T11:01:55.000Z</time>
      </trkpt>
      <trkpt lat="46.19071" lon="6.8025">
        <ele>1895.4000244141</ele>
        <time>2016-02-27T11:01:58.000Z</time>
      </trkpt>
      <trkpt lat="46.19069" lon="6.80251">
        <ele>1895.8000488281</ele>
        <time>2016-02-27T11:01:59.000Z</time>
      </trkpt>
      <trkpt lat="46.19074" lon="6.80244">
        <ele>1893</ele>
        <time>2016-02-27T11:02:15.000Z</time>
      </trkpt>
      <trkpt lat="46.19091" lon="6.80234">
        <ele>1884</ele>
        <time>2016-02-27T11:02:18.000Z</time>
      </trkpt>
      <trkpt lat="46.19105" lon="6.80214">
        <ele>1877.4000244141</ele>
        <time>2016-02-27T11:02:32.000Z</time>
      </trkpt>
      <trkpt lat="46.19107" lon="6.80211">
        <ele>1876.1999511719</ele>
        <time>2016-02-27T11:02:35.000Z</time>
      </trkpt>
      <trkpt lat="46.19107" lon="6.80208">
        <ele>1876</ele>
        <time>2016-02-27T11:02:40.000Z</time>
      </trkpt>
      <trkpt lat="46.19108" lon="6.80207">
        <ele>1875.8000488281</ele>
        <time>2016-02-27T11:02:42.000Z</time>
      </trkpt>
      <trkpt lat="46.19112" lon="6.80198">
        <ele>1873.1999511719</ele>
        <time>2016-02-27T11:02:47.000Z</time>
      </trkpt>
      <trkpt lat="46.19126" lon="6.80203">
        <ele>1867</ele>
        <time>2016-02-27T11:03:19.000Z</time>
      </trkpt>
      <trkpt lat="46.1913" lon="6.80203">
        <ele>1864.8000488281</ele>
        <time>2016-02-27T11:03:21.000Z</time>
      </trkpt>
      <trkpt lat="46.19147" lon="6.80198">
        <ele>1857</ele>
        <time>2016-02-27T11:03:28.000Z</time>
      </trkpt>
      <trkpt lat="46.19153" lon="6.80187">
        <ele>1855.1999511719</ele>
        <time>2016-02-27T11:03:32.000Z</time>
      </trkpt>
      <trkpt lat="46.1916" lon="6.80182">
        <ele>1854</ele>
        <time>2016-02-27T11:03:35.000Z</time>
      </trkpt>
      <trkpt lat="46.19173" lon="6.80182">
        <ele>1852.1999511719</ele>
        <time>2016-02-27T11:03:40.000Z</time>
      </trkpt>
      <trkpt lat="46.1918" lon="6.80182">
        <ele>1850.4000244141</ele>
        <time>2016-02-27T11:03:43.000Z</time>
      </trkpt>
      <trkpt lat="46.19197" lon="6.80165">
        <ele>1841.8000488281</ele>
        <time>2016-02-27T11:03:51.000Z</time>
      </trkpt>
      <trkpt lat="46.19205" lon="6.80138">
        <ele>1835.8000488281</ele>
        <time>2016-02-27T11:03:57.000Z</time>
      </trkpt>
      <trkpt lat="46.19216" lon="6.80111">
        <ele>1825.1999511719</ele>
        <time>2016-02-27T11:04:02.000Z</time>
      </trkpt>
      <trkpt lat="46.19215" lon="6.80085">
        <ele>1819.4000244141</ele>
        <time>2016-02-27T11:04:04.000Z</time>
      </trkpt>
      <trkpt lat="46.19211" lon="6.80063">
        <ele>1817.8000488281</ele>
        <time>2016-02-27T11:04:08.000Z</time>
      </trkpt>
      <trkpt lat="46.1921" lon="6.80061">
        <ele>1818.1999511719</ele>
        <time>2016-02-27T11:04:09.000Z</time>
      </trkpt>
      <trkpt lat="46.19213" lon="6.8006">
        <ele>1816.8000488281</ele>
        <time>2016-02-27T11:04:13.000Z</time>
      </trkpt>
      <trkpt lat="46.19214" lon="6.80059">
        <ele>1816.1999511719</ele>
        <time>2016-02-27T11:04:15.000Z</time>
      </trkpt>
      <trkpt lat="46.19227" lon="6.80052">
        <ele>1808</ele>
        <time>2016-02-27T11:05:39.000Z</time>
      </trkpt>
      <trkpt lat="46.19236" lon="6.80062">
        <ele>1807</ele>
        <time>2016-02-27T11:05:45.000Z</time>
      </trkpt>
      <trkpt lat="46.19232" lon="6.80066">
        <ele>1808.5999755859</ele>
        <time>2016-02-27T11:06:17.000Z</time>
      </trkpt>
      <trkpt lat="46.19232" lon="6.8006">
        <ele>1807.5999755859</ele>
        <time>2016-02-27T11:06:21.000Z</time>
      </trkpt>
      <trkpt lat="46.19232" lon="6.80059">
        <ele>1807.5999755859</ele>
        <time>2016-02-27T11:06:22.000Z</time>
      </trkpt>
      <trkpt lat="46.19229" lon="6.80034">
        <ele>1804.8000488281</ele>
        <time>2016-02-27T11:06:54.000Z</time>
      </trkpt>
      <trkpt lat="46.19228" lon="6.80029">
        <ele>1804.4000244141</ele>
        <time>2016-02-27T11:07:00.000Z</time>
      </trkpt>
      <trkpt lat="46.19238" lon="6.80018">
        <ele>1800.8000488281</ele>
        <time>2016-02-27T11:07:28.000Z</time>
      </trkpt>
      <trkpt lat="46.19252" lon="6.79998">
        <ele>1796</ele>
        <time>2016-02-27T11:07:30.000Z</time>
      </trkpt>
      <trkpt lat="46.19267" lon="6.79975">
        <ele>1793</ele>
        <time>2016-02-27T11:07:32.000Z</time>
      </trkpt>
      <trkpt lat="46.19286" lon="6.79949">
        <ele>1789.1999511719</ele>
        <time>2016-02-27T11:07:34.000Z</time>
      </trkpt>
      <trkpt lat="46.19311" lon="6.79919">
        <ele>1780.1999511719</ele>
        <time>2016-02-27T11:07:36.000Z</time>
      </trkpt>
      <trkpt lat="46.19335" lon="6.79891">
        <ele>1780.4000244141</ele>
        <time>2016-02-27T11:07:38.000Z</time>
      </trkpt>
      <trkpt lat="46.19356" lon="6.79863">
        <ele>1781</ele>
        <time>2016-02-27T11:07:40.000Z</time>
      </trkpt>
      <trkpt lat="46.19376" lon="6.79835">
        <ele>1777</ele>
        <time>2016-02-27T11:07:42.000Z</time>
      </trkpt>
      <trkpt lat="46.19392" lon="6.79806">
        <ele>1774.4000244141</ele>
        <time>2016-02-27T11:07:44.000Z</time>
      </trkpt>
      <trkpt lat="46.19407" lon="6.79779">
        <ele>1773</ele>
        <time>2016-02-27T11:07:46.000Z</time>
      </trkpt>
      <trkpt lat="46.19419" lon="6.79757">
        <ele>1772</ele>
        <time>2016-02-27T11:07:48.000Z</time>
      </trkpt>
      <trkpt lat="46.19432" lon="6.79736">
        <ele>1771.8000488281</ele>
        <time>2016-02-27T11:07:51.000Z</time>
      </trkpt>
      <trkpt lat="46.19435" lon="6.79731">
        <ele>1771.4000244141</ele>
        <time>2016-02-27T11:07:52.000Z</time>
      </trkpt>
      <trkpt lat="46.19441" lon="6.79703">
        <ele>1769.5999755859</ele>
        <time>2016-02-27T11:07:56.000Z</time>
      </trkpt>
      <trkpt lat="46.19444" lon="6.79683">
        <ele>1765.8000488281</ele>
        <time>2016-02-27T11:08:00.000Z</time>
      </trkpt>
      <trkpt lat="46.19443" lon="6.79682">
        <ele>1765.5999755859</ele>
        <time>2016-02-27T11:08:03.000Z</time>
      </trkpt>
      <trkpt lat="46.19446" lon="6.79672">
        <ele>1763.4000244141</ele>
        <time>2016-02-27T11:08:44.000Z</time>
      </trkpt>
      <trkpt lat="46.19457" lon="6.79677">
        <ele>1763.1999511719</ele>
        <time>2016-02-27T11:09:09.000Z</time>
      </trkpt>
      <trkpt lat="46.19469" lon="6.79669">
        <ele>1760.5999755859</ele>
        <time>2016-02-27T11:09:12.000Z</time>
      </trkpt>
      <trkpt lat="46.19487" lon="6.79654">
        <ele>1757.1999511719</ele>
        <time>2016-02-27T11:09:14.000Z</time>
      </trkpt>
      <trkpt lat="46.19508" lon="6.79627">
        <ele>1753.4000244141</ele>
        <time>2016-02-27T11:09:16.000Z</time>
      </trkpt>
      <trkpt lat="46.1953" lon="6.7959">
        <ele>1745.4000244141</ele>
        <time>2016-02-27T11:09:18.000Z</time>
      </trkpt>
      <trkpt lat="46.19542" lon="6.79568">
        <ele>1740.1999511719</ele>
        <time>2016-02-27T11:09:19.000Z</time>
      </trkpt>
      <trkpt lat="46.19554" lon="6.79545">
        <ele>1736.4000244141</ele>
        <time>2016-02-27T11:09:20.000Z</time>
      </trkpt>
      <trkpt lat="46.19565" lon="6.7952">
        <ele>1732.5999755859</ele>
        <time>2016-02-27T11:09:21.000Z</time>
      </trkpt>
      <trkpt lat="46.19574" lon="6.79497">
        <ele>1731.5999755859</ele>
        <time>2016-02-27T11:09:22.000Z</time>
      </trkpt>
      <trkpt lat="46.19591" lon="6.79453">
        <ele>1731.8000488281</ele>
        <time>2016-02-27T11:09:24.000Z</time>
      </trkpt>
      <trkpt lat="46.19607" lon="6.79412">
        <ele>1725</ele>
        <time>2016-02-27T11:09:26.000Z</time>
      </trkpt>
      <trkpt lat="46.1962" lon="6.79373">
        <ele>1723</ele>
        <time>2016-02-27T11:09:28.000Z</time>
      </trkpt>
      <trkpt lat="46.19631" lon="6.79338">
        <ele>1718.8000488281</ele>
        <time>2016-02-27T11:09:30.000Z</time>
      </trkpt>
      <trkpt lat="46.19635" lon="6.79324">
        <ele>1717</ele>
        <time>2016-02-27T11:09:31.000Z</time>
      </trkpt>
      <trkpt lat="46.1963" lon="6.7931">
        <ele>1716</ele>
        <time>2016-02-27T11:09:35.000Z</time>
      </trkpt>
      <trkpt lat="46.19629" lon="6.79311">
        <ele>1716.1999511719</ele>
        <time>2016-02-27T11:09:37.000Z</time>
      </trkpt>
      <trkpt lat="46.19643" lon="6.79296">
        <ele>1712.5999755859</ele>
        <time>2016-02-27T11:09:59.000Z</time>
      </trkpt>
      <trkpt lat="46.19653" lon="6.79272">
        <ele>1709.8000488281</ele>
        <time>2016-02-27T11:10:05.000Z</time>
      </trkpt>
      <trkpt lat="46.19664" lon="6.79246">
        <ele>1705.4000244141</ele>
        <time>2016-02-27T11:10:09.000Z</time>
      </trkpt>
      <trkpt lat="46.19669" lon="6.79242">
        <ele>1704</ele>
        <time>2016-02-27T11:10:10.000Z</time>
      </trkpt>
      <trkpt lat="46.19674" lon="6.79238">
        <ele>1702.5999755859</ele>
        <time>2016-02-27T11:10:11.000Z</time>
      </trkpt>
      <trkpt lat="46.19689" lon="6.79214">
        <ele>1698.5999755859</ele>
        <time>2016-02-27T11:10:14.000Z</time>
      </trkpt>
      <trkpt lat="46.19697" lon="6.79188">
        <ele>1694.1999511719</ele>
        <time>2016-02-27T11:10:16.000Z</time>
      </trkpt>
      <trkpt lat="46.19711" lon="6.79165">
        <ele>1689.1999511719</ele>
        <time>2016-02-27T11:10:18.000Z</time>
      </trkpt>
      <trkpt lat="46.19723" lon="6.79141">
        <ele>1684.1999511719</ele>
        <time>2016-02-27T11:10:20.000Z</time>
      </trkpt>
      <trkpt lat="46.19739" lon="6.79126">
        <ele>1681.4000244141</ele>
        <time>2016-02-27T11:10:22.000Z</time>
      </trkpt>
      <trkpt lat="46.19753" lon="6.79111">
        <ele>1679.1999511719</ele>
        <time>2016-02-27T11:10:24.000Z</time>
      </trkpt>
      <trkpt lat="46.19769" lon="6.79085">
        <ele>1673</ele>
        <time>2016-02-27T11:10:27.000Z</time>
      </trkpt>
      <trkpt lat="46.19775" lon="6.79079">
        <ele>1671.4000244141</ele>
        <time>2016-02-27T11:10:28.000Z</time>
      </trkpt>
      <trkpt lat="46.1979" lon="6.7906">
        <ele>1666</ele>
        <time>2016-02-27T11:10:31.000Z</time>
      </trkpt>
      <trkpt lat="46.19796" lon="6.79052">
        <ele>1663.8000488281</ele>
        <time>2016-02-27T11:10:32.000Z</time>
      </trkpt>
      <trkpt lat="46.19815" lon="6.79028">
        <ele>1659.4000244141</ele>
        <time>2016-02-27T11:10:35.000Z</time>
      </trkpt>
      <trkpt lat="46.19823" lon="6.79022">
        <ele>1658.4000244141</ele>
        <time>2016-02-27T11:10:36.000Z</time>
      </trkpt>
      <trkpt lat="46.1984" lon="6.79008">
        <ele>1655.8000488281</ele>
        <time>2016-02-27T11:10:38.000Z</time>
      </trkpt>
      <trkpt lat="46.19856" lon="6.78993">
        <ele>1651</ele>
        <time>2016-02-27T11:10:40.000Z</time>
      </trkpt>
      <trkpt lat="46.19872" lon="6.78975">
        <ele>1645</ele>
        <time>2016-02-27T11:10:42.000Z</time>
      </trkpt>
      <trkpt lat="46.19882" lon="6.78968">
        <ele>1642.1999511719</ele>
        <time>2016-02-27T11:10:43.000Z</time>
      </trkpt>
      <trkpt lat="46.19901" lon="6.7895">
        <ele>1637.4000244141</ele>
        <time>2016-02-27T11:10:45.000Z</time>
      </trkpt>
      <trkpt lat="46.19918" lon="6.78931">
        <ele>1633.4000244141</ele>
        <time>2016-02-27T11:10:47.000Z</time>
      </trkpt>
      <trkpt lat="46.19925" lon="6.78925">
        <ele>1631.5999755859</ele>
        <time>2016-02-27T11:10:48.000Z</time>
      </trkpt>
      <trkpt lat="46.1994" lon="6.78922">
        <ele>1630</ele>
        <time>2016-02-27T11:10:50.000Z</time>
      </trkpt>
      <trkpt lat="46.19965" lon="6.7892">
        <ele>1628.8000488281</ele>
        <time>2016-02-27T11:10:53.000Z</time>
      </trkpt>
      <trkpt lat="46.19991" lon="6.78912">
        <ele>1627</ele>
        <time>2016-02-27T11:10:56.000Z</time>
      </trkpt>
      <trkpt lat="46.20012" lon="6.78897">
        <ele>1624.4000244141</ele>
        <time>2016-02-27T11:10:59.000Z</time>
      </trkpt>
      <trkpt lat="46.20025" lon="6.7889">
        <ele>1623.8000488281</ele>
        <time>2016-02-27T11:11:01.000Z</time>
      </trkpt>
      <trkpt lat="46.20046" lon="6.78874">
        <ele>1621</ele>
        <time>2016-02-27T11:11:04.000Z</time>
      </trkpt>
      <trkpt lat="46.20054" lon="6.78865">
        <ele>1618.4000244141</ele>
        <time>2016-02-27T11:11:05.000Z</time>
      </trkpt>
      <trkpt lat="46.20069" lon="6.78845">
        <ele>1612.5999755859</ele>
        <time>2016-02-27T11:11:07.000Z</time>
      </trkpt>
      <trkpt lat="46.20085" lon="6.78825">
        <ele>1605.8000488281</ele>
        <time>2016-02-27T11:11:09.000Z</time>
      </trkpt>
      <trkpt lat="46.20102" lon="6.78808">
        <ele>1603.1999511719</ele>
        <time>2016-02-27T11:11:11.000Z</time>
      </trkpt>
      <trkpt lat="46.2012" lon="6.78791">
        <ele>1601</ele>
        <time>2016-02-27T11:11:13.000Z</time>
      </trkpt>
      <trkpt lat="46.20138" lon="6.78774">
        <ele>1597</ele>
        <time>2016-02-27T11:11:15.000Z</time>
      </trkpt>
      <trkpt lat="46.20155" lon="6.78755">
        <ele>1593.5999755859</ele>
        <time>2016-02-27T11:11:17.000Z</time>
      </trkpt>
      <trkpt lat="46.20174" lon="6.78732">
        <ele>1588.8000488281</ele>
        <time>2016-02-27T11:11:19.000Z</time>
      </trkpt>
      <trkpt lat="46.20193" lon="6.7871">
        <ele>1586.1999511719</ele>
        <time>2016-02-27T11:11:21.000Z</time>
      </trkpt>
      <trkpt lat="46.20212" lon="6.78688">
        <ele>1581</ele>
        <time>2016-02-27T11:11:23.000Z</time>
      </trkpt>
      <trkpt lat="46.2023" lon="6.78666">
        <ele>1575.8000488281</ele>
        <time>2016-02-27T11:11:25.000Z</time>
      </trkpt>
      <trkpt lat="46.2025" lon="6.78644">
        <ele>1573.8000488281</ele>
        <time>2016-02-27T11:11:27.000Z</time>
      </trkpt>
      <trkpt lat="46.20272" lon="6.78624">
        <ele>1572.8000488281</ele>
        <time>2016-02-27T11:11:29.000Z</time>
      </trkpt>
      <trkpt lat="46.20296" lon="6.786">
        <ele>1570.8000488281</ele>
        <time>2016-02-27T11:11:31.000Z</time>
      </trkpt>
      <trkpt lat="46.20318" lon="6.78576">
        <ele>1570</ele>
        <time>2016-02-27T11:11:33.000Z</time>
      </trkpt>
      <trkpt lat="46.20339" lon="6.78556">
        <ele>1569.4000244141</ele>
        <time>2016-02-27T11:11:35.000Z</time>
      </trkpt>
      <trkpt lat="46.20357" lon="6.78536">
        <ele>1569.5999755859</ele>
        <time>2016-02-27T11:11:37.000Z</time>
      </trkpt>
      <trkpt lat="46.20376" lon="6.78513">
        <ele>1568.4000244141</ele>
        <time>2016-02-27T11:11:40.000Z</time>
      </trkpt>
      <trkpt lat="46.20392" lon="6.78491">
        <ele>1567.1999511719</ele>
        <time>2016-02-27T11:11:43.000Z</time>
      </trkpt>
      <trkpt lat="46.20405" lon="6.7847">
        <ele>1566.1999511719</ele>
        <time>2016-02-27T11:11:46.000Z</time>
      </trkpt>
      <trkpt lat="46.2042" lon="6.78446">
        <ele>1565.1999511719</ele>
        <time>2016-02-27T11:11:50.000Z</time>
      </trkpt>
      <trkpt lat="46.20431" lon="6.78427">
        <ele>1563.5999755859</ele>
        <time>2016-02-27T11:11:55.000Z</time>
      </trkpt>
      <trkpt lat="46.20435" lon="6.78423">
        <ele>1563</ele>
        <time>2016-02-27T11:11:59.000Z</time>
      </trkpt>
      <trkpt lat="46.20432" lon="6.78428">
        <ele>1563.8000488281</ele>
        <time>2016-02-27T11:12:42.000Z</time>
      </trkpt>
      <trkpt lat="46.20436" lon="6.78423">
        <ele>1563.1999511719</ele>
        <time>2016-02-27T11:13:30.000Z</time>
      </trkpt>
      <trkpt lat="46.20449" lon="6.784">
        <ele>1560</ele>
        <time>2016-02-27T11:13:38.000Z</time>
      </trkpt>
      <trkpt lat="46.20463" lon="6.78381">
        <ele>1558.8000488281</ele>
        <time>2016-02-27T11:13:46.000Z</time>
      </trkpt>
      <trkpt lat="46.20478" lon="6.78364">
        <ele>1558</ele>
        <time>2016-02-27T11:13:52.000Z</time>
      </trkpt>
      <trkpt lat="46.20494" lon="6.78341">
        <ele>1559.4000244141</ele>
        <time>2016-02-27T11:13:57.000Z</time>
      </trkpt>
      <trkpt lat="46.20509" lon="6.78321">
        <ele>1556.8000488281</ele>
        <time>2016-02-27T11:14:02.000Z</time>
      </trkpt>
      <trkpt lat="46.20522" lon="6.78299">
        <ele>1556.1999511719</ele>
        <time>2016-02-27T11:14:06.000Z</time>
      </trkpt>
      <trkpt lat="46.20538" lon="6.78278">
        <ele>1554.8000488281</ele>
        <time>2016-02-27T11:14:10.000Z</time>
      </trkpt>
      <trkpt lat="46.20556" lon="6.78255">
        <ele>1552</ele>
        <time>2016-02-27T11:14:14.000Z</time>
      </trkpt>
      <trkpt lat="46.20572" lon="6.78234">
        <ele>1550.1999511719</ele>
        <time>2016-02-27T11:14:17.000Z</time>
      </trkpt>
      <trkpt lat="46.20589" lon="6.78213">
        <ele>1549.1999511719</ele>
        <time>2016-02-27T11:14:20.000Z</time>
      </trkpt>
      <trkpt lat="46.20606" lon="6.78191">
        <ele>1547.1999511719</ele>
        <time>2016-02-27T11:14:23.000Z</time>
      </trkpt>
      <trkpt lat="46.20624" lon="6.7817">
        <ele>1541.5999755859</ele>
        <time>2016-02-27T11:14:26.000Z</time>
      </trkpt>
      <trkpt lat="46.20642" lon="6.78148">
        <ele>1536.5999755859</ele>
        <time>2016-02-27T11:14:29.000Z</time>
      </trkpt>
      <trkpt lat="46.2066" lon="6.78125">
        <ele>1535.8000488281</ele>
        <time>2016-02-27T11:14:32.000Z</time>
      </trkpt>
      <trkpt lat="46.20678" lon="6.78098">
        <ele>1535.1999511719</ele>
        <time>2016-02-27T11:14:35.000Z</time>
      </trkpt>
      <trkpt lat="46.20694" lon="6.7807">
        <ele>1533.8000488281</ele>
        <time>2016-02-27T11:14:38.000Z</time>
      </trkpt>
      <trkpt lat="46.20709" lon="6.78041">
        <ele>1531.5999755859</ele>
        <time>2016-02-27T11:14:41.000Z</time>
      </trkpt>
      <trkpt lat="46.20724" lon="6.78014">
        <ele>1528.5999755859</ele>
        <time>2016-02-27T11:14:44.000Z</time>
      </trkpt>
      <trkpt lat="46.20736" lon="6.77979">
        <ele>1525.4000244141</ele>
        <time>2016-02-27T11:14:47.000Z</time>
      </trkpt>
      <trkpt lat="46.20743" lon="6.77953">
        <ele>1523.4000244141</ele>
        <time>2016-02-27T11:14:49.000Z</time>
      </trkpt>
      <trkpt lat="46.20748" lon="6.77925">
        <ele>1521</ele>
        <time>2016-02-27T11:14:51.000Z</time>
      </trkpt>
      <trkpt lat="46.2075" lon="6.77912">
        <ele>1519.5999755859</ele>
        <time>2016-02-27T11:14:52.000Z</time>
      </trkpt>
      <trkpt lat="46.2075" lon="6.77883">
        <ele>1516.5999755859</ele>
        <time>2016-02-27T11:14:54.000Z</time>
      </trkpt>
      <trkpt lat="46.20749" lon="6.7787">
        <ele>1515.1999511719</ele>
        <time>2016-02-27T11:14:55.000Z</time>
      </trkpt>
      <trkpt lat="46.20749" lon="6.77843">
        <ele>1512.5999755859</ele>
        <time>2016-02-27T11:14:57.000Z</time>
      </trkpt>
      <trkpt lat="46.2075" lon="6.77818">
        <ele>1511.5999755859</ele>
        <time>2016-02-27T11:14:59.000Z</time>
      </trkpt>
      <trkpt lat="46.20745" lon="6.7779">
        <ele>1508.5999755859</ele>
        <time>2016-02-27T11:15:02.000Z</time>
      </trkpt>
      <trkpt lat="46.20737" lon="6.77777">
        <ele>1505.8000488281</ele>
        <time>2016-02-27T11:15:07.000Z</time>
      </trkpt>
      <trkpt lat="46.20735" lon="6.77776">
        <ele>1505</ele>
        <time>2016-02-27T11:15:09.000Z</time>
      </trkpt>
      <trkpt lat="46.20731" lon="6.77766">
        <ele>1503.4000244141</ele>
        <time>2016-02-27T11:15:13.000Z</time>
      </trkpt>
      <trkpt lat="46.20727" lon="6.77752">
        <ele>1501.8000488281</ele>
        <time>2016-02-27T11:15:18.000Z</time>
      </trkpt>
      <trkpt lat="46.20722" lon="6.77746">
        <ele>1501.4000244141</ele>
        <time>2016-02-27T11:15:22.000Z</time>
      </trkpt>
      <trkpt lat="46.20718" lon="6.77743">
        <ele>1501</ele>
        <time>2016-02-27T11:15:24.000Z</time>
      </trkpt>
      <trkpt lat="46.20716" lon="6.77738">
        <ele>1500.5999755859</ele>
        <time>2016-02-27T11:15:26.000Z</time>
      </trkpt>
      <trkpt lat="46.20706" lon="6.77726">
        <ele>1501</ele>
        <time>2016-02-27T11:16:11.000Z</time>
      </trkpt>
      <trkpt lat="46.20706" lon="6.77726">
        <ele>1501</ele>
        <time>2016-02-27T11:16:12.000Z</time>
      </trkpt>
      <trkpt lat="46.20708" lon="6.77736">
        <ele>1500.5999755859</ele>
        <time>2016-02-27T11:19:08.000Z</time>
      </trkpt>
      <trkpt lat="46.20726" lon="6.77736">
        <ele>1501</ele>
        <time>2016-02-27T11:19:45.000Z</time>
      </trkpt>
      <trkpt lat="46.20729" lon="6.77736">
        <ele>1501</ele>
        <time>2016-02-27T11:19:47.000Z</time>
      </trkpt>
      <trkpt lat="46.20748" lon="6.77736">
        <ele>1504.5999755859</ele>
        <time>2016-02-27T11:20:00.000Z</time>
      </trkpt>
      <trkpt lat="46.20755" lon="6.77735">
        <ele>1506</ele>
        <time>2016-02-27T11:20:08.000Z</time>
      </trkpt>
      <trkpt lat="46.20782" lon="6.77726">
        <ele>1511</ele>
        <time>2016-02-27T11:20:44.000Z</time>
      </trkpt>
      <trkpt lat="46.20784" lon="6.77726">
        <ele>1511.1999511719</ele>
        <time>2016-02-27T11:20:46.000Z</time>
      </trkpt>
      <trkpt lat="46.20799" lon="6.77712">
        <ele>1512.5999755859</ele>
        <time>2016-02-27T11:21:02.000Z</time>
      </trkpt>
      <trkpt lat="46.2081" lon="6.77688">
        <ele>1510.8000488281</ele>
        <time>2016-02-27T11:21:09.000Z</time>
      </trkpt>
      <trkpt lat="46.20821" lon="6.77664">
        <ele>1512</ele>
        <time>2016-02-27T11:21:15.000Z</time>
      </trkpt>
      <trkpt lat="46.20829" lon="6.7764">
        <ele>1511.4000244141</ele>
        <time>2016-02-27T11:21:21.000Z</time>
      </trkpt>
      <trkpt lat="46.20836" lon="6.77615">
        <ele>1511.4000244141</ele>
        <time>2016-02-27T11:21:29.000Z</time>
      </trkpt>
      <trkpt lat="46.20846" lon="6.7759">
        <ele>1510</ele>
        <time>2016-02-27T11:21:37.000Z</time>
      </trkpt>
      <trkpt lat="46.20847" lon="6.77589">
        <ele>1509.5999755859</ele>
        <time>2016-02-27T11:21:38.000Z</time>
      </trkpt>
      <trkpt lat="46.20854" lon="6.77571">
        <ele>1506.5999755859</ele>
        <time>2016-02-27T11:21:59.000Z</time>
      </trkpt>
      <trkpt lat="46.20872" lon="6.77554">
        <ele>1512.4000244141</ele>
        <time>2016-02-27T11:22:19.000Z</time>
      </trkpt>
      <trkpt lat="46.2089" lon="6.77547">
        <ele>1509.8000488281</ele>
        <time>2016-02-27T11:22:31.000Z</time>
      </trkpt>
      <trkpt lat="46.20908" lon="6.77539">
        <ele>1509.8000488281</ele>
        <time>2016-02-27T11:22:37.000Z</time>
      </trkpt>
      <trkpt lat="46.20918" lon="6.77526">
        <ele>1509.1999511719</ele>
        <time>2016-02-27T11:22:40.000Z</time>
      </trkpt>
      <trkpt lat="46.20922" lon="6.775">
        <ele>1502</ele>
        <time>2016-02-27T11:22:44.000Z</time>
      </trkpt>
      <trkpt lat="46.20922" lon="6.77493">
        <ele>1499.4000244141</ele>
        <time>2016-02-27T11:22:45.000Z</time>
      </trkpt>
      <trkpt lat="46.20924" lon="6.77487">
        <ele>1497.5999755859</ele>
        <time>2016-02-27T11:22:46.000Z</time>
      </trkpt>
      <trkpt lat="46.2094" lon="6.77473">
        <ele>1497.5999755859</ele>
        <time>2016-02-27T11:22:50.000Z</time>
      </trkpt>
      <trkpt lat="46.20954" lon="6.77457">
        <ele>1496</ele>
        <time>2016-02-27T11:22:53.000Z</time>
      </trkpt>
      <trkpt lat="46.20972" lon="6.77442">
        <ele>1489.1999511719</ele>
        <time>2016-02-27T11:22:57.000Z</time>
      </trkpt>
      <trkpt lat="46.20993" lon="6.77441">
        <ele>1491</ele>
        <time>2016-02-27T11:23:02.000Z</time>
      </trkpt>
      <trkpt lat="46.21001" lon="6.77442">
        <ele>1493.1999511719</ele>
        <time>2016-02-27T11:23:04.000Z</time>
      </trkpt>
      <trkpt lat="46.21014" lon="6.77442">
        <ele>1496</ele>
        <time>2016-02-27T11:23:07.000Z</time>
      </trkpt>
      <trkpt lat="46.2104" lon="6.77435">
        <ele>1493.4000244141</ele>
        <time>2016-02-27T11:23:14.000Z</time>
      </trkpt>
      <trkpt lat="46.21062" lon="6.77426">
        <ele>1489</ele>
        <time>2016-02-27T11:23:22.000Z</time>
      </trkpt>
      <trkpt lat="46.21073" lon="6.77428">
        <ele>1494.4000244141</ele>
        <time>2016-02-27T11:23:35.000Z</time>
      </trkpt>
      <trkpt lat="46.21083" lon="6.77426">
        <ele>1496.8000488281</ele>
        <time>2016-02-27T11:24:38.000Z</time>
      </trkpt>
      <trkpt lat="46.21077" lon="6.77426">
        <ele>1495</ele>
        <time>2016-02-27T11:26:05.000Z</time>
      </trkpt>
    </trkseg>
  </trk>
</gpx>